[[{"header":{"parameterUnit":"m.s-1","parameterCategory":1,"la1":31.0,"la2":29.5877,"lo1":-88.7671,"lo2":-86.6584,"dy":0.0162,"dx":0.0185,"nx":115,"ny":88,"refTime":"2026-04-06T12:00:00:Z","depth":0,"parameterNumber":2,"parameterNumberName":"U-component_of_WINDS"},"data":[0.0,0.0,0.0,0.0,0.0,0.0,0.0,0.0,0.0,0.0,0.0,0.0,0.0,0.0,0.0,0.0,0.0,0.0,0.0,0.0,0.0,0.0,0.0,0.0,0.0,0.0,0.0,0.0,0.0,0.0,0.0,0.0,0.0,0.0,0.0,0.0,0.0,0.0,0.0,0.0,0.0,0.0,0.0,0.0,0.0,0.0,0.0,0.0,0.0,0.0,0.0,0.0,0.0,0.0,0.0,0.0,0.0,0.0,0.0,0.0,0.0,0.0,0.0,0.0,0.0,0.0,0.0,0.0,0.0,0.0,0.0,0.0,0.0,0.0,0.0,0.0,0.0,0.0,0.0,0.0,0.0,0.0,0.0,0.0,0.0,0.0,0.0,0.0,0.0,0.0,0.0,0.0,0.0,0.0,0.0,0.0,0.0,0.0,0.0,0.0,0.0,0.0,0.0,0.0,0.0,0.0,0.0,0.0,0.0,0.0,0.0,0.0,0.0,0.0,0.0,0.0,0.0,0.0,0.0,0.0,0.0,0.0,0.0,0.0,0.0,0.0,0.0,0.0,0.0,0.0,0.0,0.0,0.0,0.0,0.0,0.0,0.0,0.0,0.0,0.0,0.0,0.0,0.0,0.0,0.0,0.0,0.0,0.0,0.0,0.0,0.0,0.0,0.0,0.0,0.0,0.0,0.0,0.0,0.0,0.0,0.0,0.0,0.0,0.0,0.0,0.0,0.0,0.0,0.0,0.0,0.0,0.0,0.0,0.0,0.0,0.0,0.0,0.0,0.0,0.0,0.0,0.0,0.0,0.0,0.0,0.0,0.0,0.0,0.0,0.0,0.0,0.0,0.0,0.0,0.0,0.0,0.0,0.0,0.0,0.0,0.0,0.0,0.0,0.0,0.0,0.0,0.0,0.0,0.0,0.0,0.0,0.0,0.0,0.0,0.0,0.0,0.0,0.0,0.0,0.0,0.0,0.0,0.0,0.0,0.0,0.0,0.0,0.0,0.0,0.0,0.0,0.0,0.0,0.0,0.0,0.0,0.0,0.0,0.0,0.0,0.0,0.0,0.0,0.0,0.0,0.0,0.0,0.0,0.0,0.0,0.0,0.0,0.0,0.0,0.0,0.0,0.0,0.0,0.0,0.0,0.0,0.0,0.0,0.0,0.0,0.0,0.0,0.0,0.0,0.0,0.0,0.0,0.0,0.0,0.0,0.0,0.0,0.0,0.0,0.0,0.0,0.0,0.0,0.0,0.0,0.0,0.0,0.0,0.0,0.0,0.0,0.0,0.0,0.0,0.0,0.0,0.0,0.0,0.0,0.0,0.0,0.0,0.0,0.0,0.0,0.0,0.0,0.0,0.0,0.0,0.0,0.0,0.0,0.0,0.0,0.0,0.0,0.0,0.0,0.0,0.0,0.0,0.0,0.0,0.0,0.0,0.0,0.0,0.0,0.0,0.0,0.0,0.0,0.0,0.0,0.0,0.0,0.0,0.0,0.0,0.0,0.0,0.0,0.0,0.0,0.0,0.0,0.0,0.0,0.0,0.0,0.0,0.0,0.0,0.0,0.0,0.0,0.0,0.0,0.0,0.0,0.0,0.0,0.0,0.0,0.0,0.0,0.0,0.0,0.0,0.0,0.0,0.0,0.0,0.0,0.0,0.0,0.0,0.0,0.0,0.0,0.0,0.0,0.0,0.0,0.0,0.0,0.0,0.0,0.0,0.0,0.0,0.0,0.0,0.0,0.0,0.0,0.0,0.0,0.0,0.0,0.0,0.0,0.0,0.0,0.0,0.0,0.0,0.0,0.0,0.0,0.0,0.0,0.0,0.0,0.0,0.0,0.0,0.0,0.0,0.0,0.0,0.0,0.0,0.0,0.0,0.0,0.0,0.0,0.0,0.0,0.0,0.0,0.0,0.0,0.0,0.0,0.0,0.0,0.0,0.0,0.0,0.0,0.0,0.0,0.0,0.0,0.0,0.0,0.0,0.0,0.0,0.0,0.0,0.0,0.0,0.0,0.0,0.0,0.0,0.0,0.0,0.0,0.0,0.0,0.0,0.0,0.0,0.0,0.0,0.0,0.0,0.0,0.0,0.0,0.0,0.0,0.0,0.0,0.0,0.0,0.0,0.0,0.0,0.0,0.0,0.0,0.0,0.0,0.0,0.0,0.0,0.0,0.0,0.0,0.0,0.0,0.0,0.0,0.0,0.0,0.0,0.0,0.0,0.0,0.0,0.0,0.0,0.0,0.0,0.0,0.0,0.0,0.0,0.0,0.0,0.0,0.0,0.0,0.0,0.0,0.0,0.0,0.0,0.0,0.0,0.0,0.0,0.0,0.0,0.0,0.0,0.0,0.0,0.0,0.0,0.0,0.0,0.0,0.0,0.0,0.0,0.0,0.0,0.0,0.0,0.0,0.0,0.0,0.0,0.0,0.0,0.0,0.0,0.0,0.0,0.0,0.0,0.0,0.0,0.0,0.0,0.0,0.0,0.0,0.0,0.0,0.0,0.0,0.0,0.0,0.0,0.0,0.0,0.0,0.0,0.0,0.0,0.0,0.0,0.0,0.0,0.0,0.0,0.0,0.0,0.0,0.0,0.0,0.0,0.0,0.0,0.0,0.0,0.0,0.0,0.0,0.0,0.0,0.0,0.0,0.0,0.0,0.0,0.0,0.0,0.0,0.0,0.0,0.0,0.0,0.0,0.0,0.0,0.0,0.0,0.0,0.0,0.0,0.0,0.0,0.0,0.0,0.0,0.0,0.0,0.0,0.0,0.0,0.0,0.0,0.0,0.0,0.0,0.0,0.0,0.0,0.0,0.0,0.0,0.0,0.0,0.0,0.0,0.0,0.0,0.0,0.0,0.0,0.0,0.0,0.0,0.0,0.0,0.0,0.0,0.0,0.0,0.0,0.0,0.0,0.0,0.0,0.0,0.0,0.0,0.0,0.0,0.0,0.0,0.0,0.0,0.0,0.0,0.0,0.0,0.0,0.0,0.0,0.0,0.0,0.0,0.0,0.0,0.0,0.0,0.0,0.0,0.0,0.0,0.0,0.0,0.0,0.0,0.0,0.0,0.0,0.0,0.0,0.0,0.0,0.0,0.0,0.0,0.0,0.0,0.0,0.0,0.0,0.0,0.0,0.0,0.0,0.0,0.0,0.0,0.0,0.0,0.0,0.0,0.0,0.0,0.0,0.0,0.0,0.0,0.0,0.0,0.0,0.0,0.0,0.0,0.0,0.0,0.0,0.0,0.0,0.0,0.0,0.0,0.0,0.0,0.0,0.0,0.0,0.0,0.0,0.0,0.0,0.0,0.0,0.0,0.0,0.0,0.0,0.0,0.0,0.0,0.0,0.0,0.0,0.0,0.0,0.0,0.0,0.0,0.0,0.0,0.0,0.0,0.0,0.0,0.0,0.0,0.0,0.0,0.0,0.0,0.0,0.0,0.0,0.0,0.0,0.0,0.0,0.0,0.0,0.0,0.0,0.0,0.0,0.0,0.0,0.0,0.0,0.0,0.0,0.0,0.0,0.0,0.0,0.0,0.0,0.0,0.0,0.0,0.0,0.0,0.0,0.0,0.0,0.0,0.0,0.0,0.0,0.0,0.0,0.0,0.0,0.0,0.0,0.0,0.0,0.0,0.0,0.0,0.0,0.0,0.0,0.0,0.0,0.0,0.0,0.0,0.0,0.0,0.0,0.0,0.0,0.0,0.0,0.0,0.0,0.0,0.0,0.0,0.0,0.0,0.0,0.0,0.0,0.0,0.0,0.0,0.0,0.0,0.0,0.0,0.0,0.0,0.0,0.0,0.0,0.0,0.0,0.0,0.0,0.0,0.0,0.0,0.0,0.0,0.0,0.0,0.0,0.0,0.0,0.0,0.0,0.0,0.0,0.0,0.0,0.0,0.0,0.0,0.0,0.0,0.0,0.0,0.0,0.0,0.0,0.0,0.0,0.0,0.0,0.0,0.0,0.0,0.0,0.0,0.0,0.0,0.0,0.0,0.0,0.0,0.0,0.0,0.0,0.0,0.0,0.0,0.0,0.0,0.0,0.0,0.0,0.0,0.0,0.0,0.0,0.0,0.0,0.0,0.0,0.0,0.0,0.0,0.0,0.0,0.0,0.0,0.0,0.0,0.0,0.0,0.0,0.0,0.0,0.0,0.0,0.0,0.0,0.0,0.0,0.0,0.0,0.0,0.0,0.0,0.0,0.0,0.0,0.0,0.0,0.0,0.0,0.0,0.0,0.0,0.0,0.0,0.0,0.0,0.4932,0.0,0.0,0.0,0.0,0.0,0.0,0.0,0.0,0.0,0.0,0.0,0.0,0.0,0.0,0.0,0.0,0.0,0.0,0.0,0.0,0.0,0.0,0.0,0.0,0.0,0.0,0.0,0.0,0.0,0.0,0.0,0.0,0.0,0.0,0.0,0.0,0.0,0.0,0.0,0.0,0.0,0.0,0.0,0.0,0.0,0.0,0.0,0.0,0.0,0.0,0.0,0.0,0.0,0.0,0.0,0.0,0.0,0.0,0.0,0.0,0.0,0.0,0.0,0.0,0.0,0.0,0.0,0.0,0.0,0.0,0.0,0.0,0.0,0.0,0.0,0.0,0.0,0.0,0.0,0.0,0.0,0.0,0.0,0.0,0.0,0.0,0.0,0.0,0.0,0.0,0.0,0.0,0.0,0.0,0.0,0.0,0.0,0.0,0.0,0.0,0.0,0.0,0.0,0.0,0.0,0.0,0.0,0.0,0.0,0.0,0.4958,0.4904,0.4904,0.4825,0.4682,0.0,0.0,0.0,0.0,0.0,0.0,0.0,0.0,0.0,0.0,0.0,0.0,0.0,0.0,0.0,0.0,0.0,0.0,0.0,0.0,0.0,0.0,0.0,0.0,0.0,0.0,0.0,0.0,0.0,0.0,0.0,0.0,0.0,0.0,0.0,0.0,0.0,0.0,0.0,0.0,0.0,0.0,0.0,0.0,0.0,0.0,0.0,0.0,0.0,0.0,0.0,0.0,0.0,0.0,0.0,0.0,0.0,0.0,0.0,0.0,0.0,0.0,0.0,0.0,0.0,0.0,0.0,0.0,0.0,0.0,0.0,0.0,0.0,0.0,0.0,0.0,0.0,0.0,0.0,0.0,0.0,0.0,0.0,0.0,0.0,0.0,0.0,0.0,0.0,0.0,0.0,0.0,0.0,0.0,0.0,0.0,0.0,0.0,0.0,0.0,0.0,0.0,0.0,0.0,0.0,0.0,0.0,0.0,0.0,0.0,0.0,0.0,0.4786,0.4684,0.443,0.0,0.0,0.0,0.0,0.0,0.0,0.0,0.0,0.0,0.0,0.0,0.0,0.0,0.0,0.0,0.0,0.0,0.0,0.0,0.0,0.0,0.0,0.0,0.0,0.0,0.0,0.0,0.0,0.0,0.0,0.0,0.0,0.0,0.0,0.0,0.0,0.0,0.0,0.0,0.0,0.0,0.0,0.0,0.0,0.0,0.0,0.0,0.0,0.0,0.0,0.0,0.0,0.0,0.0,0.0,0.0,0.0,0.0,0.0,0.0,0.0,0.0,0.0,0.0,0.0,0.0,0.0,0.0,0.0,0.0,0.0,0.0,0.0,0.0,0.0,0.0,0.0,0.0,0.0,0.0,0.0,0.0,0.0,0.0,0.0,0.0,0.0,0.0,0.0,0.0,0.0,0.0,0.0,0.0,0.0,0.0,0.0,0.0,0.0,0.0,0.0,0.0,0.0,0.0,0.0,0.0,0.0,0.0,0.0,0.0,0.475,0.4797,0.4786,0.0,0.442,0.0,0.0,0.0,0.0,0.0,0.0,0.0,0.0,0.0,0.0,0.0,0.0,0.0,0.0,0.0,0.0,0.0,0.0,0.0,0.0,0.0,0.0,0.0,0.0,0.0,0.0,0.0,0.0,0.0,0.0,0.0,0.0,0.0,0.0,0.0,0.0,0.0,0.0,0.0,0.0,0.0,0.0,0.0,0.0,0.0,0.0,0.0,0.0,0.0,0.0,0.0,0.0,0.0,0.0,0.0,0.0,0.0,0.0,0.0,0.0,0.0,0.0,0.0,0.0,0.0,0.0,0.0,0.0,0.0,0.0,0.0,0.0,0.0,0.0,0.0,0.0,0.0,0.0,0.0,0.0,0.0,0.0,0.0,0.0,0.0,0.0,0.0,0.0,0.0,0.0,0.0,0.0,0.0,0.0,0.0,0.0,0.0,0.0,0.0,0.0,0.0,0.0,0.0,0.0,0.0,0.0,0.0,0.0,0.0,0.0,0.47,0.4686,0.4442,0.4282,0.0,0.0,0.0,0.0,0.0,0.0,0.0,0.0,0.0,0.0,0.0,0.0,0.0,0.0,0.0,0.0,0.0,0.0,0.0,0.0,0.0,0.0,0.0,0.0,0.0,0.0,0.0,0.0,0.0,0.0,0.0,0.0,0.0,0.0,0.0,0.0,0.0,0.0,0.0,0.0,0.0,0.0,0.0,0.0,0.0,0.0,0.0,0.0,0.0,0.0,0.0,0.0,0.0,0.0,0.0,0.0,0.0,0.0,0.0,0.0,0.0,0.0,0.0,0.0,0.0,0.0,0.0,0.0,0.0,0.0,0.0,0.0,0.0,0.0,0.0,0.0,0.0,0.0,0.0,0.0,0.0,0.0,0.0,0.0,0.0,0.0,0.0,0.0,0.0,0.0,0.0,0.0,0.0,0.0,0.0,0.0,0.0,0.0,0.0,0.0,0.0,0.0,0.0,0.0,0.0,0.0,0.0,0.0,0.0,0.0,0.4519,0.4613,0.4635,0.4278,0.4047,0.3977,0.0,0.0,0.0,0.0,0.0,0.0,0.0,0.0,0.0,0.0,0.0,0.0,0.0,0.0,0.0,0.0,0.0,0.0,0.0,0.0,0.0,0.0,0.0,0.0,0.0,0.0,0.0,0.0,0.0,0.0,0.0,0.0,0.0,0.0,0.0,0.0,0.0,0.0,0.0,0.0,0.0,0.0,0.0,0.0,0.0,0.0,0.0,0.0,0.0,0.0,0.0,0.0,0.0,0.0,0.0,0.0,0.0,0.0,0.0,0.0,0.0,0.0,0.0,0.0,0.0,0.0,0.0,0.0,0.0,0.0,0.0,0.0,0.0,0.0,0.0,0.0,0.0,0.0,0.0,0.0,0.0,0.0,0.0,0.0,0.0,0.0,0.0,0.0,0.0,0.0,0.0,0.0,0.0,0.0,0.0,0.0,0.0,0.0,0.0,0.0,0.0,0.0,0.0,0.0,0.0,0.0,0.0,0.0,0.0,0.4281,0.4524,0.4769,0.4458,0.4162,0.0,0.0,0.0,0.0,0.0,0.0,0.0,0.0,0.0,0.0,0.0,0.0,0.0,0.0,0.0,0.0,0.0,0.0,0.0,0.0,0.0,0.0,0.0,0.0,0.0,0.0,0.0,0.0,0.0,0.0,0.0,0.0,0.0,0.0,0.0,0.0,0.0,0.0,0.0,0.0,0.0,0.0,0.0,0.0,0.0,0.0,0.0,0.0,0.0,0.0,0.0,0.0,0.0,0.0,0.0,0.0,0.0,0.0,0.0,0.0,0.0,0.0,0.0,0.0,0.0,0.0,0.0,0.0,0.0,0.0,0.0,0.0,0.0,0.0,0.0,0.0,0.0,0.0,0.0,0.0,0.0,0.0,0.0,0.0,0.0,0.0,0.0,0.0,0.0,0.0,0.0,0.0,0.0,0.0,0.0,0.0,0.0,0.0,0.0,0.0,0.0,0.0,0.0,0.0,0.0,0.0,0.0,0.0,0.0,0.3806,0.4067,0.4268,0.4394,0.4221,0.3992,0.0,0.0,0.0,0.0,0.0,0.0,0.0,0.0,0.0,0.0,0.0,0.0,0.0,0.0,0.0,0.0,0.0,0.0,0.0,0.0,0.0,0.0,0.0,0.0,0.0,0.0,0.0,0.0,0.0,0.0,0.0,0.0,0.0,0.0,0.0,0.0,0.0,0.0,0.0,0.0,0.0,0.0,0.0,0.0,0.0,0.0,0.0,0.0,0.0,0.0,0.0,0.0,0.0,0.0,0.0,0.0,0.0,0.0,0.0,0.0,0.0,0.0,0.0,0.0,0.0,0.0,0.0,0.0,0.0,0.0,0.0,0.0,0.0,0.0,0.0,0.0,0.0,0.0,0.0,0.0,0.0,0.0,0.0,0.0,0.0,0.0,0.0,0.0,0.0,0.0,0.0,0.0,0.0,0.0,0.0,0.0,0.0,0.0,0.0,0.0,0.0,0.0,0.0,0.0,0.0,0.0,0.0,0.0,0.0,0.3796,0.0,0.4125,0.0,0.4173,0.3992,0.0,0.0,0.0,0.0,0.0,0.0,0.0,0.0,0.0,0.0,0.0,0.0,0.0,0.0,0.0,0.0,0.0,0.0,0.0,0.0,0.0,0.0,0.0,0.0,0.0,0.0,0.0,0.0,0.0,0.0,0.0,0.0,0.0,0.0,0.0,0.0,0.0,0.0,0.0,0.0,0.0,0.0,0.0,0.0,0.0,0.0,0.0,0.0,0.0,0.0,0.0,0.0,0.0,0.0,0.0,0.0,0.0,0.0,0.0,0.0,0.0,0.0,0.0,0.0,0.0,0.0,0.0,0.0,0.0,0.0,0.0,0.0,0.0,0.0,0.0,0.0,0.0,0.0,0.0,0.0,0.0,0.0,0.0,0.0,0.0,0.0,0.0,0.0,0.0,0.0,0.0,0.0,0.0,0.0,0.0,0.0,0.0,0.0,0.0,0.0,0.0,0.0,0.0,0.0,0.0,0.0,0.0,0.0,0.3429,0.3945,0.3953,0.4087,0.4461,0.4315,0.4145,0.0,0.0,0.0,0.0,0.0,0.0,0.0,0.0,0.0,0.0,0.0,0.0,0.0,0.0,0.0,0.0,0.0,0.0,0.0,0.0,0.0,0.0,0.0,0.0,0.0,0.0,0.0,0.0,0.0,0.0,0.0,0.0,0.0,0.0,0.0,0.0,0.0,0.0,0.0,0.0,0.0,0.0,0.0,0.0,0.0,0.0,0.0,0.0,0.0,0.0,0.0,0.0,0.0,0.0,0.0,0.0,0.0,0.0,0.0,0.0,0.0,0.0,0.0,0.0,0.0,0.0,0.0,0.0,0.0,0.0,0.0,0.0,0.0,0.0,0.0,0.0,0.0,0.0,0.0,0.0,0.0,0.0,0.0,0.0,0.0,0.0,0.0,0.0,0.0,0.0,0.0,0.0,0.0,0.0,0.0,0.0,0.0,0.0,0.0,0.0,0.0,0.0,0.0,0.0,0.0,0.0,0.0,0.0,0.0,0.3096,0.31,0.3229,0.3458,0.3562,0.3664,0.0,0.0,0.0,0.0,0.0,0.0,0.0,0.0,0.0,0.0,0.0,0.0,0.0,0.0,0.0,0.0,0.0,0.0,0.0,0.0,0.0,0.0,0.0,0.0,0.0,0.0,0.0,0.0,0.0,0.0,0.0,0.0,0.0,0.0,0.0,0.0,0.0,0.0,0.0,0.0,0.0,0.0,0.0,0.0,0.0,0.0,0.0,0.0,0.0,0.0,0.0,0.0,0.0,0.0,0.0,0.0,0.0,0.0,0.0,0.0,0.0,0.0,0.0,0.0,0.0,0.0,0.0,0.0,0.0,0.0,0.0,0.0,0.0,0.0,0.0,0.0,0.0,0.0,0.0,0.0,0.0,0.0,0.0,0.0,0.0,0.0,0.0,0.0,0.0,0.0,0.0,0.0,0.0,0.0,0.0,0.0,0.0,0.0,0.0,0.0,0.0,0.0,0.0,0.0,0.0,0.0,0.0,0.0,0.0,0.2395,0.2652,0.2857,0.3072,0.3304,0.3468,0.3584,0.0,0.0,0.0,0.0,0.0,0.0,0.0,0.0,0.0,0.0,0.0,0.0,0.0,0.0,0.0,0.0,0.0,0.0,0.0,0.0,0.0,0.0,0.0,0.0,0.0,0.0,0.0,0.0,0.0,0.0,0.0,0.0,0.0,0.0,0.0,0.0,0.0,0.0,0.0,0.0,0.0,0.0,0.0,0.0,0.0,0.0,0.0,0.0,0.0,0.0,0.0,0.0,0.0,0.0,0.0,0.0,0.0,0.0,0.0,0.0,0.0,0.0,0.0,0.0,0.0,0.0,0.0,0.0,0.0,0.0,0.0,0.0,0.0,0.0,0.0,0.0,0.0,0.0,0.0,0.0,0.0,0.0,0.0,0.0,0.0,0.0,0.0,0.0,0.0,0.0,0.0,0.0,0.0,0.0,0.0,0.0,0.0,0.0,0.0,0.0,0.0,0.0,0.0,0.0,0.0,0.0,0.0,0.0,0.1899,0.255,0.2965,0.3146,0.3391,0.3489,0.0,0.0,0.0,0.0,0.0,0.0,0.0,0.0,0.0,0.0,0.0,0.0,0.0,0.0,0.0,0.0,0.0,0.0,0.0,0.0,0.0,0.0,0.0,0.0,0.0,0.0,0.0,0.0,0.0,0.0,0.0,0.0,0.0,0.0,0.0,0.0,0.0,0.0,0.0,0.0,0.0,0.0,0.0,0.0,0.0,0.0,0.0,0.0,0.0,0.0,0.0,0.0,0.0,0.0,0.0,0.0,0.0,0.0,0.0,0.0,0.0,0.0,0.0,0.0,0.0,0.0,0.0,0.0,0.0,0.0,0.0,0.0,0.0,0.0,0.0,0.0,0.0,0.0,0.0,0.0,0.0,0.0,0.0,0.0,0.0,0.0,0.0,0.0,0.0,0.0,0.0,0.0,0.0,0.0,0.0,0.0,0.0,0.0,0.0,0.0,0.0,0.0,0.0,0.0,0.0,0.0,0.0,0.0,0.0,0.2128,0.2438,0.258,0.2539,0.2661,0.2832,0.0,0.0,0.0,0.0,0.0,0.0,0.0,0.0,0.0,0.0,0.0,0.0,0.0,0.0,0.0,0.0,0.0,0.0,0.0,0.0,0.0,0.0,0.0,0.0,0.0,0.0,0.0,0.0,0.0,0.0,0.0,0.0,0.0,0.0,0.0,0.0,0.0,0.0,0.0,0.0,0.0,0.0,0.0,0.0,0.0,0.0,0.0,0.0,0.0,0.0,0.0,0.0,0.0,0.0,0.0,0.0,0.0,0.0,0.0,0.0,0.0,0.0,0.0,0.0,0.0,0.0,0.0,0.0,0.0,0.0,0.0,0.0,0.0,0.0,0.0,0.0,0.0,0.0,0.0,0.0,0.0,0.0,0.0,0.0,0.0,0.0,0.0,0.0,0.0,0.0,0.0,0.0,0.0,0.0,0.0,0.0,0.0,0.0,0.0,0.0,0.0,0.0,0.0,0.0,0.0,0.0,0.0,0.0,0.2142,0.2227,0.2463,0.2598,0.2637,0.2653,0.2825,0.0,0.0,0.0,0.0,0.0,0.0,0.0,0.0,0.0,0.0,0.0,0.0,0.0,0.0,0.0,0.0,0.0,0.0,0.0,0.0,0.0,0.0,0.0,0.0,0.0,0.0,0.0,0.0,0.0,0.0,0.0,0.0,0.0,0.0,0.0,0.0,0.0,0.0,0.0,0.0,0.0,0.0,0.0,0.0,0.0,0.0,0.0,0.0,0.0,0.0,0.0,0.0,0.0,0.0,0.0,0.0,0.0,0.0,0.0,0.0,0.0,0.0,0.0,0.0,0.0,0.0,0.0,0.0,0.0,0.0,0.0,0.0,0.0,0.0,0.0,0.0,0.0,0.0,0.0,0.0,0.0,0.0,0.0,0.0,0.0,0.0,0.0,0.0,0.0,0.0,0.0,0.0,0.0,0.0,0.0,0.0,0.0,0.0,0.0,0.0,0.0,0.0,0.0,0.0,0.0,0.0,0.0,0.0,0.2255,0.2336,0.2605,0.2855,0.3114,0.3064,0.3195,0.0,0.0,0.0,0.0,0.0,0.0,0.0,0.0,0.0,0.0,0.0,0.0,0.0,0.0,0.0,0.0,0.0,0.0,0.0,0.0,0.0,0.0,0.0,0.0,0.0,0.0,0.0,0.0,0.0,0.0,0.0,0.0,0.0,0.0,0.0,0.0,0.0,0.0,0.0,0.0,0.0,0.0,0.0,0.0,0.0,0.0,0.0,0.0,0.0,0.0,0.0,0.0,0.0,0.0,0.0,0.0,0.0,0.0,0.0,0.0,0.0,0.0,0.0,0.0,0.0,0.0,0.0,0.0,0.0,0.0,0.0,0.0,0.0,0.0,0.0,0.0,0.0,0.0,0.0,0.0,0.0,0.0,0.0,0.0,0.0,0.0,0.0,0.0,0.0,0.0,0.0,0.0,0.0,0.0,0.0,0.0,0.0,0.0,0.0,0.0,0.0,0.0,0.0,0.0,0.0,0.0,0.0,0.0,0.2401,0.2613,0.2872,0.3119,0.3341,0.3272,0.3399,0.0,0.0,0.0,0.0,0.0,0.0,0.0,0.0,0.0,0.0,0.0,0.0,0.0,0.0,0.0,0.0,0.0,0.0,0.0,0.0,0.0,0.0,0.0,0.0,0.0,0.0,0.0,0.0,0.0,0.0,0.0,0.0,0.0,0.0,0.0,0.0,0.0,0.0,0.0,0.0,0.0,0.0,0.0,0.0,0.0,0.0,0.0,0.0,1.1798,0.0,0.0,0.0,0.0,0.0,0.0,0.0,0.0,0.0,0.0,0.0,0.0,0.0,0.0,0.0,0.0,0.0,0.0,0.0,0.0,0.0,0.0,0.0,0.0,0.0,0.0,0.0,0.0,0.0,0.0,0.0,0.0,0.0,0.0,0.0,0.0,0.0,0.0,0.0,0.0,0.0,0.0,0.0,0.0,0.0,0.0,0.0,0.0,0.0,0.0,0.0,0.0,0.0,0.0,0.0,0.0,0.0,0.0,0.0,0.2501,0.273,0.2963,0.3222,0.3489,0.352,0.3656,0.0,0.0,0.0,0.0,0.0,0.0,0.0,0.0,0.0,0.0,0.0,0.0,0.0,0.0,0.0,0.0,0.0,0.0,0.0,0.0,0.0,0.0,0.0,0.0,0.0,0.0,0.0,0.0,0.0,0.0,0.0,0.0,0.0,0.0,0.0,0.0,0.0,0.0,0.0,0.0,0.0,0.0,0.0,0.0,0.0,0.0,0.0,0.0,0.0,0.0,0.0,0.0,0.0,0.0,0.0,0.0,0.0,0.0,0.0,0.0,0.0,0.0,0.0,0.0,0.0,0.0,0.0,0.0,0.0,0.0,0.0,0.0,0.0,0.0,0.0,0.0,0.0,0.0,0.0,0.0,0.0,0.0,0.0,0.0,0.0,0.0,0.0,0.0,0.0,0.0,0.0,0.0,0.0,0.0,0.0,0.0,0.0,0.0,0.0,0.0,0.0,0.0,0.0,0.0,0.0,0.0,0.0,0.24,0.2627,0.2828,0.3007,0.3257,0.3555,0.3709,0.3859,0.4041,0.0,0.0,0.0,0.0,0.0,0.0,0.0,0.0,0.0,0.0,0.0,0.0,0.0,0.0,0.0,0.0,0.0,0.0,0.0,0.0,0.0,0.0,0.0,0.0,0.0,0.0,0.0,0.0,0.0,0.0,0.0,0.0,0.0,0.0,0.0,0.0,0.0,0.0,1.0491,1.1062,0.0,0.0,0.0,0.0,0.0,0.0,0.0,0.0,1.2437,0.0,0.0,0.0,0.0,0.0,0.0,0.0,0.0,0.0,0.0,0.0,0.0,0.0,0.0,0.0,0.0,0.0,0.0,0.0,0.0,0.0,0.0,0.0,0.0,0.0,0.0,0.0,0.0,0.0,0.0,0.0,0.0,0.0,0.0,0.0,0.0,0.0,0.0,0.0,0.0,0.0,0.0,0.0,0.0,0.0,0.0,0.0,0.0,0.0,0.0,0.0,0.0,0.0,0.0,0.0,0.0,0.2186,0.2504,0.2771,0.2972,0.3106,0.3245,0.3414,0.3607,0.3756,0.3862,0.0,0.0,0.0,0.0,0.0,0.0,0.0,0.0,0.0,0.0,0.0,0.0,0.0,0.0,0.0,0.0,0.0,0.0,0.0,0.0,0.0,0.0,0.0,0.0,0.0,0.0,0.0,0.0,0.0,0.0,0.0,0.0,0.0,0.0,0.0,0.0,0.0,0.0,0.0,1.1803,1.187,0.0,0.0,0.0,0.0,0.0,0.0,0.0,0.0,1.1953,0.0,0.0,0.0,0.0,0.0,0.0,0.0,0.0,0.0,0.0,0.0,0.0,0.0,0.0,0.0,0.0,0.0,0.0,0.0,0.0,0.0,0.0,0.0,0.0,0.0,0.0,0.0,0.0,0.0,0.0,0.0,0.0,0.0,0.0,0.0,0.0,0.0,0.0,0.0,0.0,0.0,0.0,0.0,0.0,0.0,0.0,0.0,0.0,0.0,0.0,0.0,0.0,0.0,0.0,0.0,0.2257,0.2542,0.2818,0.3047,0.3153,0.3221,0.3242,0.32,0.3278,0.0,0.0,0.0,0.0,0.0,0.0,0.0,0.0,0.0,0.0,0.0,0.0,0.0,0.0,0.0,0.0,0.0,0.0,0.0,0.0,0.0,0.0,0.0,0.0,0.0,0.0,0.0,0.0,0.0,0.0,0.0,0.0,0.0,0.0,0.0,0.0,0.0,0.0,0.0,0.0,1.2287,1.2633,1.2398,0.0,0.0,0.0,0.0,0.0,0.0,1.264,1.2154,0.0,0.0,0.0,0.0,0.0,0.0,0.0,0.0,0.0,0.0,0.0,0.0,0.0,0.0,0.0,0.0,0.0,0.0,0.0,0.0,0.0,0.0,0.0,0.0,0.0,0.0,0.0,0.0,0.0,0.0,0.0,0.0,0.0,0.0,0.0,0.0,0.0,0.0,0.0,0.0,0.0,0.0,0.0,0.0,0.0,0.0,0.0,0.0,0.0,0.0,0.0,0.0,0.0,0.0,0.0,0.2291,0.2574,0.2856,0.3091,0.3166,0.3166,0.308,0.282,0.2835,0.0,0.0,0.0,0.0,0.0,0.0,0.0,0.0,0.0,0.0,0.0,0.0,0.0,0.0,0.0,0.0,0.0,0.0,0.0,0.0,0.0,0.0,0.0,0.0,0.0,0.0,0.0,0.0,0.0,0.0,0.0,0.0,0.0,0.0,0.0,0.0,0.0,0.0,0.0,0.0,0.0,1.328,1.3321,1.2737,0.0,0.0,0.0,0.0,1.3409,1.3164,0.0,0.0,0.0,0.0,0.0,0.0,0.0,0.0,0.0,0.0,0.0,0.0,0.0,0.0,0.0,0.0,0.0,0.0,0.0,0.0,0.0,0.0,0.0,0.0,0.0,0.0,0.0,0.0,0.0,0.0,0.0,0.0,0.0,0.0,0.0,0.0,0.0,0.0,0.0,0.0,0.0,0.0,0.0,0.0,0.0,0.0,0.0,0.0,0.0,0.0,0.0,0.0,0.0,0.0,0.0,0.0,0.2296,0.2679,0.2961,0.3094,0.3166,0.3147,0.3019,0.2757,0.2725,0.0,0.0,0.0,0.0,0.0,0.0,0.0,0.0,0.0,0.0,0.0,0.0,0.0,0.0,0.0,0.0,0.0,0.0,0.0,0.0,0.0,0.0,0.0,0.0,0.0,0.0,0.0,0.0,0.0,0.0,0.0,0.0,0.0,0.0,0.0,0.0,0.0,0.0,0.0,0.0,0.0,1.3695,1.41,1.3674,1.3454,0.0,0.0,1.3781,1.4654,1.4303,0.0,0.0,0.0,0.0,0.0,0.0,0.0,0.0,0.0,0.0,0.0,0.0,0.0,0.0,0.0,0.0,0.0,0.0,0.0,0.0,0.0,0.0,0.0,0.0,0.0,0.0,0.0,0.0,0.0,0.0,0.0,0.0,0.0,0.0,0.0,0.0,0.0,0.0,0.0,0.0,0.0,0.0,0.0,0.0,0.0,0.0,0.0,0.0,0.0,0.0,0.0,0.0,0.0,0.0,0.0,0.1974,0.236,0.2727,0.2971,0.3095,0.3161,0.3144,0.2985,0.2692,0.269,0.0,0.0,0.0,0.0,0.0,0.0,0.0,0.0,0.0,0.0,0.0,0.0,0.0,0.0,0.0,0.0,0.0,0.0,0.0,0.0,0.0,0.0,0.0,0.0,0.0,0.0,0.0,0.0,0.0,0.0,0.0,0.0,0.0,0.0,0.0,0.0,0.0,0.0,0.0,0.0,0.0,0.0,1.4918,1.4724,0.0,0.0,0.0,1.4555,1.5131,0.0,0.0,0.0,0.0,0.0,0.0,0.0,0.0,0.0,0.0,0.0,0.0,0.0,0.0,0.0,0.0,0.0,0.0,0.0,0.0,0.0,0.0,0.0,0.0,0.0,0.0,0.0,0.0,0.0,0.0,0.0,0.0,0.0,0.0,0.0,0.0,0.0,0.0,0.0,0.0,0.0,0.0,0.0,0.0,0.0,0.0,0.0,0.0,0.0,0.0,0.0,0.0,0.0,0.0,0.0,0.0,0.0,0.2417,0.2741,0.2976,0.3085,0.3174,0.3144,0.3008,0.2698,0.0,0.0,0.0,0.0,0.0,0.0,0.0,0.0,0.0,0.0,0.0,0.0,0.0,0.0,0.0,0.0,0.0,0.0,0.0,0.0,0.0,0.0,0.0,0.0,0.0,0.0,0.0,0.5043,0.0,0.0,0.0,0.0,0.0,0.0,0.0,0.0,0.0,0.0,0.0,0.0,0.0,0.0,1.4768,1.5539,1.5541,1.5516,0.0,0.0,1.5385,1.5756,1.5869,1.5597,0.0,0.0,0.0,0.0,0.0,0.0,0.0,0.0,0.0,0.0,0.0,0.0,0.0,0.0,0.0,0.0,0.0,0.0,0.0,0.0,0.0,0.0,0.0,0.0,0.0,0.0,0.0,0.0,0.0,0.0,0.0,0.0,0.0,0.0,0.0,0.0,0.0,0.0,0.0,0.0,0.0,0.0,0.0,0.0,0.0,0.0,0.0,0.0,0.0,0.0,0.0,0.0,0.0,0.0,0.0,0.2476,0.282,0.3014,0.3112,0.3174,0.3144,0.2985,0.2777,0.2692,0.0,0.0,0.0,0.0,0.0,0.0,0.0,0.0,0.0,0.0,0.0,0.0,0.0,0.0,0.0,0.0,0.0,0.0,0.0,0.0,0.0,0.0,0.0,0.0,0.0,0.0,0.0,0.0,0.0,0.0,0.0,0.0,0.0,0.0,0.0,0.0,0.0,0.0,0.0,0.0,0.0,1.4889,1.5904,1.5937,1.5987,0.0,0.0,1.6367,1.6814,1.6529,1.5967,1.5092,0.0,0.0,0.0,0.0,0.0,0.0,0.0,0.0,0.0,0.0,0.0,0.0,0.0,0.0,0.0,0.0,0.0,0.0,0.0,0.0,0.0,0.0,0.0,0.0,0.0,0.0,0.0,0.0,0.0,0.0,0.0,0.0,0.0,0.0,0.0,0.0,0.0,0.0,0.0,0.0,0.0,0.0,0.0,0.0,0.0,0.0,0.0,0.0,0.0,0.0,0.0,0.0,0.0,0.1812,0.2122,0.2417,0.2594,0.2666,0.2684,0.2747,0.2807,0.2616,0.2629,0.0,0.0,0.0,0.0,0.0,0.0,0.0,0.0,0.0,0.0,0.0,0.0,0.0,0.0,0.0,0.0,0.0,0.0,0.0,0.0,0.0,0.0,0.0,0.0,0.0,0.0,0.0,0.0,0.5712,0.5918,0.6084,0.0,0.0,0.0,0.0,0.0,0.0,0.0,0.0,0.0,0.0,1.551,1.6073,1.6727,0.0,0.0,1.7383,1.741,1.6897,1.6792,1.6265,1.4803,1.3682,0.0,0.0,0.0,0.0,0.0,0.0,0.0,0.0,0.0,0.0,0.0,0.0,0.0,0.0,0.0,0.0,0.0,0.0,0.0,0.0,0.0,0.0,0.0,0.0,0.0,0.0,0.0,0.0,0.0,0.0,0.0,0.0,0.0,0.0,0.0,0.0,0.0,0.0,0.0,0.0,0.0,0.0,0.0,0.0,0.0,0.0,0.0,0.0,0.0,0.0,0.0,0.0,0.1653,0.1926,0.2208,0.2359,0.2421,0.2427,0.2481,0.2571,0.2495,0.2566,0.0,0.0,0.0,0.0,0.0,0.0,0.0,0.0,0.0,0.0,0.0,0.0,0.0,0.0,0.0,0.0,0.0,0.0,0.0,0.0,0.0,0.0,0.0,0.0,0.0,0.0,0.0,0.0,0.6432,0.6512,0.6703,0.0,0.0,0.0,0.0,0.0,0.0,0.0,0.0,0.0,0.0,1.5756,1.6264,1.7146,1.7659,1.7533,1.7922,1.7915,1.6964,1.6853,1.6305,1.475,0.0,0.0,0.0,0.0,0.0,0.0,0.0,0.0,0.0,0.0,0.0,0.0,0.0,0.0,0.0,0.0,0.0,0.0,0.0,0.0,0.0,0.0,0.0,0.0,0.0,0.0,0.0,0.0,0.0,0.0,-0.0919,0.0,0.0,0.0,0.0,0.0,0.0,0.0,0.0,0.0,0.0,0.0,0.0,0.0,0.0,0.0,0.0,0.0,0.0,0.0,0.0,0.0,0.0,0.1726,0.1995,0.2232,0.2368,0.2399,0.2463,0.2418,0.231,0.2474,0.254,0.2422,0.0,0.0,0.0,0.0,0.0,0.0,0.0,0.0,0.0,0.0,0.0,0.0,0.0,0.0,0.0,0.0,0.0,0.0,0.0,0.0,0.0,0.0,0.0,0.0,0.0,0.0,0.694,0.699,0.698,0.0,0.0,0.0,0.0,0.0,0.0,0.0,0.0,0.0,0.0,1.4124,1.5432,1.6543,1.6946,1.7291,1.7487,1.7769,1.7732,1.7159,1.6592,1.594,0.0,0.0,0.0,0.0,0.0,0.0,0.0,0.0,0.0,0.0,0.0,0.0,0.0,0.0,0.0,0.0,0.0,0.0,0.0,0.0,0.0,0.0,0.0,0.0,0.0,0.0,0.0,-0.1977,-0.166,0.0,0.0,0.0,0.0,0.0,0.0,0.0,0.0,0.0,0.0,0.0,0.1436,0.1583,0.0,0.0,0.0,0.0,0.0,0.0,0.0,0.0,0.0,0.0,0.0,0.0,0.1388,0.1575,0.1786,0.189,0.1934,0.1952,0.2023,0.2151,0.2139,0.2097,0.1999,0.0,0.0,0.0,0.0,0.0,0.0,0.0,0.0,0.0,0.0,0.0,0.0,0.0,0.0,0.0,0.0,0.0,0.0,0.0,0.0,0.0,0.0,0.0,0.0,0.0,0.6911,0.0,0.0,0.0,0.0,0.0,0.0,0.0,0.0,0.0,0.0,0.0,1.2055,1.3082,1.4613,1.5874,1.6594,1.7403,1.7992,0.0,0.0,0.0,0.0,0.0,0.0,0.0,0.0,0.0,0.0,0.0,0.0,0.0,0.0,1.4533,1.4002,1.3605,1.3268,1.3012,0.0,0.0,0.0,0.0,0.0,0.0,0.0,0.0,0.0,0.0,0.0,0.0,0.0,0.0,-0.303,0.0,-0.2644,0.0,0.0,0.0,0.0,0.0,0.0,0.0,0.0,0.1635,0.1679,0.1569,0.1712,0.1716,0.0,0.1515,0.1442,0.0,0.0,0.0,0.0,0.0,0.0,0.0,0.0,0.1242,0.1424,0.1591,0.1677,0.1703,0.1722,0.1802,0.1942,0.1921,0.1913,0.1944,0.2388,0.2809,0.0,0.0,0.0,0.0,0.0,0.0,0.0,0.0,0.0,0.0,0.0,0.0,0.0,0.0,0.0,0.0,0.0,0.0,0.0,0.0,0.0,0.0,0.0,0.7413,0.0,0.0,0.0,0.0,0.0,0.0,0.0,0.0,0.0,1.0484,1.1521,1.2647,1.3601,1.49,1.6037,1.6746,0.0,0.0,0.0,0.0,0.0,0.0,0.0,1.6289,1.5985,1.5895,1.596,1.6178,1.6356,1.6622,1.7056,0.0,0.0,1.6429,1.6006,1.5728,1.5451,1.5125,1.4799,1.4533,1.4606,1.4835,0.0,0.0,0.0,0.0,0.0,0.0,0.0,0.0,-0.4236,-0.4312,0.0,-0.4024,0.0,0.0,0.0,0.0,0.0,0.0903,0.0,0.0,0.1652,0.1726,0.1808,0.1809,0.1799,0.1794,0.1737,0.1692,0.167,0.1367,0.0,0.0,0.0,0.0,0.0,0.0,0.1355,0.1509,0.171,0.1763,0.171,0.1763,0.1764,0.1705,0.1826,0.1954,0.2169,0.2632,0.3039,0.3305,0.3876,0.0,0.0,0.0,0.0,0.0,0.0,0.0,0.0,0.0,0.0,0.0,0.0,0.0,0.0,0.0,0.0,0.0,0.0,0.0,0.0,0.758,0.0,0.0,0.0,0.0,0.0,0.0,0.0,0.0,0.0,0.0,1.1469,1.2201,1.3121,1.4159,0.0,0.0,0.0,0.0,1.83,1.8348,1.879,1.8838,1.8076,1.7726,1.7556,1.7581,0.0,0.0,1.8287,1.8372,1.8444,1.8698,1.9177,1.931,1.8517,1.8137,1.7817,1.7551,1.7068,1.667,1.6432,1.6311,1.6468,-0.6687,0.0,0.0,0.0,0.0,-0.5061,-0.5052,-0.4941,-0.5266,-0.5351,-0.5257,-0.5251,0.0,0.0,0.0,0.0,0.0,0.0,0.1097,0.1373,0.1694,0.185,0.188,0.1931,0.1904,0.1861,0.1874,0.1817,0.1776,0.1642,0.1427,0.1208,0.0,0.0,0.0,0.0,0.1385,0.1573,0.1718,0.1811,0.177,0.1805,0.1796,0.1764,0.1792,0.1795,0.1768,0.2504,0.3108,0.3577,0.4059,0.0,0.0,0.0,0.0,0.0,0.0,0.0,0.0,0.0,0.0,0.0,0.0,0.0,0.0,0.0,0.0,0.0,0.0,0.0,0.6843,0.7873,0.8486,0.0,0.0,0.0,0.0,0.0,0.0,0.0,0.0,0.0,1.3395,1.3506,1.3821,0.0,0.0,1.6163,1.7254,1.7901,1.8493,1.908,0.0,0.0,0.0,1.8826,1.8746,1.9132,1.9539,1.9902,2.0241,2.011,2.0047,2.012,2.041,2.0555,2.0337,1.9769,1.9273,1.8959,1.8324,1.7859,1.7732,1.7593,1.7605,-0.8055,-0.6969,-0.6614,-0.632,-0.607,-0.6224,-0.6218,-0.6113,-0.6412,-0.649,-0.6431,-0.6294,-0.6,-0.5576,-0.4576,0.0,0.0,0.0,0.0216,0.0708,0.1246,0.1527,0.155,0.1595,0.1564,0.155,0.1653,0.1672,0.1638,0.1701,0.1671,0.1495,0.0,0.0,0.1363,0.139,0.149,0.1692,0.1786,0.1841,0.1831,0.182,0.1798,0.1797,0.1811,0.1746,0.1654,0.2371,0.3,0.3493,0.4033,0.4422,0.0,0.0,0.0,0.0,0.0,0.0,0.0,0.0,0.0,0.0,0.0,0.3584,0.3829,0.0,0.0,0.0,0.5302,0.6038,0.7147,0.798,0.0,0.0,0.0,0.0,0.0,0.0,0.0,1.2515,1.3708,1.4545,1.4883,1.5065,1.5173,1.5185,1.5861,1.6682,1.7556,0.0,1.8995,1.9576,1.9842,1.9975,1.9975,1.9842,1.989,2.0313,2.0702,2.1063,2.122,2.1123,2.0991,2.1051,2.1244,2.1414,2.1414,2.0942,2.0458,2.018,1.9672,1.9229,1.914,1.8855,1.8838,-0.9166,-0.8818,-0.8001,-0.7578,-0.7449,-0.7377,-0.7432,-0.7524,-0.7529,-0.7639,-0.7698,-0.7239,-0.6985,-0.685,-0.5518,0.0,-0.3193,-0.2067,-0.1097,-0.0279,0.0442,0.0864,0.0938,0.1004,0.1003,0.0999,0.1254,0.139,0.1413,0.168,0.1804,0.1795,0.1553,0.1468,0.1518,0.1596,0.1668,0.1811,0.1871,0.1884,0.1881,0.1825,0.1797,0.1795,0.1796,0.1764,0.1729,0.2285,0.2761,0.316,0.3803,0.4298,0.4578,0.0,0.0,0.0,0.0,0.0,0.0,0.0,0.0,0.0,0.0,0.0,0.0,0.0,0.0,0.0,0.565,0.0,0.7456,0.8012,0.0,0.0,0.0,0.9089,0.9923,1.1134,1.2315,1.3364,0.0,0.0,1.5982,0.0,1.6863,1.6139,1.6706,1.7411,1.7931,1.8874,1.9636,1.995,2.0422,2.0773,2.0797,2.0809,2.0906,2.1148,2.1389,2.1522,2.1534,2.1462,2.1474,2.1438,2.1728,2.1873,2.1873,2.1619,2.145,2.1099,2.0809,2.0543,2.0253,1.9965,1.989,-0.9802,-0.9693,-0.9341,-0.8631,-0.7791,-0.7944,-0.7853,-0.7675,-0.803,-0.8141,-0.8097,-0.8158,-0.7827,-0.7155,-0.623,-0.5304,-0.4413,-0.3295,-0.2292,-0.1362,-0.0366,0.0268,0.0533,0.0909,0.1032,0.1032,0.133,0.1458,0.1426,0.171,0.1895,0.1862,0.18,0.1772,0.1725,0.1756,0.1771,0.179,0.1862,0.1874,0.1822,0.1814,0.1797,0.1795,0.1789,0.1759,0.1707,0.2238,0.2652,0.2901,0.3614,0.4177,0.4426,0.4458,0.0,0.0,0.0,0.0,0.0,0.0,0.0,0.0,0.0,0.4558,0.5122,0.0,0.5612,0.0,0.6711,0.7331,0.7973,0.8723,0.0,0.0,0.9887,1.0367,1.0984,1.2126,1.3225,1.4126,1.5402,1.6371,1.6783,1.717,1.7423,1.7436,1.7744,1.8203,1.8753,1.935,1.9953,2.0434,2.0942,2.1389,2.1571,2.1788,2.1909,2.2006,2.1897,2.1813,2.1813,2.1643,2.1474,2.1498,2.1728,2.1813,2.1619,2.1667,2.1619,2.1184,2.0724,2.0386,2.0313,2.0074,2.0059,-1.0068,-1.0003,-0.9824,-0.9333,-0.8702,-0.8798,-0.8744,-0.8601,-0.8878,-0.8944,-0.8876,-0.8911,-0.8567,-0.7989,-0.757,-0.6932,-0.6177,-0.5218,-0.4165,-0.298,-0.1685,-0.0794,-0.0309,0.0309,0.0575,0.0558,0.0889,0.1026,0.1016,0.1337,0.1512,0.149,0.149,0.1471,0.1462,0.1716,0.1862,0.1851,0.191,0.1911,0.1852,0.1838,0.1817,0.1787,0.1802,0.1767,0.1707,0.2077,0.2406,0.2591,0.3313,0.3933,0.4372,0.4508,0.4624,0.0,0.0,0.0,0.0,0.0,0.0,0.0,0.0,0.0,0.0,0.0,0.6528,0.7105,0.7549,0.8025,0.8603,0.9247,0.9722,0.9928,1.0122,1.051,1.1167,1.2422,1.3578,1.4443,1.6,1.7133,1.7406,1.8004,1.8403,1.8439,1.8669,1.8862,1.8947,1.9394,1.9914,2.0446,2.0978,2.1522,2.1994,2.2199,2.2308,2.2296,2.2175,2.2079,2.2079,2.197,2.1861,2.1873,2.1897,2.1861,2.1716,2.1583,2.1438,2.1172,2.073,2.0467,2.0472,2.047,2.0579,-1.0188,-1.0079,-0.9921,-0.9851,-0.9796,-0.9796,-0.9764,-0.9703,-0.9703,-0.9703,-0.9655,-0.9463,-0.9209,-0.8984,-0.89,-0.8542,-0.789,-0.7122,-0.597,-0.4517,-0.3015,-0.1895,-0.1156,-0.0347,0.0,0.0,0.0319,0.05,0.0506,0.0831,0.1017,0.1012,0.1015,0.1015,0.1043,0.1583,0.1888,0.1907,0.1963,0.1962,0.1902,0.1904,0.1874,0.1813,0.1814,0.1771,0.1708,0.1917,0.2106,0.222,0.2945,0.3669,0.4337,0.4696,0.5069,0.0,0.5352,0.0,0.0,0.0,0.0,0.0,0.0,0.0,0.0,0.6965,0.7432,0.8049,0.833,0.8696,0.9247,0.9652,0.994,1.0051,0.9988,1.0239,1.1036,1.2431,1.3649,1.449,1.6413,1.7684,1.7786,1.8661,1.9216,1.908,1.9314,1.937,1.9032,1.9273,1.9697,2.0171,2.0773,2.1462,2.2103,2.2296,2.2308,2.2308,2.2296,2.2308,2.2284,2.2284,2.2272,2.2212,2.2042,2.1885,2.1825,2.1401,2.1123,2.1099,2.0781,2.058,2.0648,2.0791,2.1138,-1.0517,-1.0484,-1.0369,-1.0269,-1.0287,-1.0248,-1.0069,-0.9709,-0.9703,-0.9703,-0.9698,-0.9519,-0.9427,-0.9362,-0.9044,-0.8583,-0.7915,-0.6983,-0.5815,-0.4447,-0.294,-0.1841,-0.1088,-0.0354,0.0,0.0,0.026,0.0449,0.0514,0.0821,0.1011,0.0995,0.1008,0.1007,0.1028,0.0,0.0,0.0,0.1974,0.1962,0.1903,0.1896,0.1867,0.1814,0.1806,0.0,0.171,0.1757,0.1753,0.1761,0.2645,0.0,0.0,0.0,0.0,0.0,0.0,0.0,0.0,0.0,0.0,0.0,0.7912,0.7984,0.7756,0.819,0.8588,0.8737,0.9095,0.9496,0.9819,1.0168,1.0426,1.0535,1.0568,1.0823,1.1562,1.2731,1.3721,1.4452,1.5701,1.6715,1.7195,1.7842,1.8474,1.8986,1.9496,1.976,1.9697,1.9576,1.9636,1.9987,2.0833,2.1619,2.2212,2.2308,2.2308,2.2308,2.2308,2.2308,2.2308,2.2308,2.2212,2.2054,2.1933,2.1752,2.1365,2.116,2.1076,2.1099,2.0912,2.072,2.0556,2.0623,2.0761,-1.0599,0.0,-1.0473,-1.0424,0.0,-1.0424,-1.0248,-1.0058,-0.996,-0.9867,-0.9748,-0.9688,-0.9563,-0.9383,-0.9114,-0.8588,-0.7861,-0.6949,-0.5812,-0.4439,-0.2952,-0.1875,-0.1134,-0.0357,0.0,0.0,0.0133,0.0228,0.0261,0.0418,0.0514,0.0522,0.0525,0.0492,0.0521,0.0841,0.1345,0.2052,0.2023,0.1977,0.1942,0.1916,0.1887,0.1856,0.0,0.0,0.0,0.0,0.0,0.0,0.0,0.0,0.0,0.0,0.0,0.7083,0.709,0.7144,0.7376,0.7706,0.8081,0.856,0.9041,0.9183,0.8811,0.9129,0.9406,0.9591,0.9937,1.0218,1.0441,1.0697,1.0914,1.1029,1.105,1.1255,1.1854,1.2724,1.3476,1.3955,1.482,1.5669,1.6247,1.726,1.8105,1.8741,1.9575,2.0086,2.005,1.9878,1.9878,2.0422,2.116,2.1837,2.2199,2.2308,2.2308,2.2308,2.2308,2.2308,2.2308,2.2308,2.2248,2.2115,2.1858,2.1471,2.1245,2.0923,2.0721,2.072,2.0664,2.0515,2.0255,2.0415,2.0676,-1.0713,-1.062,-1.0487,-1.0449,-1.0449,-1.0449,-1.0438,-1.0405,0.0,0.0,0.0,-0.9807,-0.9628,-0.9362,-0.9168,-0.8623,-0.7766,-0.6934,-0.5818,-0.4429,-0.2956,-0.1904,-0.118,-0.0359,0.0,0.0,0.0,0.0,0.0,0.0,0.0,0.0,0.0,0.0033,0.0099,0.0359,0.1005,0.1948,0.1927,0.1937,0.1985,0.194,0.1911,0.1902,0.1853,0.1812,0.1804,0.1807,0.1776,0.174,0.275,0.3854,0.4928,0.587,0.695,0.8094,0.8142,0.8248,0.8553,0.8798,0.9089,0.9437,0.991,1.0042,0.9754,0.9852,1.0093,1.0371,1.0643,1.0833,1.1016,1.1172,1.1349,1.1491,1.1511,1.1653,1.1995,1.2632,1.3157,1.3382,1.4038,1.4714,1.5286,1.657,1.7737,1.8401,1.9416,2.0321,2.0388,2.0241,2.0337,2.1015,2.1559,2.1994,2.2224,2.2308,2.2308,2.2308,2.2308,2.2308,2.2308,2.2308,2.2308,2.2284,2.1781,2.1415,2.1232,2.0775,2.0309,2.0269,2.0269,2.0185,1.9896,2.0105,2.0358,-1.1042,-1.0668,-1.0693,-1.0688,-1.0647,-1.0647,-1.0628,-1.0555,-1.0302,-1.0128,-0.9953,-0.9845,-0.9753,-0.9638,-0.928,-0.867,-0.7837,-0.6868,-0.5653,0.0,-0.2854,-0.1835,-0.111,-0.0362,0.0,0.0,0.0,0.0,0.0,0.0,0.0,0.0,0.0,0.0134,0.0402,0.0463,0.0893,0.1638,0.1626,0.1722,0.1987,0.1979,0.1951,0.1904,0.1894,0.1863,0.1808,0.1802,0.1801,0.183,0.2921,0.4076,0.5206,0.6506,0.7778,0.8924,0.9218,0.9429,0.9591,0.9731,1.0015,1.046,1.0671,1.061,1.0236,1.0407,1.067,1.0806,1.1009,1.1254,1.1442,1.1545,1.166,1.1941,1.1996,1.215,1.2418,1.2685,1.2992,1.3145,1.348,1.3881,1.4481,1.5621,1.6688,1.7621,1.8947,2.0203,2.079,2.0761,2.0845,2.1341,2.1704,2.1994,2.2296,2.2308,2.2345,2.2308,2.232,2.2332,2.2332,2.2332,2.2332,2.2308,2.1885,2.1487,2.1138,2.0643,2.0274,2.0125,2.0011,1.9816,1.9657,1.9593,1.9574,-1.1112,-1.0737,-1.0695,-1.0695,-1.0695,-1.0695,-1.0666,-1.0593,-1.0484,-1.0329,-1.0221,-1.0121,-0.9998,-0.9748,-0.9525,-0.8925,-0.7982,-0.7134,-0.5915,-0.4453,-0.3021,-0.1946,-0.1169,-0.037,0.0,0.0,0.0,0.0,0.0,0.0,0.0,0.0,0.0,0.0068,0.0204,0.0235,0.0468,0.1009,0.1309,0.1677,0.2034,0.2052,0.203,0.2004,0.1957,0.1966,0.1908,0.1922,0.1894,0.185,0.3076,0.4337,0.5565,0.6915,0.8278,0.9513,0.9768,0.9886,1.0059,1.0283,1.0542,1.0928,1.1023,1.1056,1.1016,1.105,1.1145,1.1266,1.1443,1.1613,1.1837,1.1857,1.1955,1.2084,1.2098,1.2172,1.2277,1.2414,1.2485,1.2575,1.251,1.2684,1.3224,1.4273,1.5301,1.6294,1.822,2.0131,2.1498,2.1607,2.1643,2.1921,2.2272,2.26,2.2695,2.2719,2.2719,2.2719,2.2598,2.2526,2.2514,2.2514,2.2514,2.2488,2.208,2.1601,2.1203,2.055,2.0064,1.9712,1.9684,1.9602,1.9364,1.9129,1.9024,-1.1362,-1.0862,-1.0862,-1.0779,-1.0695,-1.0695,-1.0683,-1.0637,-1.0596,-1.0547,-1.0465,-1.0411,-1.0199,-0.9845,-0.9758,-0.9192,-0.8294,-0.7592,-0.6465,-0.4934,-0.3457,-0.2283,-0.138,-0.0452,0.0,0.0,0.0,0.0,0.0,0.0,0.0,0.0,0.0,0.0,0.0,0.0,0.017,0.0509,0.0994,0.1509,0.1976,0.1988,0.2038,0.2095,0.2041,0.2029,0.2029,0.2039,0.2013,0.1985,0.3213,0.4573,0.5873,0.7291,0.867,0.9961,1.0204,1.0285,1.0512,1.0758,1.1023,1.1281,1.1363,1.1499,1.1674,1.1649,1.1592,1.1708,1.1809,1.1938,1.2111,1.2145,1.2159,1.2186,1.2234,1.2275,1.2254,1.2281,1.2268,1.2162,1.1959,1.204,1.248,1.3224,1.4349,1.5876,1.7806,1.9885,2.1356,2.1806,2.1924,2.2118,2.2596,2.3022,2.3121,2.3097,2.3097,2.3121,2.2913,2.2804,2.278,2.278,2.2828,2.28,2.2338,2.1765,2.1284,2.0519,1.9818,1.9344,1.9254,1.9273,1.9021,1.8844,1.8714,-1.211,-1.1403,-1.132,-1.107,-1.0737,-1.0695,-1.0684,-1.0674,-1.0679,-1.0674,-1.0672,-1.0481,-1.0253,-0.997,-0.985,-0.9478,-0.8919,-0.835,-0.7306,-0.5843,-0.4221,-0.2873,-0.1738,-0.0568,0.0,0.0,0.0,0.0,0.0,0.0,0.0,0.0,0.0,0.0,0.0,0.0,0.0175,0.0489,0.0551,0.0945,0.1584,0.1646,0.1797,0.2098,0.2095,0.2092,0.2098,0.2089,0.2074,0.2111,0.3347,0.4683,0.6043,0.7586,0.9095,1.0518,1.0745,1.0894,1.1111,1.1362,1.1496,1.1592,1.1846,1.2002,1.205,1.2043,1.2036,1.2064,1.207,1.2108,1.2288,1.2271,1.2318,1.2433,1.2556,1.2632,1.2664,1.2793,1.2812,1.2488,1.2406,1.2439,1.2601,1.3118,1.4362,1.621,1.7393,1.8727,1.9876,2.0424,2.0678,2.1144,2.2107,2.2925,2.3014,2.3082,2.3116,2.313,2.307,2.3046,2.3046,2.3058,2.3106,2.3006,2.2623,2.1936,2.1271,2.0584,1.9705,1.9048,1.8854,1.8799,1.8727,1.8705,1.8714,-1.2058,-1.1403,-1.1112,-1.0862,-1.0737,-1.0695,-1.0695,-1.0695,-1.0695,-1.0695,-1.0684,-1.0634,-1.0498,-1.0335,-1.028,-1.0093,-0.9825,-0.9617,-0.8615,-0.6941,-0.5307,-0.3717,-0.2165,-0.0696,0.0,0.0,0.0,0.0,0.0,0.0,0.0,0.0,0.0,0.0,0.0,0.0,0.007,0.0175,0.0209,0.0551,0.1252,0.1508,0.1771,0.2111,0.2178,0.2153,0.2169,0.2374,0.2593,0.2894,0.4205,0.5647,0.705,0.836,0.9663,1.0846,1.1036,1.1179,1.1416,1.1552,1.1694,1.1864,1.203,1.2139,1.2227,1.2234,1.223,1.2298,1.2281,1.2257,1.2393,1.2413,1.2474,1.2571,1.2659,1.2726,1.2861,1.2962,1.2941,1.2826,1.2691,1.2601,1.2595,1.2899,1.3869,1.5468,1.6409,1.731,1.8464,1.8966,1.9224,1.9564,2.0316,2.1402,2.2423,2.304,2.3198,2.3411,2.3381,2.3285,2.3246,2.305,2.2941,2.306,2.2464,2.1767,2.0999,2.0444,1.9723,1.9041,1.8714,1.8714,1.8714,1.8714,1.8714,-1.2071,-1.1373,-1.0904,-1.0695,-1.0695,-1.0695,-1.0695,-1.0695,-1.0695,-1.0695,-1.0695,-1.0695,-1.0688,-1.0648,-1.0615,-1.0533,-1.0394,-1.0424,-0.9437,-0.7668,-0.5979,-0.4238,-0.2473,0.0,0.0,0.0,0.0,0.0,0.0,0.0,0.0,0.0,0.0,0.0,0.0,0.0,0.0,0.0,0.0,0.0351,0.1042,0.1338,0.1707,0.213,0.2208,0.2185,0.2232,0.2695,0.3203,0.3709,0.5106,0.6615,0.8059,0.9101,1.014,1.1129,1.1342,1.1472,1.1667,1.1719,1.1891,1.2132,1.2193,1.2288,1.2372,1.2406,1.2474,1.2635,1.2535,1.2522,1.2542,1.2603,1.2678,1.2779,1.282,1.2901,1.3043,1.3084,1.3111,1.3057,1.2922,1.2773,1.2642,1.2867,1.3524,1.4445,1.5096,1.5797,1.6918,1.7374,1.7534,1.7823,1.8344,1.9724,2.1739,2.251,2.2998,2.3616,2.3607,2.3523,2.3483,2.3167,2.281,2.2863,2.2178,2.1456,2.0647,2.0079,1.9642,1.9,1.8714,1.8714,1.8714,1.8752,1.8799,-1.2365,-1.1421,-1.0904,-1.0701,-1.0695,-1.0695,-1.0695,-1.0695,-1.0695,-1.0695,-1.0695,-1.0695,-1.069,-1.0674,-1.0653,-1.0538,-1.04,-1.0405,-0.9457,-0.7645,-0.5989,-0.4242,-0.2433,0.0,0.0,0.0,0.0,0.0,0.0,0.0,0.0,0.0,0.0,0.0,0.0,0.0,0.0,0.0,0.0,0.0357,0.0998,0.1092,0.1462,0.2106,0.2194,0.2197,0.2283,0.2962,0.3693,0.439,0.5879,0.7379,0.8799,0.9642,1.0515,1.1283,1.164,1.1759,1.182,1.2074,1.225,1.2298,1.24,1.2542,1.2671,1.2613,1.2673,1.2955,1.2815,1.2774,1.2687,1.2787,1.2908,1.2989,1.3105,1.3173,1.32,1.3268,1.3295,1.32,1.3173,1.301,1.2766,1.3033,1.334,1.3773,1.4191,1.4694,1.5237,1.555,1.5713,1.6047,1.6839,1.8268,2.0656,2.1768,2.2545,2.3336,2.3764,2.3752,2.3656,2.3468,2.3055,2.2573,2.1831,2.1022,2.0252,1.9642,1.9235,1.8877,1.8714,1.8714,1.8714,1.8885,1.8941,-1.2196,-1.1178,-1.0926,-1.0809,-1.0846,-1.0728,-1.0695,-1.0695,-1.0695,-1.0695,-1.0695,-1.0695,-1.0695,-1.069,-1.0693,-1.065,-1.0612,-1.0612,-0.96,-0.7836,-0.6113,-0.4336,-0.2531,0.0,0.0,0.0,0.0,0.0,0.0,0.0,0.0,0.0,0.0,0.0,0.0,0.0,0.0,0.0,0.0,0.0253,0.0681,0.0754,0.1144,0.1837,0.2127,0.227,0.2259,0.3036,0.3785,0.4542,0.6058,0.7643,0.91,1.0386,1.1233,1.1588,1.1732,1.1918,1.2101,1.2223,1.2372,1.2556,1.2578,1.2672,1.2801,1.2642,1.2502,1.2521,1.2323,1.2283,1.2574,1.2829,1.3037,1.3125,1.3186,1.3261,1.3302,1.337,1.3376,1.3315,1.3241,1.3119,1.3064,1.3095,1.3139,1.3242,1.3386,1.3645,1.3775,1.3887,1.4055,1.4227,1.4967,1.6424,1.9105,2.0748,2.1941,2.3119,2.38,2.3788,2.372,2.3199,2.2746,2.2182,2.1438,2.0587,1.9764,1.9276,1.8877,1.8837,1.8714,1.8762,1.8714,1.8951,1.9027,-1.1779,-1.1133,-1.0971,-1.0879,-1.0905,-1.0749,-1.0695,-1.0695,-1.0695,-1.0695,-1.0695,-1.0695,-1.0717,-1.0749,-1.0797,-1.0609,-1.0372,-1.0315,-0.9303,-0.7477,-0.5734,-0.4021,-0.2361,-0.0732,0.0,0.0,0.0,0.0,0.0,0.0,0.0,0.0,0.0,0.0,0.0,0.0,0.0,0.0,0.0,0.0182,0.0469,0.0584,0.0988,0.1634,0.2001,0.2169,0.2281,0.3072,0.3842,0.4699,0.6166,0.7847,0.9672,1.1027,1.1803,1.1898,1.1952,1.206,1.2264,1.2379,1.2522,1.2712,1.2779,1.2828,1.2809,1.2546,1.2357,1.2212,1.2071,1.2051,1.2367,1.2711,1.2983,1.3186,1.3288,1.3288,1.3383,1.3397,1.3397,1.3383,1.3315,1.3241,1.3214,1.3125,1.3057,1.3016,1.3003,1.3003,1.3003,1.305,1.3098,1.3274,1.4126,1.5746,1.7841,1.9567,2.1521,2.2884,2.3596,2.3664,2.3463,2.2901,2.2274,2.1709,2.0982,2.014,1.9448,1.8959,1.8764,1.8683,1.8809,1.8875,1.8941,1.9032,1.9094,-1.1118,-1.1107,-1.0934,-1.0949,-1.0896,-1.0782,-1.0712,-1.0722,-1.0712,-1.0717,-1.0717,-1.0701,-1.0755,-1.0889,-1.0895,-1.0497,-0.9768,-0.9427,-0.8336,-0.6553,-0.4796,-0.329,-0.1877,0.0,0.0,0.0,0.0,0.0,0.0,0.0,0.0,0.0,0.0,0.0,0.0,0.0,0.0,0.0,0.0,0.0,0.0512,0.0554,0.0891,0.1596,0.1724,0.1847,0.2156,0.2995,0.3782,0.4566,0.6075,0.8197,1.0214,1.1424,1.201,1.1999,1.2158,1.2233,1.2255,1.2439,1.2534,1.2595,1.2801,1.2735,1.2535,1.2439,1.2279,1.2084,1.1967,1.2027,1.211,1.2388,1.2797,1.3272,1.3348,1.341,1.3417,1.341,1.341,1.3437,1.3431,1.3342,1.3234,1.3214,1.318,1.3125,1.3071,1.3064,1.3084,1.3159,1.3166,1.337,1.4008,1.5386,1.6942,1.8533,2.0723,2.2578,2.3091,2.335,2.3039,2.2544,2.168,2.1022,2.012,1.9316,1.9122,1.8683,1.8598,1.8585,1.8761,1.8749,1.8778,1.8815,1.9094,-1.139,-1.1374,-1.1215,-1.1161,-1.1145,-1.1036,-1.0987,-1.0976,-1.0858,-1.082,-1.0851,-1.0733,-1.0766,-1.0858,-1.0879,-1.0262,-0.9185,-0.8174,-0.7003,-0.5665,-0.3942,-0.2545,-0.1457,-0.0458,0.0,0.0,0.0,0.0,0.0,0.0,0.0,0.0,0.0,0.0,0.0,0.0,0.0,0.0,0.0,0.0,0.0185,0.0,0.045,0.0894,0.0978,0.1122,0.1501,0.256,0.3345,0.3816,0.5178,0.7036,0.92,1.0597,1.1208,1.134,1.1384,1.151,1.168,1.1775,1.1913,1.2058,1.2146,1.2194,1.2189,1.1925,1.1783,1.1629,1.1436,1.1368,1.1704,1.1873,1.2263,1.2829,1.3283,1.3511,1.3524,1.3592,1.3695,1.366,1.366,1.3632,1.362,1.3559,1.3451,1.3403,1.3322,1.3268,1.3275,1.3295,1.3329,1.3425,1.4213,1.4926,1.63,1.7381,1.8825,2.0631,2.1506,2.2196,2.2041,2.1589,2.0823,2.0069,1.9202,1.8793,1.8588,1.8452,1.8302,1.8151,1.8094,1.8118,1.8226,1.8345,1.8413,-1.1766,-1.1705,-1.1456,-1.127,-1.1303,-1.115,-1.1107,-1.1085,-1.0971,-1.0879,-1.0852,-1.0749,-1.0793,-1.096,-1.0987,-1.0176,-0.8769,-0.7211,-0.5741,-0.4446,-0.2978,-0.1773,-0.1052,-0.0335,0.0,0.0,0.0,0.0,0.0,0.0,0.0,0.0,0.0,0.0,0.0,0.0,0.0,0.0,0.0,0.0,0.0,0.0,0.019,0.0529,0.0611,0.0803,0.1216,0.1988,0.2476,0.2973,0.4555,0.6659,0.8574,1.0145,1.1051,1.1124,1.1197,1.1294,1.1445,1.1592,1.1591,1.1796,1.1911,1.1926,1.1885,1.1633,1.1505,1.1269,1.1113,1.1072,1.1371,1.1584,1.1883,1.2318,1.2962,1.3443,1.3617,1.3741,1.3788,1.3781,1.3781,1.3795,1.3768,1.3741,1.3709,1.3688,1.3627,1.3566,1.3553,1.3519,1.3498,1.3575,1.4048,1.4799,1.5674,1.6434,1.7101,1.8352,1.9577,2.0254,2.0548,1.9876,1.9113,1.8551,1.777,1.7954,1.7838,1.7811,1.7713,1.7556,1.7238,1.6942,1.6818,1.6992,1.7045,-1.221,-1.2104,-1.1549,-1.1291,-1.1324,-1.1183,-1.115,-1.1118,-1.1009,-1.0965,-1.089,-1.0804,-1.0858,-1.1031,-1.0896,-0.9957,-0.8377,-0.6466,-0.467,-0.3111,-0.1815,-0.0979,-0.059,-0.0209,0.0,0.0,0.0,0.0,0.0,0.0,0.0,0.0,0.0,0.0,0.0,0.0,0.0,0.0,0.0,0.0,0.0,0.0,0.0154,0.05,0.0545,0.0705,0.1019,0.1217,0.1323,0.1719,0.4485,0.6676,0.8159,1.0134,1.123,1.1221,1.1432,1.1434,1.1535,1.152,1.1616,1.164,1.1819,1.1986,1.1611,1.1601,1.1481,1.1186,1.1139,1.1155,1.1241,1.1457,1.179,1.1956,1.2697,1.3294,1.3765,1.3842,1.3876,1.3862,1.3829,1.3829,1.3862,1.3842,1.3858,1.3851,1.3795,1.3781,1.3734,1.3666,1.3612,1.3774,1.3992,1.4351,1.5075,1.5167,1.5726,1.6109,1.7193,1.7776,1.8449,1.7922,1.7533,1.6977,1.6765,1.7002,1.7036,1.6935,1.6749,1.6432,1.6008,1.5485,1.5452,1.5724,1.5813,-1.221,-1.216,-1.1644,-1.145,-1.145,-1.1417,-1.1401,-1.139,-1.1226,-1.1161,-1.115,-1.1058,-1.0859,-1.0693,-1.0267,-0.9198,-0.7406,-0.5536,-0.3863,-0.2337,-0.0958,-0.0343,-0.0211,0.0,0.0,0.0,0.0,0.0,0.0,0.0,0.0,0.0,0.0,0.0,0.0,0.0,0.0,0.0,0.0,0.0,0.0,0.0,0.0,0.0116,0.0,0.0,0.0,0.0321,0.0997,0.2224,0.441,0.6256,0.7417,0.9402,1.0657,1.073,1.0735,1.0797,1.087,1.0961,1.1011,1.1137,1.1312,1.1215,1.1261,1.1257,1.123,1.1118,1.1215,1.127,1.127,1.1357,1.1749,1.2401,1.2922,1.3474,1.3985,1.4177,1.4177,1.4183,1.4163,1.4156,1.4129,1.4068,1.4014,1.4007,1.4,1.398,1.3883,1.3912,1.3865,1.3777,1.3897,1.4002,1.4191,1.4196,1.4217,1.42,1.4629,1.4908,1.5557,1.5736,1.5596,1.5431,1.572,1.5973,1.5918,1.5821,1.5557,1.5283,1.475,1.4267,1.446,1.4669,1.4646,-1.2476,-1.2432,-1.1766,-1.1499,-1.1499,-1.1499,-1.1499,-1.1477,-1.1374,-1.127,-1.1248,-1.115,-1.0776,-1.0214,-0.9513,-0.824,-0.6487,-0.457,-0.3083,-0.1866,-0.0613,0.0,0.0,0.0,0.0,0.0,0.0,0.0,0.0,0.0,0.0,0.0,0.0,0.0,0.0,0.0,0.0,0.0,0.0,0.0,0.0,0.0,0.0,0.0,0.0,0.0,0.0,0.0,0.0,0.2158,0.4099,0.5863,0.6905,0.9121,1.0343,1.05,1.0547,1.0686,1.0699,1.0795,1.0851,1.0976,1.1031,1.1096,1.1215,1.1215,1.1297,1.127,1.1363,1.1384,1.1395,1.139,1.183,1.2583,1.3023,1.35,1.4204,1.4285,1.4299,1.4299,1.4299,1.4299,1.4299,1.4217,1.4183,1.4163,1.417,1.4122,1.4075,1.4082,1.4048,1.3953,1.3912,1.4066,1.4135,1.4153,1.373,1.354,1.3191,1.3224,1.3456,1.3938,1.3861,1.405,1.4534,1.483,1.4722,1.4592,1.4416,1.4025,1.3456,1.3154,1.3268,1.3604,1.3566,-1.292,-1.2831,-1.1899,-1.1499,-1.1499,-1.1499,-1.1499,-1.1477,-1.139,-1.1258,-1.1149,-1.1058,-1.0354,-0.9532,-0.8401,-0.7098,-0.5375,-0.354,-0.2284,-0.1201,0.0,0.0,0.0,0.0,0.0,0.0,0.0,0.0,0.0,0.0,0.0,0.0,0.0,0.0,0.0,0.0,0.0,0.0,0.0,0.0,0.0,0.0,0.0,0.0,0.0,0.0,0.0,0.0,0.0449,0.1266,0.3819,0.5512,0.6746,0.9152,1.0445,1.0623,1.077,1.0884,1.0938,1.1003,1.109,1.1128,1.1204,1.1324,1.1346,1.1412,1.1461,1.1455,1.1499,1.1494,1.1521,1.1526,1.2,1.2764,1.2975,1.3413,1.4073,1.4333,1.4319,1.4326,1.4333,1.4346,1.4346,1.4346,1.4353,1.4401,1.4387,1.4346,1.4285,1.4245,1.4197,1.4153,1.4146,1.4173,1.4197,1.419,1.3649,1.3164,1.2606,1.2448,1.2431,1.2577,1.2376,1.2567,1.3424,1.3637,1.3406,1.3262,1.3293,1.2958,1.2532,1.2084,1.1809,1.2363,1.2528,-1.292,-1.2831,-1.1899,-1.1499,-1.1499,-1.1499,-1.1499,-1.1499,-1.1472,-1.1223,-1.083,-1.0411,-0.9481,-0.8211,-0.6866,-0.5454,-0.399,-0.242,-0.1207,-0.0354,-0.0133,0.0,0.0,0.0,0.0,0.0,0.0,0.0,0.0,0.0,0.0,0.0,0.0,0.0,0.0,0.0,0.0,0.0,0.0,0.0,0.0,0.0,0.0,0.0,0.0,0.0,0.0,0.0,0.0,0.1663,0.3738,0.5721,0.6909,0.9163,1.0578,1.0802,1.0878,1.0928,1.1047,1.1101,1.1145,1.1275,1.1308,1.1357,1.1455,1.1477,1.1499,1.1499,1.1504,1.1537,1.1574,1.1683,1.2204,1.2878,1.3208,1.3577,1.4346,1.4491,1.4475,1.4489,1.4563,1.4593,1.4586,1.4611,1.4572,1.4593,1.4566,1.4584,1.4509,1.4428,1.4373,1.4306,1.4333,1.436,1.4291,1.4211,1.3656,1.3104,1.2485,1.1978,1.1956,1.1877,1.1872,1.2084,1.2509,1.2532,1.2508,1.2696,1.2886,1.224,1.1793,1.1741,1.1726,1.1797,1.1868,-1.292,-1.2787,-1.1899,-1.1499,-1.1499,-1.1499,-1.1499,-1.1499,-1.1499,-1.1054,-1.0337,-0.9669,-0.8417,-0.6764,-0.5152,-0.3719,-0.2557,-0.1346,-0.0491,0.0,0.0,0.0,0.0,0.0,0.0,0.0,0.0,0.0,0.0,0.0,0.0,0.0,0.0,0.0,0.0,0.0,0.0,0.0,0.0,0.0,0.0,0.0,0.0,0.0,0.0,0.0083,0.0,0.0,0.0,0.2488,0.4435,0.5995,0.7083,0.9305,1.0752,1.0976,1.1063,1.1101,1.1172,1.1281,1.1341,1.1395,1.1401,1.1434,1.1483,1.1499,1.1499,1.1499,1.151,1.1504,1.1583,1.1697,1.226,1.2998,1.3324,1.369,1.4453,1.462,1.4572,1.4631,1.4679,1.4667,1.4687,1.4735,1.4708,1.4674,1.466,1.4633,1.4626,1.4552,1.4539,1.4512,1.4584,1.4552,1.4462,1.4191,1.3681,1.3189,1.2634,1.2176,1.1925,1.1785,1.169,1.1973,1.222,1.2085,1.2125,1.2305,1.2378,1.204,1.1823,1.177,1.1841,1.1938,1.2004,-1.2981,-1.2892,-1.1911,-1.1554,-1.1554,-1.1565,-1.1481,-1.143,-1.1353,-1.056,-0.9598,-0.8599,-0.7029,-0.5331,-0.354,-0.2152,-0.1212,0.0,0.0,0.0,0.0,0.0,0.0,0.0,0.0,0.0,0.0,0.0,0.0,0.0,0.0,0.0,0.0,0.0,0.0,0.0,0.0,0.0,0.0,0.0,0.0,0.0,0.0,0.0,0.0,0.0,0.0635,0.106,0.187,0.3596,0.5485,0.6646,0.773,0.944,1.1118,1.1123,1.1199,1.1297,1.1346,1.1423,1.1483,1.1499,1.1499,1.151,1.1526,1.1548,1.1565,1.1586,1.1614,1.1668,1.1643,1.1835,1.2345,1.299,1.33,1.3753,1.4395,1.4716,1.4769,1.478,1.4841,1.4889,1.4875,1.4836,1.4789,1.4755,1.4755,1.4748,1.4748,1.4755,1.4755,1.4821,1.4848,1.4801,1.4689,1.4577,1.4016,1.3364,1.2831,1.2415,1.2006,1.193,1.1857,1.1786,1.1867,1.1837,1.1832,1.1976,1.1987,1.1835,1.1868,1.1889,1.1976,1.2091,1.2118,-1.3211,-1.316,-1.2164,-1.1759,-1.1759,-1.1759,-1.1515,-1.1099,-1.0635,-0.9613,-0.8246,-0.679,-0.5375,-0.3855,-0.2378,-0.1167,-0.0404,0.0,0.0,0.0,0.0,0.0,0.0,0.0,0.0,0.0,0.0,0.0,0.0,0.0,0.0,0.0,0.0,0.0,0.0,0.0,0.0,0.0,0.0,0.0,0.0,0.0,0.0,0.0,0.0,0.0,0.0948,0.1899,0.3025,0.4245,0.6758,0.8181,0.9009,1.0327,1.1085,1.1232,1.1313,1.1368,1.1439,1.1477,1.1499,1.1499,1.151,1.152,1.1569,1.1562,1.1639,1.1726,1.1808,1.1895,1.1928,1.2004,1.2372,1.2899,1.335,1.3818,1.4379,1.4739,1.4978,1.495,1.5018,1.5072,1.5031,1.5011,1.5004,1.4991,1.4997,1.5004,1.5011,1.5031,1.5059,1.5086,1.512,1.5038,1.4957,1.4837,1.4441,1.3709,1.3142,1.2714,1.2399,1.219,1.208,1.196,1.1884,1.1862,1.1851,1.1857,1.1868,1.1911,1.1949,1.1993,1.2053,1.2118,1.2192,-1.3318,-1.3181,-1.2226,-1.1819,-1.1819,-1.1819,-1.136,-1.0601,-0.9817,-0.8503,-0.6757,-0.5041,-0.3585,-0.2378,-0.1257,-0.0404,0.0,0.0,0.0,0.0,0.0,0.0,0.0,0.0,0.0,0.0,0.0,0.0,0.0,0.0,0.0,0.0,0.0,0.0,0.0,0.0,0.0,0.0,0.0,0.0,0.0,0.0,0.0,0.0,0.0,0.0,0.1217,0.2431,0.3916,0.551,0.7644,0.9097,1.0048,1.0714,1.1352,1.1401,1.1406,1.1428,1.1488,1.1499,1.1499,1.151,1.1509,1.1569,1.1589,1.1643,1.1719,1.1784,1.1917,1.1987,1.1982,1.2148,1.2439,1.2786,1.3163,1.3629,1.4194,1.4617,1.4852,1.5032,1.5106,1.514,1.5153,1.5147,1.5167,1.5181,1.5181,1.5181,1.5181,1.5181,1.5181,1.5187,1.5187,1.5093,1.4959,1.4732,1.4434,1.375,1.3244,1.2859,1.2535,1.2245,1.214,1.2069,1.2009,1.196,1.2004,1.2036,1.2015,1.1987,1.2042,1.2091,1.2148,1.2176,1.2203,-1.3306,-1.3128,-1.2022,-1.152,-1.1428,-1.1284,-1.0642,-0.9686,-0.864,-0.7147,-0.5303,-0.3492,-0.2168,-0.1265,0.0,0.0,0.0,0.0,0.0,0.0,0.0,0.0,0.0,0.0,0.0,0.0,0.0,0.0,0.0,0.0,0.0,0.0,0.0,0.0,0.0,0.0,0.0,0.0,0.0,0.0,0.0,0.0,0.0,0.0,0.0,0.0438,0.136,0.3155,0.4788,0.6573,0.8497,1.0117,1.0772,1.1298,1.1493,1.1487,1.1515,1.151,1.1537,1.1548,1.157,1.1614,1.1623,1.1627,1.1748,1.1841,1.1906,1.1911,1.1966,1.2036,1.2058,1.2159,1.235,1.2644,1.288,1.3211,1.3911,1.4429,1.4758,1.4926,1.5134,1.5181,1.5181,1.5181,1.5181,1.5181,1.5181,1.5181,1.5181,1.5181,1.5187,1.5201,1.5201,1.5087,1.4839,1.4546,1.4107,1.3395,1.3011,1.2696,1.2436,1.2214,1.2198,1.2145,1.2129,1.2143,1.2203,1.2225,1.2118,1.2102,1.2198,1.2214,1.2198,1.2192,1.2214,-1.3351,-1.2834,-1.1422,-1.0574,-1.0097,-0.9612,-0.8861,-0.7811,-0.6749,-0.547,-0.3916,-0.236,-0.1288,-0.0737,-0.0276,0.0,0.0,0.0,0.0,0.0,0.0,0.0,0.0,0.0,0.0,0.0,0.0,0.0,0.0,0.0,0.0,0.0,0.0,0.0,0.0,0.0,0.0,0.0,0.0,0.0,0.0,0.0,0.0,0.0,0.0,0.0446,0.1647,0.3689,0.5789,0.7136,0.9731,1.1122,1.1426,1.1513,1.1601,1.1585,1.1536,1.1543,1.159,1.1618,1.165,1.171,1.1781,1.1851,1.1928,1.202,1.2091,1.2129,1.214,1.2181,1.2176,1.2203,1.2267,1.2408,1.2644,1.3116,1.3729,1.4146,1.4476,1.4899,1.5087,1.5087,1.5087,1.5134,1.5181,1.5181,1.5181,1.5181,1.5134,1.5087,1.504,1.5006,1.4845,1.469,1.4528,1.4228,1.3852,1.3152,1.2823,1.2571,1.2425,1.2265,1.2269,1.221,1.2263,1.2269,1.2248,1.2243,1.2241,1.2219,1.2219,1.2219,1.2219,1.2219,1.2225,-1.2727,-1.235,-1.055,-0.9324,-0.8518,-0.7751,-0.685,-0.5797,-0.476,-0.3613,-0.2437,-0.1209,-0.0463,0.0,-0.0046,0.0,0.0,0.0,0.0,0.0,0.0,0.0,0.0,0.0,0.0,0.0,0.0,0.0,0.0,0.0,0.0,0.0,0.0,0.0,0.0,0.0,0.0,0.0,0.0,0.0,0.0,0.0,0.0,0.0,0.0,0.0,0.1796,0.412,0.6088,0.752,0.9932,1.1455,1.1526,1.1558,1.1589,1.1589,1.1661,1.1688,1.1686,1.1692,1.1735,1.1824,1.1884,1.1966,1.2069,1.2181,1.2219,1.2214,1.2219,1.2219,1.2219,1.2219,1.2219,1.2314,1.2467,1.2992,1.3464,1.3776,1.4153,1.4617,1.4912,1.4851,1.4824,1.4959,1.4939,1.4852,1.4993,1.514,1.4999,1.4852,1.4758,1.4664,1.4461,1.4203,1.4017,1.3786,1.362,1.3089,1.2741,1.2543,1.2464,1.239,1.2346,1.2352,1.2401,1.2395,1.2357,1.2286,1.2227,1.2247,1.2219,1.2252,1.2274,1.2236,1.2236,-1.1495,-1.0881,-0.9074,-0.7799,-0.6758,-0.5755,-0.4852,-0.3949,-0.3074,-0.2168,-0.1271,0.0,0.0,0.0,0.0,0.0,0.0,0.0,0.0,0.0,0.0,0.0,0.0,0.0,0.0,0.0,0.0,0.0,0.0,0.0,0.0,0.0,0.0,0.0,0.0,0.0,0.0,0.0,0.0,0.0,0.0,0.0,0.0,0.0,0.0,0.0453,0.1673,0.4203,0.6188,0.7543,1.0036,1.1585,1.1641,1.1688,1.1754,1.1781,1.1841,1.1906,1.1906,1.1895,1.1884,1.1922,1.1966,1.2069,1.2187,1.2219,1.2219,1.2219,1.2219,1.2219,1.2219,1.2219,1.2219,1.2236,1.23,1.2873,1.3364,1.359,1.387,1.4234,1.4431,1.4257,1.4358,1.4618,1.4661,1.4536,1.4664,1.4972,1.4851,1.4635,1.4506,1.439,1.4257,1.3942,1.3602,1.3417,1.321,1.3037,1.2731,1.2536,1.2509,1.245,1.2471,1.2509,1.2553,1.2509,1.2444,1.2346,1.2265,1.2308,1.2335,1.2303,1.2292,1.2254,1.2301,-0.9595,-0.7846,-0.6755,-0.5713,-0.4716,-0.3716,-0.3002,-0.2431,-0.1857,-0.1332,-0.0808,0.0,0.0,0.0,0.0,0.0,0.0,0.0,0.0,0.0,0.0,0.0,0.0,0.0,0.0,0.0,0.0,0.0,0.0,0.0,0.0,0.0,0.0,0.0,0.0,0.0,0.0,0.0,0.0,0.0,0.0,0.0,0.0,0.0,0.0,0.0508,0.157,0.4414,0.6516,0.7569,1.0223,1.1697,1.1748,1.1846,1.1895,1.1928,1.202,1.2074,1.2074,1.2031,1.2042,1.2148,1.2187,1.2187,1.2214,1.2225,1.2225,1.2247,1.2274,1.2221,1.2252,1.2225,1.2279,1.2259,1.2356,1.2713,1.313,1.3284,1.3608,1.394,1.397,1.3819,1.3668,1.3932,1.4177,1.4054,1.432,1.4577,1.4594,1.4428,1.4237,1.4124,1.4042,1.3747,1.3255,1.3071,1.3034,1.2938,1.2727,1.2607,1.2574,1.2574,1.2618,1.2607,1.2634,1.2585,1.2553,1.2526,1.2509,1.2461,1.2444,1.2428,1.2417,1.2411,1.2428,-0.7609,-0.5615,-0.3953,-0.305,-0.2622,-0.1621,-0.1097,-0.0859,-0.0668,-0.0477,0.0,0.0,0.0,0.0,0.0,0.0,0.0,0.0,0.0,0.0,0.0,0.0,0.0,0.0,0.0,0.0,0.0,0.0,0.0,0.0,0.0,0.0,0.0,0.0,0.0,0.0,0.0,0.0,0.0,0.0,0.0,0.0,0.0138,0.046,0.0461,0.1388,0.296,0.5129,0.6832,0.8496,1.0584,1.1468,1.1857,1.1949,1.1993,1.2009,1.2159,1.2209,1.2219,1.217,1.2176,1.2192,1.2219,1.223,1.2252,1.2285,1.2323,1.235,1.2346,1.2362,1.239,1.2395,1.2417,1.2411,1.2519,1.2739,1.2923,1.3126,1.3349,1.3708,1.3666,1.3516,1.3328,1.3146,1.3384,1.362,1.3891,1.4178,1.4199,1.4103,1.3915,1.3655,1.3551,1.3409,1.3017,1.2927,1.2907,1.2842,1.2721,1.271,1.2694,1.2754,1.2781,1.2754,1.2732,1.2727,1.2732,1.2748,1.2716,1.258,1.252,1.2472,1.2526,1.2558,1.2591,-0.547,-0.3761,-0.1859,-0.1144,-0.1144,-0.0382,0.0,0.0,0.0,0.0,0.0,0.0,0.0,0.0,0.0,0.0,0.0,0.0,0.0,0.0,0.0,0.0,0.0,0.0,0.0,0.0,0.0,0.0,0.0,0.0,0.0,0.0,0.0,0.0,0.0,0.0,0.0,0.0,0.0,0.0,0.0,0.0,0.0,0.0838,0.1214,0.2338,0.4114,0.6168,0.7935,0.9334,1.0774,1.1748,1.1955,1.1987,1.2031,1.2069,1.2159,1.2219,1.2225,1.2219,1.2236,1.2279,1.2285,1.2254,1.2292,1.2357,1.2401,1.2411,1.2482,1.2493,1.2493,1.2509,1.2498,1.2482,1.2553,1.2732,1.2901,1.3038,1.3251,1.3464,1.3338,1.3202,1.3158,1.3022,1.3171,1.3472,1.3952,1.4049,1.3848,1.3743,1.3522,1.3254,1.2993,1.2841,1.2732,1.2793,1.2864,1.2886,1.2814,1.2835,1.2852,1.2901,1.2901,1.2841,1.2835,1.2879,1.2868,1.2835,1.277,1.2639,1.2661,1.2656,1.2683,1.2721,1.2738,-0.3329,-0.2191,-0.0716,-0.0382,-0.0715,-0.0239,0.0,0.0,0.0,0.0,0.0,0.0,0.0,0.0,0.0,0.0,0.0,0.0,0.0,0.0,0.0,0.0,0.0,0.0,0.0,0.0,0.0,0.0,0.0,0.0,0.0,0.0,0.0,0.0,0.0,0.0,0.0,0.0,0.0,0.0,0.0,0.0,0.0,0.1411,0.2313,0.3501,0.5388,0.7417,0.9065,1.0108,1.1292,1.2055,1.2165,1.217,1.2192,1.2203,1.2172,1.2188,1.2183,1.223,1.2296,1.2367,1.2372,1.2379,1.2477,1.2526,1.2531,1.2531,1.2574,1.252,1.2509,1.2558,1.258,1.2607,1.2678,1.271,1.288,1.2985,1.3211,1.3284,1.3112,1.2929,1.2923,1.2946,1.3072,1.336,1.3901,1.3918,1.3592,1.3418,1.3243,1.3084,1.2804,1.2803,1.2792,1.2748,1.277,1.2852,1.2928,1.2966,1.2971,1.2982,1.296,1.2917,1.295,1.3004,1.2955,1.2901,1.2884,1.2884,1.2841,1.2835,1.2857,1.2873,1.2879,-0.2238,-0.1239,-0.0382,-0.0095,-0.0239,0.0,0.0,0.0,0.0,0.0,0.0,0.0,0.0,0.0,0.0,0.0,0.0,0.0,0.0,0.0,0.0,0.0,0.0,0.0,0.0,0.0,0.0,0.0,0.0,0.0,0.0,0.0,0.0,0.0,0.0,0.0,0.0,0.0,0.0,0.0,0.0472,0.0615,0.1233,0.2655,0.3661,0.509,0.6853,0.8893,1.003,1.0791,1.1883,1.2172,1.2219,1.2219,1.2225,1.2247,1.2232,1.2335,1.2384,1.2417,1.2384,1.2406,1.2439,1.2493,1.2488,1.2613,1.2634,1.2667,1.271,1.2727,1.2776,1.2776,1.2786,1.2786,1.2825,1.2825,1.2902,1.2989,1.3099,1.3172,1.3047,1.302,1.3009,1.2917,1.3002,1.3029,1.3475,1.3487,1.3206,1.3123,1.299,1.299,1.2885,1.2884,1.2901,1.2879,1.2928,1.3037,1.3102,1.3094,1.3078,1.308,1.3091,1.3086,1.3107,1.3067,1.308,1.3058,1.3107,1.3107,1.302,1.295,1.2933,1.2966,1.3009,-0.1144,-0.0524,-0.0143,0.0,0.0,0.0,0.0,0.0,0.0,0.0,0.0,0.0,0.0,0.0,0.0,0.0,0.0,0.0,0.0,0.0,0.0,0.0,0.0,0.0,0.0,0.0,0.0,0.0,0.0,0.0,0.0,0.0,0.0,0.0,0.0,0.0,0.0,0.0,0.0,0.0238,0.0762,0.1428,0.238,0.3949,0.5425,0.7087,0.8703,0.9991,1.099,1.161,1.1941,1.2225,1.2225,1.2225,1.2241,1.2296,1.2352,1.2449,1.245,1.2574,1.2542,1.2509,1.2564,1.2613,1.2651,1.2738,1.2759,1.2797,1.2852,1.2873,1.289,1.2895,1.2901,1.2895,1.2901,1.2901,1.2966,1.3053,1.3107,1.314,1.3156,1.314,1.3091,1.2982,1.2913,1.2918,1.2934,1.289,1.2895,1.2901,1.2912,1.2917,1.2922,1.295,1.2988,1.3015,1.3091,1.3216,1.3203,1.3219,1.3176,1.3172,1.3216,1.3243,1.3165,1.3148,1.3165,1.3227,1.3176,1.3194,1.3129,1.3064,1.3015,1.3058,1.3129,0.0,0.0,0.0,0.0,0.0,0.0,0.0,0.0,0.0,0.0,0.0,0.0,0.0,0.0,0.0,0.0,0.0,0.0,0.0,0.0,0.0,0.0,0.0,0.0,0.0,0.0,0.0,0.0,0.0,0.0,0.0,0.0,0.0,0.0,0.0,0.0,0.0,0.0,0.0,0.0721,0.1489,0.2489,0.3784,0.5411,0.7323,0.8802,1.0188,1.1187,1.1847,1.2174,1.221,1.2252,1.2241,1.2188,1.2307,1.2362,1.2487,1.2488,1.2547,1.2683,1.27,1.2678,1.27,1.2776,1.2825,1.2841,1.2841,1.2852,1.2879,1.2895,1.2906,1.2917,1.2928,1.2933,1.2944,1.2988,1.3058,1.3124,1.3172,1.3205,1.3221,1.3194,1.3113,1.3009,1.2912,1.289,1.2895,1.2922,1.2933,1.2989,1.2955,1.2988,1.2993,1.3004,1.3053,1.3145,1.3232,1.3357,1.3341,1.3289,1.3298,1.3292,1.3341,1.3352,1.3292,1.3235,1.3346,1.3284,1.3246,1.3213,1.3276,1.3148,1.3156,1.32,1.3265,0.0,0.0,0.0,0.0,0.0,0.0,0.0,0.0,0.0,0.0,0.0,0.0,0.0,0.0,0.0,0.0,0.0,0.0,0.0,0.0,0.0,0.0,0.0,0.0,0.0,0.0,0.0,0.0,0.0,0.0,0.0,0.0,0.0,0.0,0.0,0.0,0.0,0.0535,0.0632,0.1602,0.2767,0.3977,0.5478,0.7362,0.8907,1.0314,1.123,1.1871,1.2358,1.2417,1.2422,1.2428,1.2433,1.2433,1.2482,1.2585,1.2651,1.2689,1.277,1.2814,1.2825,1.2819,1.2825,1.2841,1.2879,1.2895,1.2895,1.289,1.2895,1.2906,1.296,1.2988,1.3026,1.3058,1.3075,1.3113,1.3183,1.3243,1.3292,1.3325,1.3284,1.3259,1.3172,1.3037,1.295,1.2912,1.2917,1.2966,1.2982,1.3049,1.3026,1.3058,1.3091,1.3113,1.3221,1.3325,1.3401,1.3471,1.345,1.345,1.3466,1.3471,1.3488,1.3471,1.3433,1.3455,1.3515,1.3477,1.3423,1.3477,1.3488,1.3385,1.3268,1.33,1.3322,0.0,0.0,0.0,0.0,0.0,0.0,0.0,0.0,0.0,0.0,0.0,0.0,0.0,0.0,0.0,0.0,0.0,0.0,0.0,0.0,0.0,0.0,0.0,0.0,0.0,0.0,0.0,0.0,0.0,0.0,0.0,0.0,0.0,0.0,0.0,0.0,0.0,0.1039,0.1725,0.28,0.4122,0.5788,0.7739,0.907,1.0392,1.1368,1.1952,1.2401,1.2493,1.2536,1.2536,1.2488,1.2499,1.252,1.2607,1.27,1.2759,1.2797,1.2852,1.2873,1.2884,1.289,1.289,1.2917,1.2922,1.2933,1.2906,1.289,1.2901,1.2922,1.3004,1.308,1.3145,1.3165,1.3181,1.3203,1.3262,1.3322,1.3417,1.3455,1.3423,1.3346,1.3238,1.3096,1.3031,1.3053,1.3091,1.314,1.3124,1.3142,1.3124,1.3105,1.3148,1.3243,1.3357,1.3444,1.3482,1.3526,1.3548,1.3558,1.3607,1.3591,1.3558,1.3569,1.358,1.3591,1.358,1.3591,1.3564,1.3607,1.3618,1.3558,1.3493,1.3499,1.351,0.0,0.0,0.0,0.0,0.0,0.0,0.0,0.0,0.0,0.0,0.0,0.0,0.0,0.0,0.0,0.0,0.0,0.0,0.0,0.0,0.0,0.0,0.0,0.0,0.0,0.0,0.0,0.0,0.0,0.0,0.0,0.0,0.0,0.0,0.0,0.0,0.0,0.1454,0.2832,0.4242,0.5617,0.7668,0.9864,1.0566,1.1554,1.2488,1.2482,1.2526,1.2564,1.2569,1.2574,1.2591,1.2574,1.2667,1.2716,1.2748,1.2819,1.2857,1.2879,1.289,1.289,1.289,1.289,1.295,1.2971,1.3027,1.3005,1.2993,1.302,1.3075,1.3151,1.3194,1.3254,1.3273,1.3316,1.3343,1.3381,1.3477,1.3493,1.351,1.3455,1.339,1.3346,1.3211,1.3124,1.3138,1.3165,1.3254,1.3276,1.3216,1.3243,1.323,1.3336,1.3385,1.3423,1.3493,1.3515,1.3553,1.3591,1.3607,1.3607,1.3607,1.3607,1.3607,1.3607,1.3607,1.3602,1.3607,1.3613,1.3613,1.3635,1.3684,1.3678,1.3667,1.3678,0.0,0.0,0.0,0.0,0.0,0.0,0.0,0.0,0.0,0.0,0.0,0.0,0.0,0.0,0.0,0.0,0.0,0.0,0.0,0.0,0.0,0.0,0.0,0.0,0.0,0.0,0.0,0.0,0.0,0.0,0.0,0.0,0.0,0.0,0.0,0.0,0.0,0.1967,0.4163,0.5685,0.6935,0.8745,1.0654,1.1495,1.2489,1.2726,1.2776,1.2786,1.2797,1.2803,1.2803,1.2808,1.2808,1.283,1.2841,1.2852,1.2868,1.2884,1.289,1.289,1.2895,1.2901,1.2912,1.2971,1.3009,1.3071,1.3058,1.3113,1.3162,1.3221,1.3281,1.3314,1.3357,1.3433,1.3446,1.352,1.3548,1.3558,1.3569,1.3531,1.3482,1.3444,1.3412,1.3357,1.327,1.3186,1.3181,1.327,1.3363,1.3368,1.3406,1.345,1.3504,1.3542,1.3548,1.3537,1.3558,1.3569,1.3597,1.3607,1.3607,1.3629,1.3645,1.3618,1.3607,1.3651,1.3662,1.3618,1.3618,1.3656,1.3705,1.377,1.3819,1.3825,1.3852,0.0,0.0,0.0,0.0,0.0,0.0,0.0,0.0,0.0,0.0,0.0,0.0,0.0,0.0,0.0,0.0,0.0,0.0,0.0,0.0,0.0,0.0,0.0,0.0,0.0,0.0,0.0,0.0,0.0,0.0,0.0,0.0,0.0,0.0101,0.0252,0.0454,0.1161,0.2776,0.5439,0.7148,0.8363,1.0271,1.1678,1.2534,1.269,1.289,1.289,1.289,1.2884,1.2884,1.2873,1.2873,1.2868,1.2873,1.2884,1.2884,1.2884,1.289,1.289,1.2895,1.2912,1.2939,1.2966,1.3037,1.3221,1.3238,1.3194,1.3238,1.3205,1.3249,1.3336,1.3385,1.3444,1.3515,1.3548,1.3575,1.358,1.3586,1.3591,1.3575,1.3548,1.3537,1.351,1.3504,1.3439,1.3439,1.3406,1.3385,1.3461,1.3477,1.3537,1.3569,1.3597,1.3607,1.3586,1.358,1.3591,1.3602,1.3624,1.3618,1.3629,1.3673,1.3689,1.3694,1.3722,1.3781,1.3776,1.3727,1.3749,1.3814,1.3847,1.3885,1.3928,1.3977,1.4026,0.0,0.0,0.0,0.0,0.0,0.0,0.0,0.0,0.0,0.0,0.0,0.0,0.0,0.0,0.0,0.0,0.0,0.0,0.0,0.0,0.0,0.0,0.0,0.0,0.0,0.0,0.0,0.0,0.0,0.0,0.0,0.0,0.0,0.0252,0.0656,0.1262,0.2069,0.4083,0.6293,0.8256,1.0016,1.1728,1.2484,1.284,1.289,1.289,1.289,1.289,1.289,1.289,1.289,1.289,1.289,1.289,1.289,1.289,1.289,1.289,1.289,1.289,1.3011,1.3071,1.3109,1.3167,1.3346,1.339,1.3289,1.3341,1.3308,1.3325,1.3406,1.3461,1.3531,1.3569,1.3591,1.3607,1.3607,1.3607,1.3607,1.3607,1.3602,1.3597,1.3591,1.3591,1.3597,1.3602,1.3607,1.3607,1.3591,1.3564,1.3569,1.3586,1.3597,1.3607,1.3607,1.364,1.3656,1.3684,1.3705,1.3667,1.3667,1.3754,1.3809,1.3819,1.3852,1.3944,1.396,1.3933,1.3977,1.3999,1.3977,1.3999,1.4048,1.4102,1.4129,0.0,0.0,0.0,0.0,0.0,0.0,0.0,0.0,0.0,0.0,0.0,0.0,0.0,0.0,0.0,0.0,0.0,0.0,0.0,0.0,0.0,0.0,0.0,0.0,0.0,0.0,0.0,0.0,0.0,0.0,0.0,0.0,0.0,0.0,0.0959,0.1867,0.3378,0.529,0.7452,0.956,1.0471,1.1778,1.2634,1.289,1.289,1.289,1.289,1.289,1.289,1.289,1.2906,1.2917,1.2928,1.2933,1.2933,1.295,1.2944,1.2939,1.2944,1.2944,1.302,1.3153,1.3145,1.3211,1.3352,1.3439,1.3439,1.351,1.3493,1.3493,1.3548,1.3548,1.3591,1.3591,1.3602,1.3607,1.3607,1.3607,1.3607,1.3607,1.3602,1.3602,1.3602,1.3602,1.3602,1.3607,1.3607,1.3607,1.3635,1.3624,1.3618,1.3635,1.3645,1.3607,1.3607,1.3711,1.3743,1.377,1.3798,1.3798,1.3825,1.3885,1.3928,1.3934,1.3944,1.402,1.4037,1.4091,1.4064,1.4026,1.4075,1.4064,1.4112,1.4172,1.4309]},{"header":{"parameterUnit":"m.s-1","parameterCategory":1,"la1":31.0,"la2":29.5877,"lo1":-88.7671,"lo2":-86.6584,"dy":0.0162,"dx":0.0185,"nx":115,"ny":88,"refTime":"2026-04-06T12:00:00:Z","depth":0,"parameterNumber":3,"parameterNumberName":"V-component_of_WINDS"},"data":[0.0,0.0,0.0,0.0,0.0,0.0,0.0,0.0,0.0,0.0,0.0,0.0,0.0,0.0,0.0,0.0,0.0,0.0,0.0,0.0,0.0,0.0,0.0,0.0,0.0,0.0,0.0,0.0,0.0,0.0,0.0,0.0,0.0,0.0,0.0,0.0,0.0,0.0,0.0,0.0,0.0,0.0,0.0,0.0,0.0,0.0,0.0,0.0,0.0,0.0,0.0,0.0,0.0,0.0,0.0,0.0,0.0,0.0,0.0,0.0,0.0,0.0,0.0,0.0,0.0,0.0,0.0,0.0,0.0,0.0,0.0,0.0,0.0,0.0,0.0,0.0,0.0,0.0,0.0,0.0,0.0,0.0,0.0,0.0,0.0,0.0,0.0,0.0,0.0,0.0,0.0,0.0,0.0,0.0,0.0,0.0,0.0,0.0,0.0,0.0,0.0,0.0,0.0,0.0,0.0,0.0,0.0,0.0,0.0,0.0,0.0,0.0,0.0,0.0,0.0,0.0,0.0,0.0,0.0,0.0,0.0,0.0,0.0,0.0,0.0,0.0,0.0,0.0,0.0,0.0,0.0,0.0,0.0,0.0,0.0,0.0,0.0,0.0,0.0,0.0,0.0,0.0,0.0,0.0,0.0,0.0,0.0,0.0,0.0,0.0,0.0,0.0,0.0,0.0,0.0,0.0,0.0,0.0,0.0,0.0,0.0,0.0,0.0,0.0,0.0,0.0,0.0,0.0,0.0,0.0,0.0,0.0,0.0,0.0,0.0,0.0,0.0,0.0,0.0,0.0,0.0,0.0,0.0,0.0,0.0,0.0,0.0,0.0,0.0,0.0,0.0,0.0,0.0,0.0,0.0,0.0,0.0,0.0,0.0,0.0,0.0,0.0,0.0,0.0,0.0,0.0,0.0,0.0,0.0,0.0,0.0,0.0,0.0,0.0,0.0,0.0,0.0,0.0,0.0,0.0,0.0,0.0,0.0,0.0,0.0,0.0,0.0,0.0,0.0,0.0,0.0,0.0,0.0,0.0,0.0,0.0,0.0,0.0,0.0,0.0,0.0,0.0,0.0,0.0,0.0,0.0,0.0,0.0,0.0,0.0,0.0,0.0,0.0,0.0,0.0,0.0,0.0,0.0,0.0,0.0,0.0,0.0,0.0,0.0,0.0,0.0,0.0,0.0,0.0,0.0,0.0,0.0,0.0,0.0,0.0,0.0,0.0,0.0,0.0,0.0,0.0,0.0,0.0,0.0,0.0,0.0,0.0,0.0,0.0,0.0,0.0,0.0,0.0,0.0,0.0,0.0,0.0,0.0,0.0,0.0,0.0,0.0,0.0,0.0,0.0,0.0,0.0,0.0,0.0,0.0,0.0,0.0,0.0,0.0,0.0,0.0,0.0,0.0,0.0,0.0,0.0,0.0,0.0,0.0,0.0,0.0,0.0,0.0,0.0,0.0,0.0,0.0,0.0,0.0,0.0,0.0,0.0,0.0,0.0,0.0,0.0,0.0,0.0,0.0,0.0,0.0,0.0,0.0,0.0,0.0,0.0,0.0,0.0,0.0,0.0,0.0,0.0,0.0,0.0,0.0,0.0,0.0,0.0,0.0,0.0,0.0,0.0,0.0,0.0,0.0,0.0,0.0,0.0,0.0,0.0,0.0,0.0,0.0,0.0,0.0,0.0,0.0,0.0,0.0,0.0,0.0,0.0,0.0,0.0,0.0,0.0,0.0,0.0,0.0,0.0,0.0,0.0,0.0,0.0,0.0,0.0,0.0,0.0,0.0,0.0,0.0,0.0,0.0,0.0,0.0,0.0,0.0,0.0,0.0,0.0,0.0,0.0,0.0,0.0,0.0,0.0,0.0,0.0,0.0,0.0,0.0,0.0,0.0,0.0,0.0,0.0,0.0,0.0,0.0,0.0,0.0,0.0,0.0,0.0,0.0,0.0,0.0,0.0,0.0,0.0,0.0,0.0,0.0,0.0,0.0,0.0,0.0,0.0,0.0,0.0,0.0,0.0,0.0,0.0,0.0,0.0,0.0,0.0,0.0,0.0,0.0,0.0,0.0,0.0,0.0,0.0,0.0,0.0,0.0,0.0,0.0,0.0,0.0,0.0,0.0,0.0,0.0,0.0,0.0,0.0,0.0,0.0,0.0,0.0,0.0,0.0,0.0,0.0,0.0,0.0,0.0,0.0,0.0,0.0,0.0,0.0,0.0,0.0,0.0,0.0,0.0,0.0,0.0,0.0,0.0,0.0,0.0,0.0,0.0,0.0,0.0,0.0,0.0,0.0,0.0,0.0,0.0,0.0,0.0,0.0,0.0,0.0,0.0,0.0,0.0,0.0,0.0,0.0,0.0,0.0,0.0,0.0,0.0,0.0,0.0,0.0,0.0,0.0,0.0,0.0,0.0,0.0,0.0,0.0,0.0,0.0,0.0,0.0,0.0,0.0,0.0,0.0,0.0,0.0,0.0,0.0,0.0,0.0,0.0,0.0,0.0,0.0,0.0,0.0,0.0,0.0,0.0,0.0,0.0,0.0,0.0,0.0,0.0,0.0,0.0,0.0,0.0,0.0,0.0,0.0,0.0,0.0,0.0,0.0,0.0,0.0,0.0,0.0,0.0,0.0,0.0,0.0,0.0,0.0,0.0,0.0,0.0,0.0,0.0,0.0,0.0,0.0,0.0,0.0,0.0,0.0,0.0,0.0,0.0,0.0,0.0,0.0,0.0,0.0,0.0,0.0,0.0,0.0,0.0,0.0,0.0,0.0,0.0,0.0,0.0,0.0,0.0,0.0,0.0,0.0,0.0,0.0,0.0,0.0,0.0,0.0,0.0,0.0,0.0,0.0,0.0,0.0,0.0,0.0,0.0,0.0,0.0,0.0,0.0,0.0,0.0,0.0,0.0,0.0,0.0,0.0,0.0,0.0,0.0,0.0,0.0,0.0,0.0,0.0,0.0,0.0,0.0,0.0,0.0,0.0,0.0,0.0,0.0,0.0,0.0,0.0,0.0,0.0,0.0,0.0,0.0,0.0,0.0,0.0,0.0,0.0,0.0,0.0,0.0,0.0,0.0,0.0,0.0,0.0,0.0,0.0,0.0,0.0,0.0,0.0,0.0,0.0,0.0,0.0,0.0,0.0,0.0,0.0,0.0,0.0,0.0,0.0,0.0,0.0,0.0,0.0,0.0,0.0,0.0,0.0,0.0,0.0,0.0,0.0,0.0,0.0,0.0,0.0,0.0,0.0,0.0,0.0,0.0,0.0,0.0,0.0,0.0,0.0,0.0,0.0,0.0,0.0,0.0,0.0,0.0,0.0,0.0,0.0,0.0,0.0,0.0,0.0,0.0,0.0,0.0,0.0,0.0,0.0,0.0,0.0,0.0,0.0,0.0,0.0,0.0,0.0,0.0,0.0,0.0,0.0,0.0,0.0,0.0,0.0,0.0,0.0,0.0,0.0,0.0,0.0,0.0,0.0,0.0,0.0,0.0,0.0,0.0,0.0,0.0,0.0,0.0,0.0,0.0,0.0,0.0,0.0,0.0,0.0,0.0,0.0,0.0,0.0,0.0,0.0,0.0,0.0,0.0,0.0,0.0,0.0,0.0,0.0,0.0,0.0,0.0,0.0,0.0,0.0,0.0,0.0,0.0,0.0,0.0,0.0,0.0,0.0,0.0,0.0,0.0,0.0,0.0,0.0,0.0,0.0,0.0,0.0,0.0,0.0,0.0,0.0,0.0,0.0,0.0,0.0,0.0,0.0,0.0,0.0,0.0,0.0,0.0,0.0,0.0,0.0,0.0,0.0,0.0,0.0,0.0,0.0,0.0,0.0,0.0,0.0,0.0,0.0,0.0,0.0,0.0,0.0,0.0,0.0,0.0,0.0,0.0,0.0,0.0,0.0,0.0,0.0,0.0,0.0,0.0,0.0,0.0,0.0,0.0,0.0,0.0,0.0,0.0,0.0,0.0,0.0,0.0,0.0,0.0,0.0,0.0,0.0,0.0,0.0,0.0,0.0,0.0,0.0,0.0,0.0,0.0,0.0,0.0,0.0,0.0,0.0,0.0,0.0,0.0,0.0,0.0,0.0,0.0,0.0,0.0,0.0,0.0,0.0,0.0,0.0,0.0,0.0,0.0,0.0,0.0,0.0,0.0,0.0,0.0,0.0,0.0,0.0,0.0,0.0,0.0,0.0,0.0,0.0,0.0,0.0,0.0,0.0,0.0,0.0,0.0,0.0,0.0,0.0,0.0,0.0,0.0,0.0,0.0,1.9825,0.0,0.0,0.0,0.0,0.0,0.0,0.0,0.0,0.0,0.0,0.0,0.0,0.0,0.0,0.0,0.0,0.0,0.0,0.0,0.0,0.0,0.0,0.0,0.0,0.0,0.0,0.0,0.0,0.0,0.0,0.0,0.0,0.0,0.0,0.0,0.0,0.0,0.0,0.0,0.0,0.0,0.0,0.0,0.0,0.0,0.0,0.0,0.0,0.0,0.0,0.0,0.0,0.0,0.0,0.0,0.0,0.0,0.0,0.0,0.0,0.0,0.0,0.0,0.0,0.0,0.0,0.0,0.0,0.0,0.0,0.0,0.0,0.0,0.0,0.0,0.0,0.0,0.0,0.0,0.0,0.0,0.0,0.0,0.0,0.0,0.0,0.0,0.0,0.0,0.0,0.0,0.0,0.0,0.0,0.0,0.0,0.0,0.0,0.0,0.0,0.0,0.0,0.0,0.0,0.0,0.0,0.0,0.0,0.0,0.0,1.998,1.9993,1.9993,1.9812,1.9364,0.0,0.0,0.0,0.0,0.0,0.0,0.0,0.0,0.0,0.0,0.0,0.0,0.0,0.0,0.0,0.0,0.0,0.0,0.0,0.0,0.0,0.0,0.0,0.0,0.0,0.0,0.0,0.0,0.0,0.0,0.0,0.0,0.0,0.0,0.0,0.0,0.0,0.0,0.0,0.0,0.0,0.0,0.0,0.0,0.0,0.0,0.0,0.0,0.0,0.0,0.0,0.0,0.0,0.0,0.0,0.0,0.0,0.0,0.0,0.0,0.0,0.0,0.0,0.0,0.0,0.0,0.0,0.0,0.0,0.0,0.0,0.0,0.0,0.0,0.0,0.0,0.0,0.0,0.0,0.0,0.0,0.0,0.0,0.0,0.0,0.0,0.0,0.0,0.0,0.0,0.0,0.0,0.0,0.0,0.0,0.0,0.0,0.0,0.0,0.0,0.0,0.0,0.0,0.0,0.0,0.0,0.0,0.0,0.0,0.0,0.0,0.0,1.9982,1.9604,1.8862,0.0,0.0,0.0,0.0,0.0,0.0,0.0,0.0,0.0,0.0,0.0,0.0,0.0,0.0,0.0,0.0,0.0,0.0,0.0,0.0,0.0,0.0,0.0,0.0,0.0,0.0,0.0,0.0,0.0,0.0,0.0,0.0,0.0,0.0,0.0,0.0,0.0,0.0,0.0,0.0,0.0,0.0,0.0,0.0,0.0,0.0,0.0,0.0,0.0,0.0,0.0,0.0,0.0,0.0,0.0,0.0,0.0,0.0,0.0,0.0,0.0,0.0,0.0,0.0,0.0,0.0,0.0,0.0,0.0,0.0,0.0,0.0,0.0,0.0,0.0,0.0,0.0,0.0,0.0,0.0,0.0,0.0,0.0,0.0,0.0,0.0,0.0,0.0,0.0,0.0,0.0,0.0,0.0,0.0,0.0,0.0,0.0,0.0,0.0,0.0,0.0,0.0,0.0,0.0,0.0,0.0,0.0,0.0,0.0,0.0,1.9186,1.9979,1.9982,0.0,1.8864,0.0,0.0,0.0,0.0,0.0,0.0,0.0,0.0,0.0,0.0,0.0,0.0,0.0,0.0,0.0,0.0,0.0,0.0,0.0,0.0,0.0,0.0,0.0,0.0,0.0,0.0,0.0,0.0,0.0,0.0,0.0,0.0,0.0,0.0,0.0,0.0,0.0,0.0,0.0,0.0,0.0,0.0,0.0,0.0,0.0,0.0,0.0,0.0,0.0,0.0,0.0,0.0,0.0,0.0,0.0,0.0,0.0,0.0,0.0,0.0,0.0,0.0,0.0,0.0,0.0,0.0,0.0,0.0,0.0,0.0,0.0,0.0,0.0,0.0,0.0,0.0,0.0,0.0,0.0,0.0,0.0,0.0,0.0,0.0,0.0,0.0,0.0,0.0,0.0,0.0,0.0,0.0,0.0,0.0,0.0,0.0,0.0,0.0,0.0,0.0,0.0,0.0,0.0,0.0,0.0,0.0,0.0,0.0,0.0,0.0,1.9118,2.0046,1.9581,1.9216,0.0,0.0,0.0,0.0,0.0,0.0,0.0,0.0,0.0,0.0,0.0,0.0,0.0,0.0,0.0,0.0,0.0,0.0,0.0,0.0,0.0,0.0,0.0,0.0,0.0,0.0,0.0,0.0,0.0,0.0,0.0,0.0,0.0,0.0,0.0,0.0,0.0,0.0,0.0,0.0,0.0,0.0,0.0,0.0,0.0,0.0,0.0,0.0,0.0,0.0,0.0,0.0,0.0,0.0,0.0,0.0,0.0,0.0,0.0,0.0,0.0,0.0,0.0,0.0,0.0,0.0,0.0,0.0,0.0,0.0,0.0,0.0,0.0,0.0,0.0,0.0,0.0,0.0,0.0,0.0,0.0,0.0,0.0,0.0,0.0,0.0,0.0,0.0,0.0,0.0,0.0,0.0,0.0,0.0,0.0,0.0,0.0,0.0,0.0,0.0,0.0,0.0,0.0,0.0,0.0,0.0,0.0,0.0,0.0,0.0,1.7956,1.8898,1.9977,1.9297,1.8788,1.8563,0.0,0.0,0.0,0.0,0.0,0.0,0.0,0.0,0.0,0.0,0.0,0.0,0.0,0.0,0.0,0.0,0.0,0.0,0.0,0.0,0.0,0.0,0.0,0.0,0.0,0.0,0.0,0.0,0.0,0.0,0.0,0.0,0.0,0.0,0.0,0.0,0.0,0.0,0.0,0.0,0.0,0.0,0.0,0.0,0.0,0.0,0.0,0.0,0.0,0.0,0.0,0.0,0.0,0.0,0.0,0.0,0.0,0.0,0.0,0.0,0.0,0.0,0.0,0.0,0.0,0.0,0.0,0.0,0.0,0.0,0.0,0.0,0.0,0.0,0.0,0.0,0.0,0.0,0.0,0.0,0.0,0.0,0.0,0.0,0.0,0.0,0.0,0.0,0.0,0.0,0.0,0.0,0.0,0.0,0.0,0.0,0.0,0.0,0.0,0.0,0.0,0.0,0.0,0.0,0.0,0.0,0.0,0.0,0.0,1.7129,1.8317,1.9865,1.9216,1.8442,0.0,0.0,0.0,0.0,0.0,0.0,0.0,0.0,0.0,0.0,0.0,0.0,0.0,0.0,0.0,0.0,0.0,0.0,0.0,0.0,0.0,0.0,0.0,0.0,0.0,0.0,0.0,0.0,0.0,0.0,0.0,0.0,0.0,0.0,0.0,0.0,0.0,0.0,0.0,0.0,0.0,0.0,0.0,0.0,0.0,0.0,0.0,0.0,0.0,0.0,0.0,0.0,0.0,0.0,0.0,0.0,0.0,0.0,0.0,0.0,0.0,0.0,0.0,0.0,0.0,0.0,0.0,0.0,0.0,0.0,0.0,0.0,0.0,0.0,0.0,0.0,0.0,0.0,0.0,0.0,0.0,0.0,0.0,0.0,0.0,0.0,0.0,0.0,0.0,0.0,0.0,0.0,0.0,0.0,0.0,0.0,0.0,0.0,0.0,0.0,0.0,0.0,0.0,0.0,0.0,0.0,0.0,0.0,0.0,1.5517,1.678,1.7776,1.8348,1.8148,1.764,0.0,0.0,0.0,0.0,0.0,0.0,0.0,0.0,0.0,0.0,0.0,0.0,0.0,0.0,0.0,0.0,0.0,0.0,0.0,0.0,0.0,0.0,0.0,0.0,0.0,0.0,0.0,0.0,0.0,0.0,0.0,0.0,0.0,0.0,0.0,0.0,0.0,0.0,0.0,0.0,0.0,0.0,0.0,0.0,0.0,0.0,0.0,0.0,0.0,0.0,0.0,0.0,0.0,0.0,0.0,0.0,0.0,0.0,0.0,0.0,0.0,0.0,0.0,0.0,0.0,0.0,0.0,0.0,0.0,0.0,0.0,0.0,0.0,0.0,0.0,0.0,0.0,0.0,0.0,0.0,0.0,0.0,0.0,0.0,0.0,0.0,0.0,0.0,0.0,0.0,0.0,0.0,0.0,0.0,0.0,0.0,0.0,0.0,0.0,0.0,0.0,0.0,0.0,0.0,0.0,0.0,0.0,0.0,0.0,1.6322,0.0,1.809,0.0,1.8119,1.76,0.0,0.0,0.0,0.0,0.0,0.0,0.0,0.0,0.0,0.0,0.0,0.0,0.0,0.0,0.0,0.0,0.0,0.0,0.0,0.0,0.0,0.0,0.0,0.0,0.0,0.0,0.0,0.0,0.0,0.0,0.0,0.0,0.0,0.0,0.0,0.0,0.0,0.0,0.0,0.0,0.0,0.0,0.0,0.0,0.0,0.0,0.0,0.0,0.0,0.0,0.0,0.0,0.0,0.0,0.0,0.0,0.0,0.0,0.0,0.0,0.0,0.0,0.0,0.0,0.0,0.0,0.0,0.0,0.0,0.0,0.0,0.0,0.0,0.0,0.0,0.0,0.0,0.0,0.0,0.0,0.0,0.0,0.0,0.0,0.0,0.0,0.0,0.0,0.0,0.0,0.0,0.0,0.0,0.0,0.0,0.0,0.0,0.0,0.0,0.0,0.0,0.0,0.0,0.0,0.0,0.0,0.0,0.0,1.8116,1.881,1.8848,1.9179,2.0017,1.9169,1.8366,0.0,0.0,0.0,0.0,0.0,0.0,0.0,0.0,0.0,0.0,0.0,0.0,0.0,0.0,0.0,0.0,0.0,0.0,0.0,0.0,0.0,0.0,0.0,0.0,0.0,0.0,0.0,0.0,0.0,0.0,0.0,0.0,0.0,0.0,0.0,0.0,0.0,0.0,0.0,0.0,0.0,0.0,0.0,0.0,0.0,0.0,0.0,0.0,0.0,0.0,0.0,0.0,0.0,0.0,0.0,0.0,0.0,0.0,0.0,0.0,0.0,0.0,0.0,0.0,0.0,0.0,0.0,0.0,0.0,0.0,0.0,0.0,0.0,0.0,0.0,0.0,0.0,0.0,0.0,0.0,0.0,0.0,0.0,0.0,0.0,0.0,0.0,0.0,0.0,0.0,0.0,0.0,0.0,0.0,0.0,0.0,0.0,0.0,0.0,0.0,0.0,0.0,0.0,0.0,0.0,0.0,0.0,0.0,0.0,1.9007,1.8967,1.9104,1.9302,1.8488,1.791,0.0,0.0,0.0,0.0,0.0,0.0,0.0,0.0,0.0,0.0,0.0,0.0,0.0,0.0,0.0,0.0,0.0,0.0,0.0,0.0,0.0,0.0,0.0,0.0,0.0,0.0,0.0,0.0,0.0,0.0,0.0,0.0,0.0,0.0,0.0,0.0,0.0,0.0,0.0,0.0,0.0,0.0,0.0,0.0,0.0,0.0,0.0,0.0,0.0,0.0,0.0,0.0,0.0,0.0,0.0,0.0,0.0,0.0,0.0,0.0,0.0,0.0,0.0,0.0,0.0,0.0,0.0,0.0,0.0,0.0,0.0,0.0,0.0,0.0,0.0,0.0,0.0,0.0,0.0,0.0,0.0,0.0,0.0,0.0,0.0,0.0,0.0,0.0,0.0,0.0,0.0,0.0,0.0,0.0,0.0,0.0,0.0,0.0,0.0,0.0,0.0,0.0,0.0,0.0,0.0,0.0,0.0,0.0,0.0,2.1979,2.1596,2.1254,2.0948,2.0081,1.93,1.8603,0.0,0.0,0.0,0.0,0.0,0.0,0.0,0.0,0.0,0.0,0.0,0.0,0.0,0.0,0.0,0.0,0.0,0.0,0.0,0.0,0.0,0.0,0.0,0.0,0.0,0.0,0.0,0.0,0.0,0.0,0.0,0.0,0.0,0.0,0.0,0.0,0.0,0.0,0.0,0.0,0.0,0.0,0.0,0.0,0.0,0.0,0.0,0.0,0.0,0.0,0.0,0.0,0.0,0.0,0.0,0.0,0.0,0.0,0.0,0.0,0.0,0.0,0.0,0.0,0.0,0.0,0.0,0.0,0.0,0.0,0.0,0.0,0.0,0.0,0.0,0.0,0.0,0.0,0.0,0.0,0.0,0.0,0.0,0.0,0.0,0.0,0.0,0.0,0.0,0.0,0.0,0.0,0.0,0.0,0.0,0.0,0.0,0.0,0.0,0.0,0.0,0.0,0.0,0.0,0.0,0.0,0.0,0.0,2.716,2.6479,2.5531,2.4407,2.3388,2.2109,0.0,0.0,0.0,0.0,0.0,0.0,0.0,0.0,0.0,0.0,0.0,0.0,0.0,0.0,0.0,0.0,0.0,0.0,0.0,0.0,0.0,0.0,0.0,0.0,0.0,0.0,0.0,0.0,0.0,0.0,0.0,0.0,0.0,0.0,0.0,0.0,0.0,0.0,0.0,0.0,0.0,0.0,0.0,0.0,0.0,0.0,0.0,0.0,0.0,0.0,0.0,0.0,0.0,0.0,0.0,0.0,0.0,0.0,0.0,0.0,0.0,0.0,0.0,0.0,0.0,0.0,0.0,0.0,0.0,0.0,0.0,0.0,0.0,0.0,0.0,0.0,0.0,0.0,0.0,0.0,0.0,0.0,0.0,0.0,0.0,0.0,0.0,0.0,0.0,0.0,0.0,0.0,0.0,0.0,0.0,0.0,0.0,0.0,0.0,0.0,0.0,0.0,0.0,0.0,0.0,0.0,0.0,0.0,0.0,3.0668,3.233,3.1261,2.7304,2.5054,2.3384,0.0,0.0,0.0,0.0,0.0,0.0,0.0,0.0,0.0,0.0,0.0,0.0,0.0,0.0,0.0,0.0,0.0,0.0,0.0,0.0,0.0,0.0,0.0,0.0,0.0,0.0,0.0,0.0,0.0,0.0,0.0,0.0,0.0,0.0,0.0,0.0,0.0,0.0,0.0,0.0,0.0,0.0,0.0,0.0,0.0,0.0,0.0,0.0,0.0,0.0,0.0,0.0,0.0,0.0,0.0,0.0,0.0,0.0,0.0,0.0,0.0,0.0,0.0,0.0,0.0,0.0,0.0,0.0,0.0,0.0,0.0,0.0,0.0,0.0,0.0,0.0,0.0,0.0,0.0,0.0,0.0,0.0,0.0,0.0,0.0,0.0,0.0,0.0,0.0,0.0,0.0,0.0,0.0,0.0,0.0,0.0,0.0,0.0,0.0,0.0,0.0,0.0,0.0,0.0,0.0,0.0,0.0,0.0,3.0393,3.2619,3.5501,3.5217,3.153,2.8196,2.5665,0.0,0.0,0.0,0.0,0.0,0.0,0.0,0.0,0.0,0.0,0.0,0.0,0.0,0.0,0.0,0.0,0.0,0.0,0.0,0.0,0.0,0.0,0.0,0.0,0.0,0.0,0.0,0.0,0.0,0.0,0.0,0.0,0.0,0.0,0.0,0.0,0.0,0.0,0.0,0.0,0.0,0.0,0.0,0.0,0.0,0.0,0.0,0.0,0.0,0.0,0.0,0.0,0.0,0.0,0.0,0.0,0.0,0.0,0.0,0.0,0.0,0.0,0.0,0.0,0.0,0.0,0.0,0.0,0.0,0.0,0.0,0.0,0.0,0.0,0.0,0.0,0.0,0.0,0.0,0.0,0.0,0.0,0.0,0.0,0.0,0.0,0.0,0.0,0.0,0.0,0.0,0.0,0.0,0.0,0.0,0.0,0.0,0.0,0.0,0.0,0.0,0.0,0.0,0.0,0.0,0.0,0.0,0.0,3.1991,3.3943,3.7253,3.8135,3.6273,3.2002,2.8454,0.0,0.0,0.0,0.0,0.0,0.0,0.0,0.0,0.0,0.0,0.0,0.0,0.0,0.0,0.0,0.0,0.0,0.0,0.0,0.0,0.0,0.0,0.0,0.0,0.0,0.0,0.0,0.0,0.0,0.0,0.0,0.0,0.0,0.0,0.0,0.0,0.0,0.0,0.0,0.0,0.0,0.0,0.0,0.0,0.0,0.0,0.0,0.0,0.0,0.0,0.0,0.0,0.0,0.0,0.0,0.0,0.0,0.0,0.0,0.0,0.0,0.0,0.0,0.0,0.0,0.0,0.0,0.0,0.0,0.0,0.0,0.0,0.0,0.0,0.0,0.0,0.0,0.0,0.0,0.0,0.0,0.0,0.0,0.0,0.0,0.0,0.0,0.0,0.0,0.0,0.0,0.0,0.0,0.0,0.0,0.0,0.0,0.0,0.0,0.0,0.0,0.0,0.0,0.0,0.0,0.0,0.0,0.0,3.433,3.737,4.0758,4.1367,3.8919,3.3983,3.0121,0.0,0.0,0.0,0.0,0.0,0.0,0.0,0.0,0.0,0.0,0.0,0.0,0.0,0.0,0.0,0.0,0.0,0.0,0.0,0.0,0.0,0.0,0.0,0.0,0.0,0.0,0.0,0.0,0.0,0.0,0.0,0.0,0.0,0.0,0.0,0.0,0.0,0.0,0.0,0.0,0.0,0.0,0.0,0.0,0.0,0.0,0.0,0.0,2.213,0.0,0.0,0.0,0.0,0.0,0.0,0.0,0.0,0.0,0.0,0.0,0.0,0.0,0.0,0.0,0.0,0.0,0.0,0.0,0.0,0.0,0.0,0.0,0.0,0.0,0.0,0.0,0.0,0.0,0.0,0.0,0.0,0.0,0.0,0.0,0.0,0.0,0.0,0.0,0.0,0.0,0.0,0.0,0.0,0.0,0.0,0.0,0.0,0.0,0.0,0.0,0.0,0.0,0.0,0.0,0.0,0.0,0.0,0.0,3.6046,3.9045,4.2044,4.273,4.0906,3.7413,3.3551,0.0,0.0,0.0,0.0,0.0,0.0,0.0,0.0,0.0,0.0,0.0,0.0,0.0,0.0,0.0,0.0,0.0,0.0,0.0,0.0,0.0,0.0,0.0,0.0,0.0,0.0,0.0,0.0,0.0,0.0,0.0,0.0,0.0,0.0,0.0,0.0,0.0,0.0,0.0,0.0,0.0,0.0,0.0,0.0,0.0,0.0,0.0,0.0,0.0,0.0,0.0,0.0,0.0,0.0,0.0,0.0,0.0,0.0,0.0,0.0,0.0,0.0,0.0,0.0,0.0,0.0,0.0,0.0,0.0,0.0,0.0,0.0,0.0,0.0,0.0,0.0,0.0,0.0,0.0,0.0,0.0,0.0,0.0,0.0,0.0,0.0,0.0,0.0,0.0,0.0,0.0,0.0,0.0,0.0,0.0,0.0,0.0,0.0,0.0,0.0,0.0,0.0,0.0,0.0,0.0,0.0,0.0,3.4056,3.7564,4.0135,4.2668,4.3511,4.2508,4.0612,3.6908,3.1224,0.0,0.0,0.0,0.0,0.0,0.0,0.0,0.0,0.0,0.0,0.0,0.0,0.0,0.0,0.0,0.0,0.0,0.0,0.0,0.0,0.0,0.0,0.0,0.0,0.0,0.0,0.0,0.0,0.0,0.0,0.0,0.0,0.0,0.0,0.0,0.0,0.0,0.0,1.9993,2.2158,0.0,0.0,0.0,0.0,0.0,0.0,0.0,0.0,2.3515,0.0,0.0,0.0,0.0,0.0,0.0,0.0,0.0,0.0,0.0,0.0,0.0,0.0,0.0,0.0,0.0,0.0,0.0,0.0,0.0,0.0,0.0,0.0,0.0,0.0,0.0,0.0,0.0,0.0,0.0,0.0,0.0,0.0,0.0,0.0,0.0,0.0,0.0,0.0,0.0,0.0,0.0,0.0,0.0,0.0,0.0,0.0,0.0,0.0,0.0,0.0,0.0,0.0,0.0,0.0,0.0,3.0547,3.5537,3.9316,4.1848,4.4423,4.5,4.3381,4.0974,3.7508,3.2938,0.0,0.0,0.0,0.0,0.0,0.0,0.0,0.0,0.0,0.0,0.0,0.0,0.0,0.0,0.0,0.0,0.0,0.0,0.0,0.0,0.0,0.0,0.0,0.0,0.0,0.0,0.0,0.0,0.0,0.0,0.0,0.0,0.0,0.0,0.0,0.0,0.0,0.0,0.0,2.5097,2.5971,0.0,0.0,0.0,0.0,0.0,0.0,0.0,0.0,2.3458,0.0,0.0,0.0,0.0,0.0,0.0,0.0,0.0,0.0,0.0,0.0,0.0,0.0,0.0,0.0,0.0,0.0,0.0,0.0,0.0,0.0,0.0,0.0,0.0,0.0,0.0,0.0,0.0,0.0,0.0,0.0,0.0,0.0,0.0,0.0,0.0,0.0,0.0,0.0,0.0,0.0,0.0,0.0,0.0,0.0,0.0,0.0,0.0,0.0,0.0,0.0,0.0,0.0,0.0,0.0,3.203,3.6356,3.9979,4.29,4.5085,4.5354,4.363,4.0655,3.7239,0.0,0.0,0.0,0.0,0.0,0.0,0.0,0.0,0.0,0.0,0.0,0.0,0.0,0.0,0.0,0.0,0.0,0.0,0.0,0.0,0.0,0.0,0.0,0.0,0.0,0.0,0.0,0.0,0.0,0.0,0.0,0.0,0.0,0.0,0.0,0.0,0.0,0.0,0.0,0.0,2.7197,2.8711,2.843,0.0,0.0,0.0,0.0,0.0,0.0,2.5952,2.4886,0.0,0.0,0.0,0.0,0.0,0.0,0.0,0.0,0.0,0.0,0.0,0.0,0.0,0.0,0.0,0.0,0.0,0.0,0.0,0.0,0.0,0.0,0.0,0.0,0.0,0.0,0.0,0.0,0.0,0.0,0.0,0.0,0.0,0.0,0.0,0.0,0.0,0.0,0.0,0.0,0.0,0.0,0.0,0.0,0.0,0.0,0.0,0.0,0.0,0.0,0.0,0.0,0.0,0.0,0.0,3.3281,3.7098,4.0524,4.3523,4.528,4.528,4.3367,4.0018,3.6531,0.0,0.0,0.0,0.0,0.0,0.0,0.0,0.0,0.0,0.0,0.0,0.0,0.0,0.0,0.0,0.0,0.0,0.0,0.0,0.0,0.0,0.0,0.0,0.0,0.0,0.0,0.0,0.0,0.0,0.0,0.0,0.0,0.0,0.0,0.0,0.0,0.0,0.0,0.0,0.0,0.0,3.124,3.1477,3.0282,0.0,0.0,0.0,0.0,2.9003,2.8514,0.0,0.0,0.0,0.0,0.0,0.0,0.0,0.0,0.0,0.0,0.0,0.0,0.0,0.0,0.0,0.0,0.0,0.0,0.0,0.0,0.0,0.0,0.0,0.0,0.0,0.0,0.0,0.0,0.0,0.0,0.0,0.0,0.0,0.0,0.0,0.0,0.0,0.0,0.0,0.0,0.0,0.0,0.0,0.0,0.0,0.0,0.0,0.0,0.0,0.0,0.0,0.0,0.0,0.0,0.0,0.0,3.3358,3.8305,4.1692,4.3562,4.528,4.5007,4.251,3.9122,3.5364,0.0,0.0,0.0,0.0,0.0,0.0,0.0,0.0,0.0,0.0,0.0,0.0,0.0,0.0,0.0,0.0,0.0,0.0,0.0,0.0,0.0,0.0,0.0,0.0,0.0,0.0,0.0,0.0,0.0,0.0,0.0,0.0,0.0,0.0,0.0,0.0,0.0,0.0,0.0,0.0,0.0,3.3268,3.3988,3.3319,3.2733,0.0,0.0,3.179,3.3156,3.2798,0.0,0.0,0.0,0.0,0.0,0.0,0.0,0.0,0.0,0.0,0.0,0.0,0.0,0.0,0.0,0.0,0.0,0.0,0.0,0.0,0.0,0.0,0.0,0.0,0.0,0.0,0.0,0.0,0.0,0.0,0.0,0.0,0.0,0.0,0.0,0.0,0.0,0.0,0.0,0.0,0.0,0.0,0.0,0.0,0.0,0.0,0.0,0.0,0.0,0.0,0.0,0.0,0.0,0.0,0.0,2.8447,3.402,3.8693,4.2161,4.4267,4.5554,4.4968,4.2356,3.85,3.4661,0.0,0.0,0.0,0.0,0.0,0.0,0.0,0.0,0.0,0.0,0.0,0.0,0.0,0.0,0.0,0.0,0.0,0.0,0.0,0.0,0.0,0.0,0.0,0.0,0.0,0.0,0.0,0.0,0.0,0.0,0.0,0.0,0.0,0.0,0.0,0.0,0.0,0.0,0.0,0.0,0.0,0.0,3.7156,3.7023,0.0,0.0,0.0,3.5912,3.6985,0.0,0.0,0.0,0.0,0.0,0.0,0.0,0.0,0.0,0.0,0.0,0.0,0.0,0.0,0.0,0.0,0.0,0.0,0.0,0.0,0.0,0.0,0.0,0.0,0.0,0.0,0.0,0.0,0.0,0.0,0.0,0.0,0.0,0.0,0.0,0.0,0.0,0.0,0.0,0.0,0.0,0.0,0.0,0.0,0.0,0.0,0.0,0.0,0.0,0.0,0.0,0.0,0.0,0.0,0.0,0.0,0.0,3.4838,3.9201,4.2552,4.4816,4.5749,4.4968,4.2354,3.8578,0.0,0.0,0.0,0.0,0.0,0.0,0.0,0.0,0.0,0.0,0.0,0.0,0.0,0.0,0.0,0.0,0.0,0.0,0.0,0.0,0.0,0.0,0.0,0.0,0.0,0.0,0.0,1.3878,0.0,0.0,0.0,0.0,0.0,0.0,0.0,0.0,0.0,0.0,0.0,0.0,0.0,0.0,3.8348,3.9893,4.0353,4.0488,0.0,0.0,4.0078,4.0647,4.1273,4.0499,0.0,0.0,0.0,0.0,0.0,0.0,0.0,0.0,0.0,0.0,0.0,0.0,0.0,0.0,0.0,0.0,0.0,0.0,0.0,0.0,0.0,0.0,0.0,0.0,0.0,0.0,0.0,0.0,0.0,0.0,0.0,0.0,0.0,0.0,0.0,0.0,0.0,0.0,0.0,0.0,0.0,0.0,0.0,0.0,0.0,0.0,0.0,0.0,0.0,0.0,0.0,0.0,0.0,0.0,0.0,3.5695,4.0018,4.3098,4.4853,4.5749,4.4968,4.2356,3.9708,3.5954,0.0,0.0,0.0,0.0,0.0,0.0,0.0,0.0,0.0,0.0,0.0,0.0,0.0,0.0,0.0,0.0,0.0,0.0,0.0,0.0,0.0,0.0,0.0,0.0,0.0,0.0,0.0,0.0,0.0,0.0,0.0,0.0,0.0,0.0,0.0,0.0,0.0,0.0,0.0,0.0,0.0,4.0223,4.1636,4.2626,4.3191,0.0,0.0,4.4216,4.409,4.4281,4.299,3.8809,0.0,0.0,0.0,0.0,0.0,0.0,0.0,0.0,0.0,0.0,0.0,0.0,0.0,0.0,0.0,0.0,0.0,0.0,0.0,0.0,0.0,0.0,0.0,0.0,0.0,0.0,0.0,0.0,0.0,0.0,0.0,0.0,0.0,0.0,0.0,0.0,0.0,0.0,0.0,0.0,0.0,0.0,0.0,0.0,0.0,0.0,0.0,0.0,0.0,0.0,0.0,0.0,0.0,3.0728,3.6657,4.0983,4.3986,4.5625,4.5507,4.4916,4.3934,4.0932,3.7603,0.0,0.0,0.0,0.0,0.0,0.0,0.0,0.0,0.0,0.0,0.0,0.0,0.0,0.0,0.0,0.0,0.0,0.0,0.0,0.0,0.0,0.0,0.0,0.0,0.0,0.0,0.0,0.0,1.5588,1.6178,1.6658,0.0,0.0,0.0,0.0,0.0,0.0,0.0,0.0,0.0,0.0,4.3572,4.5154,4.6911,0.0,0.0,4.8751,4.8742,4.7224,4.7013,4.5459,4.0879,3.7463,0.0,0.0,0.0,0.0,0.0,0.0,0.0,0.0,0.0,0.0,0.0,0.0,0.0,0.0,0.0,0.0,0.0,0.0,0.0,0.0,0.0,0.0,0.0,0.0,0.0,0.0,0.0,0.0,0.0,0.0,0.0,0.0,0.0,0.0,0.0,0.0,0.0,0.0,0.0,0.0,0.0,0.0,0.0,0.0,0.0,0.0,0.0,0.0,0.0,0.0,0.0,0.0,3.1871,3.7529,4.213,4.5016,4.6187,4.5834,4.544,4.4848,4.2309,3.9487,0.0,0.0,0.0,0.0,0.0,0.0,0.0,0.0,0.0,0.0,0.0,0.0,0.0,0.0,0.0,0.0,0.0,0.0,0.0,0.0,0.0,0.0,0.0,0.0,0.0,0.0,0.0,0.0,1.7612,1.7832,1.8386,0.0,0.0,0.0,0.0,0.0,0.0,0.0,0.0,0.0,0.0,4.5679,4.757,4.9621,5.1014,5.1099,5.1957,5.1753,4.9353,4.8772,4.7101,4.2762,0.0,0.0,0.0,0.0,0.0,0.0,0.0,0.0,0.0,0.0,0.0,0.0,0.0,0.0,0.0,0.0,0.0,0.0,0.0,0.0,0.0,0.0,0.0,0.0,0.0,0.0,0.0,0.0,0.0,0.0,2.3068,0.0,0.0,0.0,0.0,0.0,0.0,0.0,0.0,0.0,0.0,0.0,0.0,0.0,0.0,0.0,0.0,0.0,0.0,0.0,0.0,0.0,0.0,3.3276,3.8464,4.3497,4.615,4.6266,4.7006,4.6617,4.5019,4.3993,4.1524,3.7265,0.0,0.0,0.0,0.0,0.0,0.0,0.0,0.0,0.0,0.0,0.0,0.0,0.0,0.0,0.0,0.0,0.0,0.0,0.0,0.0,0.0,0.0,0.0,0.0,0.0,0.0,1.9132,1.9238,1.9242,0.0,0.0,0.0,0.0,0.0,0.0,0.0,0.0,0.0,0.0,4.1985,4.6037,4.83,5.0102,5.1305,5.1239,5.2628,5.2805,5.0278,4.9232,4.7638,0.0,0.0,0.0,0.0,0.0,0.0,0.0,0.0,0.0,0.0,0.0,0.0,0.0,0.0,0.0,0.0,0.0,0.0,0.0,0.0,0.0,0.0,0.0,0.0,0.0,0.0,0.0,2.8721,2.8154,0.0,0.0,0.0,0.0,0.0,0.0,0.0,0.0,0.0,0.0,0.0,3.8137,3.8678,0.0,0.0,0.0,0.0,0.0,0.0,0.0,0.0,0.0,0.0,0.0,0.0,3.3917,4.0086,4.4222,4.6798,4.7891,4.7694,4.7535,4.749,4.5575,4.2213,3.7368,0.0,0.0,0.0,0.0,0.0,0.0,0.0,0.0,0.0,0.0,0.0,0.0,0.0,0.0,0.0,0.0,0.0,0.0,0.0,0.0,0.0,0.0,0.0,0.0,0.0,1.9929,0.0,0.0,0.0,0.0,0.0,0.0,0.0,0.0,0.0,0.0,0.0,3.5386,3.8956,4.3675,4.7701,5.0138,5.2297,5.3872,0.0,0.0,0.0,0.0,0.0,0.0,0.0,0.0,0.0,0.0,0.0,0.0,0.0,0.0,4.4729,4.3095,4.195,4.091,4.0048,0.0,0.0,0.0,0.0,0.0,0.0,0.0,0.0,0.0,0.0,0.0,0.0,0.0,0.0,3.4202,0.0,3.1608,0.0,0.0,0.0,0.0,0.0,0.0,0.0,0.0,4.2195,4.3952,4.423,4.4811,4.4928,0.0,4.4075,4.1303,0.0,0.0,0.0,0.0,0.0,0.0,0.0,0.0,3.5564,4.1421,4.5558,4.8017,4.8759,4.8563,4.856,4.875,4.6327,4.3278,3.9562,3.5545,3.1712,0.0,0.0,0.0,0.0,0.0,0.0,0.0,0.0,0.0,0.0,0.0,0.0,0.0,0.0,0.0,0.0,0.0,0.0,0.0,0.0,0.0,0.0,0.0,2.2646,0.0,0.0,0.0,0.0,0.0,0.0,0.0,0.0,0.0,3.1051,3.4247,3.7866,4.1171,4.5102,4.8635,5.1444,0.0,0.0,0.0,0.0,0.0,0.0,0.0,4.958,4.9104,4.8558,4.8578,4.9699,5.0339,5.1156,5.2494,0.0,0.0,5.0562,4.9262,4.8407,4.7553,4.655,4.5547,4.4729,4.4952,4.5658,0.0,0.0,0.0,0.0,0.0,0.0,0.0,0.0,4.0089,3.957,0.0,3.693,0.0,0.0,0.0,0.0,0.0,3.7606,0.0,0.0,4.7315,4.9423,5.0202,5.0241,5.071,5.1375,4.9735,4.8447,4.708,3.9156,0.0,0.0,0.0,0.0,0.0,0.0,3.8218,4.2551,4.7469,4.9695,4.8954,4.9695,4.9734,4.8837,4.6487,4.4762,4.3657,3.8856,3.4515,3.0957,2.8251,0.0,0.0,0.0,0.0,0.0,0.0,0.0,0.0,0.0,0.0,0.0,0.0,0.0,0.0,0.0,0.0,0.0,0.0,0.0,0.0,2.6272,0.0,0.0,0.0,0.0,0.0,0.0,0.0,0.0,0.0,0.0,3.4717,3.7273,4.0383,4.3578,0.0,0.0,0.0,0.0,5.632,5.6469,5.7722,5.787,5.553,5.4453,5.3933,5.4007,0.0,0.0,5.6283,5.6543,5.6766,5.7546,5.891,5.9319,5.6989,5.5716,5.4834,5.4017,5.2531,5.1305,5.0479,5.0107,5.059,4.9748,0.0,0.0,0.0,0.0,4.4636,4.613,4.7007,4.76,4.6962,4.5478,4.3748,0.0,0.0,0.0,0.0,0.0,0.0,4.4674,4.748,5.0909,5.2975,5.3834,5.4458,5.4537,5.4148,5.3678,5.2038,4.9304,4.6299,4.1499,3.5135,0.0,0.0,0.0,0.0,4.0289,4.5051,4.8446,5.028,5.0672,5.0905,5.0632,4.9734,4.903,4.7661,4.563,4.2857,3.9487,3.5327,3.2049,0.0,0.0,0.0,0.0,0.0,0.0,0.0,0.0,0.0,0.0,0.0,0.0,0.0,0.0,0.0,0.0,0.0,0.0,0.0,2.8165,2.9838,3.0279,0.0,0.0,0.0,0.0,0.0,0.0,0.0,0.0,0.0,4.1074,4.149,4.2537,0.0,0.0,4.9745,5.3004,5.5094,5.6915,5.8613,0.0,0.0,0.0,5.7833,5.7695,5.8884,6.0025,6.1139,6.2179,6.1893,6.1585,6.1808,6.2699,6.3145,6.2476,6.073,5.9207,5.8242,5.6395,5.4862,5.4574,5.4044,5.4082,5.8471,5.2272,5.0664,4.9678,4.9433,5.1618,5.3035,5.3912,5.4428,5.3829,5.238,5.035,4.7789,4.481,4.3313,0.0,0.0,0.0,4.9413,5.1948,5.44,5.5995,5.6815,5.7321,5.7322,5.6815,5.6108,5.474,5.267,5.1104,4.7861,4.2825,0.0,0.0,3.9039,4.0445,4.3334,4.7704,5.0359,5.192,5.2429,5.2117,5.1492,5.0671,5.028,4.9227,4.7354,4.525,4.2237,3.8239,3.4727,3.0856,0.0,0.0,0.0,0.0,0.0,0.0,0.0,0.0,0.0,0.0,0.0,1.7568,1.9033,0.0,0.0,0.0,2.5629,2.8947,3.2745,3.4479,0.0,0.0,0.0,0.0,0.0,0.0,0.0,4.0697,4.3066,4.4849,4.5807,4.6364,4.6698,4.6735,4.8816,5.1342,5.3933,0.0,5.8353,6.0136,6.0953,6.1362,6.1362,6.0953,6.1102,6.2402,6.3713,6.4705,6.5188,6.4891,6.4605,6.4668,6.5262,6.5782,6.5782,6.4333,6.2848,6.1993,6.0433,5.9181,5.8799,5.8029,5.787,6.5218,6.2743,5.8794,5.6841,5.6582,5.8245,5.9459,6.0195,6.0234,5.9787,5.8716,5.6412,5.3964,5.1381,4.8908,0.0,5.1737,5.2616,5.4364,5.6835,5.785,5.8665,5.9289,5.9366,5.9288,5.9054,5.7486,5.6623,5.631,5.4036,5.2469,5.1414,4.4465,4.2045,4.4154,4.5011,4.7041,5.028,5.274,5.3951,5.3873,5.3094,5.2274,5.1414,5.0632,4.9734,4.8758,4.6506,4.3584,4.0149,3.6757,3.2924,2.87,0.0,0.0,0.0,0.0,0.0,0.0,0.0,0.0,0.0,0.0,0.0,0.0,0.0,0.0,0.0,3.0576,0.0,3.8026,3.9827,0.0,0.0,0.0,3.795,4.0361,4.1016,4.251,4.5663,0.0,0.0,4.9187,0.0,5.1899,4.967,5.1416,5.3487,5.5085,5.7982,6.0322,6.1288,6.2736,6.3813,6.3888,6.3925,6.4222,6.4965,6.5708,6.6116,6.6153,6.6054,6.6091,6.5979,6.6748,6.7193,6.7193,6.6413,6.5893,6.4816,6.3925,6.3108,6.2216,6.1447,6.1102,6.9744,6.897,6.6732,6.3163,5.9177,6.0851,6.1729,6.1948,6.2573,6.2361,6.15,6.0192,5.8226,5.5754,5.3899,5.4155,5.6076,5.6388,5.7532,5.9437,6.1053,6.1523,6.113,6.1751,6.1007,5.9131,5.8032,5.6856,5.5607,5.4973,5.4264,5.3327,5.1531,4.9968,4.8641,4.8757,4.9929,5.2078,5.3327,5.3678,5.3015,5.2781,5.2274,5.1414,5.1219,5.036,4.8876,4.8229,4.6252,4.2831,4.0542,3.7384,3.3064,2.9943,0.0,0.0,0.0,0.0,0.0,0.0,0.0,0.0,0.0,2.3865,2.7058,0.0,2.947,0.0,3.61,3.9799,4.2501,4.4744,0.0,0.0,4.5181,4.5354,4.6534,4.6572,4.7287,4.9265,4.9699,5.0293,5.1556,5.2744,5.3524,5.3562,5.4611,5.6023,5.761,5.9552,6.141,6.2773,6.4333,6.5708,6.6265,6.6933,6.7305,6.7602,6.7268,6.7008,6.7008,6.6488,6.6091,6.6165,6.6748,6.7008,6.6537,6.6685,6.6413,6.5076,6.3665,6.2625,6.2402,6.1781,6.1622,7.164,7.1175,6.9899,6.7206,6.3942,6.4914,6.5316,6.5335,6.5771,6.5722,6.5219,6.3913,6.2186,6.0175,5.9245,5.9401,6.0349,6.04,6.0991,6.2038,6.3024,6.3276,6.289,6.2929,6.2028,6.0232,5.8235,5.6983,5.6436,5.5687,5.5448,5.5722,5.5722,5.5019,5.3613,5.2433,5.2506,5.3835,5.4693,5.4732,5.3874,5.3484,5.2859,5.2,5.1609,5.0594,4.8876,4.8784,4.74,4.4338,4.2096,3.9492,3.6261,3.2856,2.972,0.0,0.0,0.0,0.0,0.0,0.0,0.0,0.0,0.0,0.0,0.0,3.5657,3.8927,4.1745,4.4517,4.7429,4.9892,5.1512,5.1831,5.1475,5.1517,5.2257,5.1371,5.1118,5.23,5.2335,5.2633,5.3571,5.5307,5.6533,5.6645,5.735,5.7945,5.8205,5.9579,6.1176,6.281,6.4445,6.6116,6.7565,6.8196,6.8531,6.8493,6.8122,6.7825,6.7825,6.7491,6.7156,6.7193,6.7268,6.7156,6.6711,6.6302,6.5856,6.5039,6.4156,6.3461,6.3007,6.2885,6.3219,7.2491,7.1717,7.0871,7.0092,6.9429,6.9429,6.9197,6.8772,6.8772,6.8772,6.87,6.707,6.5528,6.4179,6.3835,6.3806,6.3968,6.3744,6.3823,6.4099,6.4226,6.4308,6.4247,6.3632,6.2773,6.1562,5.8436,5.7341,5.8005,5.6439,5.6475,5.7999,5.8155,5.8155,5.7959,5.5798,5.4928,5.5475,5.6216,5.6177,5.5319,5.4537,5.3678,5.2742,5.196,5.0711,4.8915,4.879,4.7649,4.518,4.2789,4.0655,3.8821,3.5669,3.3051,0.0,3.0352,0.0,0.0,0.0,0.0,0.0,0.0,0.0,0.0,3.9627,4.2281,4.5941,4.724,4.9159,5.2274,5.4741,5.6555,5.7368,5.6824,5.6621,5.7107,5.55,5.4488,5.5038,5.5189,5.5246,5.546,5.7969,5.9472,5.8942,5.9441,5.9505,5.8465,5.9207,6.0508,6.2079,6.3813,6.5931,6.7899,6.8493,6.8531,6.8531,6.8493,6.8531,6.8456,6.8456,6.8419,6.8233,6.7713,6.7231,6.7045,6.5745,6.4891,6.4816,6.4919,6.4778,6.4141,6.4587,6.542,7.4535,7.4303,7.3491,7.3071,7.291,7.2916,7.1363,6.881,6.8772,6.8772,6.8733,6.7733,6.7075,6.6611,6.4604,6.4115,6.4752,6.3445,6.3288,6.4104,6.4894,6.4896,6.4366,6.4843,6.3906,6.168,5.9687,5.8787,5.8943,5.7924,5.7921,5.8859,5.9601,5.9562,5.8897,0.0,0.0,0.0,5.6528,5.6177,5.5358,5.5163,5.4304,5.2781,5.2547,0.0,4.8954,4.8796,4.7937,4.6099,4.4844,0.0,0.0,0.0,0.0,0.0,0.0,0.0,0.0,0.0,0.0,0.0,4.5013,4.5278,4.4128,4.6749,4.886,4.9707,5.1746,5.3857,5.5862,5.7665,5.9127,5.994,5.9935,5.985,5.983,5.8634,5.7848,5.7831,5.7099,5.677,5.7361,5.8471,5.938,5.9874,6.0449,6.0815,6.0508,6.0136,6.0322,6.1399,6.3999,6.6413,6.8233,6.8531,6.8531,6.8531,6.8531,6.8531,6.8531,6.8531,6.8233,6.7751,6.7379,6.6822,6.5633,6.5002,6.4865,6.4816,6.5451,6.5717,6.4949,6.6034,6.7382,7.5115,0.0,7.4226,7.3877,0.0,7.3877,7.2916,7.1286,7.0866,7.0208,6.9357,6.8932,6.8042,6.6766,6.5107,6.4154,6.3736,6.2505,6.2504,6.3478,6.4385,6.4856,6.4951,6.5389,6.4687,6.293,6.082,5.9804,5.9765,5.8944,5.8943,5.9763,6.0193,6.0193,5.9724,5.933,5.8695,5.7854,5.7034,5.6606,5.649,5.5748,5.4889,5.3991,0.0,0.0,0.0,0.0,0.0,0.0,0.0,0.0,0.0,0.0,0.0,4.0558,4.0081,4.0389,4.1696,4.3701,4.5975,4.8548,5.1438,5.2246,5.013,5.1938,5.3515,5.4395,5.6357,5.8132,5.9402,6.0666,6.1698,6.2551,6.2666,6.2629,6.2439,6.151,6.063,6.0,5.9027,5.8605,5.9339,5.9947,6.0636,6.13,6.1614,6.1819,6.1707,6.1065,6.1065,6.2736,6.5002,6.7082,6.8196,6.8531,6.8531,6.8531,6.8531,6.8531,6.8531,6.8531,6.8345,6.7936,6.765,6.7077,6.637,6.5858,6.5594,6.5717,6.6676,6.7498,6.7168,6.8099,6.9245,7.5336,7.527,7.4618,7.4347,7.4347,7.4347,7.427,7.4038,0.0,0.0,0.0,7.0059,6.8782,6.6611,6.5494,6.4149,6.2685,6.176,6.1836,6.2852,6.372,6.462,6.5575,6.5741,6.539,6.4453,6.2187,6.1094,6.1055,6.0117,6.0078,6.0781,6.0703,6.0625,6.0586,5.9803,5.9444,5.9499,5.7897,5.7272,5.7739,5.6451,5.5592,5.5319,5.3913,5.2703,5.1648,5.0944,5.0086,4.9071,4.8437,4.797,4.7636,4.6545,4.6159,4.6647,4.6321,4.6778,4.8351,4.9894,5.1548,5.3351,5.6203,5.7132,5.5318,5.6055,5.7242,5.8819,6.0358,6.1633,6.2672,6.3358,6.416,6.5166,6.5282,6.5257,6.5115,6.4238,6.3255,6.229,6.1264,6.0703,6.1166,6.1842,6.2371,6.2748,6.2891,6.2892,6.2747,6.2179,6.2476,6.4556,6.6228,6.7565,6.8271,6.8531,6.8531,6.8531,6.8531,6.8531,6.8531,6.8531,6.8531,6.8456,6.8044,6.7791,6.7726,6.7296,6.6948,6.7083,6.8428,6.9674,6.996,7.055,7.1291,7.6157,7.621,7.6088,7.6049,7.6055,7.6055,7.5624,7.4806,7.3303,7.2065,7.1103,7.033,6.9396,6.8308,6.6031,6.4498,6.3542,6.2082,6.1891,0.0,6.3764,6.47,6.5615,6.6366,6.625,6.539,6.4297,6.375,6.3594,6.2148,6.1797,6.2422,6.1914,6.1523,6.1444,6.0662,6.0618,6.1267,5.9626,5.8451,5.7817,5.7583,5.6763,5.5397,5.5085,5.4187,5.2586,5.243,5.157,5.0045,5.0462,5.0382,4.9532,5.0481,5.1091,5.1101,5.2279,5.3472,5.4395,5.5362,5.6978,5.9319,6.071,6.0364,5.805,5.9209,6.0512,6.1479,6.2435,6.3622,6.5096,6.5474,6.6128,6.7507,6.7814,6.7826,6.7619,6.6814,6.5879,6.4973,6.4106,6.3101,6.2725,6.3537,6.3952,6.3539,6.4094,6.4692,6.4465,6.3776,6.4036,6.5559,6.6673,6.7565,6.8493,6.8531,6.8642,6.8531,6.8568,6.8605,6.8605,6.8605,6.8605,6.8531,6.8626,6.867,6.8737,6.8724,6.8997,6.961,7.0658,7.1605,7.2257,7.3123,7.3695,7.6344,7.6397,7.6403,7.6403,7.6403,7.6403,7.5895,7.5076,7.4303,7.3496,7.2723,7.2303,7.1137,6.9357,6.7771,6.6119,6.4429,6.3231,6.3239,6.4182,6.5125,6.6065,6.6982,6.785,6.7812,6.6992,6.6601,6.5937,6.5,6.418,6.3789,6.3672,6.2812,6.2422,6.2343,6.1562,6.1287,6.1632,5.9986,5.9117,5.9184,5.8753,5.8128,5.7387,5.6919,5.6294,5.5514,5.5044,5.4225,5.2975,5.3662,5.3614,5.2675,5.3658,5.4373,5.4647,5.5395,5.6247,5.7049,5.8319,5.9979,6.1973,6.2512,6.2704,6.2474,6.2666,6.3205,6.4095,6.4897,6.5859,6.7128,6.7244,6.7583,6.8314,6.8391,6.8378,6.832,6.8017,6.7567,6.7034,6.5893,6.5064,6.4996,6.5054,6.5141,6.49,6.5562,6.6104,6.6658,6.65,6.6488,6.7342,6.8419,6.9298,6.9719,6.9794,6.9794,6.9794,6.9422,6.9199,6.9162,6.9162,6.9162,6.9211,6.963,7.0107,7.031,7.0503,7.0846,7.1229,7.2047,7.2838,7.3387,7.4134,7.4564,7.6307,7.638,7.638,7.6392,7.6403,7.6403,7.6011,7.5386,7.5392,7.5044,7.4463,7.4077,7.2568,7.033,6.9435,6.7817,6.5768,6.4752,6.4913,6.5909,6.6668,6.75,6.8384,6.91,6.9062,6.8515,6.8281,6.75,6.6289,6.5781,6.5156,6.4297,6.3633,6.3281,6.3281,6.2617,6.2304,6.2185,6.0773,6.0137,6.0358,5.9732,5.9301,5.9064,5.8441,5.8089,5.8089,5.7503,5.6761,5.598,5.6588,5.6534,5.5589,5.6327,5.7159,5.778,5.8055,5.8517,5.9429,6.1012,6.2512,6.3775,6.4237,6.5006,6.6205,6.5853,6.5743,6.6397,6.6974,6.7705,6.8468,6.866,6.8737,6.8891,6.9161,6.9391,6.9276,6.943,6.9353,6.8975,6.7821,6.7211,6.7131,6.667,6.6437,6.6771,6.6889,6.7401,6.8383,6.8897,6.9269,6.9618,7.0326,7.0722,7.0895,7.0821,7.0821,7.0895,7.0388,7.0054,6.9979,6.9979,7.0128,7.0301,7.0982,7.1609,7.1998,7.2301,7.2537,7.2826,7.3294,7.3693,7.388,7.4368,7.4884,7.6192,7.6301,7.6313,7.635,7.6397,7.6403,7.6326,7.6249,7.6287,7.6249,7.5933,7.4579,7.2955,7.1219,7.0368,6.9079,6.746,6.6509,6.671,6.7639,6.7798,6.8377,6.9275,6.9412,6.9375,6.9219,6.8633,6.8203,6.7734,6.6367,6.5195,6.4375,6.4219,6.418,6.418,6.4062,6.4023,6.4021,6.3122,6.1907,6.0487,6.0329,5.9895,5.9142,5.9064,5.8986,5.9142,5.8908,5.8479,5.7735,5.8381,5.8289,5.7496,5.8612,5.9741,6.0419,6.1133,6.1979,6.2814,6.4436,6.5404,6.5743,6.6968,6.7853,6.8122,6.8084,6.8045,6.8199,6.8237,6.8667,6.9468,6.959,6.986,7.0514,7.1206,7.1867,7.1822,7.2552,7.243,7.0821,7.036,6.9878,6.8618,6.8481,6.867,6.8338,6.8329,6.8542,6.9316,7.05,7.1524,7.1958,7.1749,7.1082,7.1094,7.0908,7.1143,7.1056,7.0871,7.0796,7.0796,7.0834,7.0982,7.1466,7.2162,7.2741,7.3426,7.4068,7.4185,7.4155,7.4406,7.4702,7.476,7.4846,7.4884,7.6675,7.6301,7.6344,7.638,7.6397,7.6403,7.6403,7.6403,7.6403,7.6403,7.6326,7.5662,7.4695,7.3535,7.3148,7.2386,7.1318,7.0953,7.0806,7.0872,7.0895,7.0918,7.0865,7.0934,7.0703,7.0195,6.9844,6.914,6.8125,6.6953,6.6172,6.582,6.5351,6.5078,6.5039,6.457,6.4297,6.4296,6.3945,6.3162,6.2018,6.1427,6.1263,6.1409,6.1407,6.1642,6.211,6.2142,6.1703,6.0947,6.1575,6.146,6.041,6.1426,6.2104,6.2305,6.2589,6.3397,6.4743,6.5513,6.632,6.7282,6.8007,6.8622,6.9122,6.9161,6.936,6.9744,6.943,6.9513,7.0283,7.0398,7.0744,7.1521,7.2021,7.2406,7.2937,7.3276,7.3161,7.2507,7.1975,7.1238,7.0088,6.9596,6.9528,6.9591,6.9856,7.0242,7.0917,7.2037,7.3019,7.3657,7.3412,7.2981,7.2633,7.2522,7.2471,7.2321,7.1961,7.1663,7.1676,7.1739,7.1938,7.231,7.2907,7.3484,7.3992,7.435,7.4584,7.4802,7.4884,7.4884,7.4884,7.4884,7.4884,7.7028,7.6384,7.6374,7.6403,7.6403,7.6403,7.6403,7.6403,7.6403,7.6403,7.6403,7.6403,7.6049,7.5463,7.5231,7.4651,7.396,7.3877,7.3537,7.2957,7.2919,7.2532,7.195,7.1953,7.168,7.1094,7.0781,6.9805,6.8281,6.7578,6.7148,6.6836,6.625,6.5937,6.5898,6.5312,6.5039,6.5,6.4805,6.4335,6.3663,6.2876,6.2594,6.2972,6.3243,6.3556,6.3906,6.4123,6.3787,6.2898,6.3545,6.3602,6.2805,6.3255,6.3571,6.3723,6.4122,6.4852,6.6167,6.6673,6.7436,6.8584,6.893,6.9468,7.0167,7.036,7.0744,7.143,7.1091,7.1014,7.1129,7.1475,7.1898,7.2476,7.2706,7.3168,7.3738,7.3969,7.4123,7.3815,7.3283,7.2437,7.1468,7.0714,7.0392,7.0408,7.0831,7.1438,7.2024,7.2719,7.3564,7.4419,7.4614,7.4423,7.3981,7.3628,7.3641,7.3363,7.2791,7.2531,7.2544,7.2645,7.2758,7.3069,7.3688,7.4064,7.4294,7.4449,7.4606,7.4812,7.4884,7.4884,7.4884,7.5036,7.5225,7.6982,7.6417,7.6374,7.6442,7.6403,7.6403,7.6403,7.6403,7.6403,7.6403,7.6403,7.6403,7.6365,7.6249,7.5502,7.469,7.3999,7.4038,7.3692,7.3117,7.3036,7.261,7.1912,7.1992,7.1992,7.1914,7.1289,7.0,6.8398,6.8164,6.7695,6.6992,6.6914,6.6836,6.6836,6.668,6.6719,6.6523,6.5898,6.5507,6.5344,6.4561,6.3811,6.3285,6.3829,6.3907,6.3396,6.3837,6.3799,6.2776,6.3596,6.3833,6.3613,6.357,6.3906,6.4608,6.6013,6.6904,6.725,6.8475,6.9475,6.9744,7.0321,7.1129,7.186,7.1989,7.2336,7.3238,7.3144,7.2913,7.2412,7.2752,7.3206,7.343,7.4084,7.4469,7.4623,7.5245,7.5399,7.4861,7.4469,7.3783,7.2399,7.2073,7.154,7.106,7.0739,7.1035,7.1879,7.2571,7.3335,7.4103,7.4607,7.4833,7.4169,7.3932,7.374,7.3452,7.3274,7.3237,7.335,7.3451,7.3541,7.369,7.3995,7.4229,7.4443,7.4606,7.4712,7.4843,7.4884,7.4884,7.4884,7.5566,7.5794,7.8669,7.7992,7.7436,7.7216,7.7171,7.6635,7.6403,7.6403,7.6403,7.6403,7.6403,7.6403,7.6403,7.6365,7.6088,7.5779,7.5508,7.5508,7.5131,7.455,7.4554,7.4209,7.3628,7.3633,7.332,7.2851,7.25,7.1484,6.9883,6.9258,6.8828,6.8515,6.8008,6.7734,6.7656,6.7187,6.6914,6.6875,6.6562,6.6171,6.5739,6.5816,6.5537,6.4739,6.4965,6.4999,6.4687,6.5437,6.5398,6.4449,6.5148,6.5493,6.5267,6.5114,6.537,6.6141,6.675,6.759,6.8629,6.9321,7.0167,7.1206,7.1559,7.2098,7.2829,7.3094,7.3237,7.3591,7.4139,7.4146,7.3899,7.3696,7.3699,7.4199,7.4546,7.4969,7.5438,7.5822,7.5861,7.5515,7.5091,7.4399,7.3853,7.3332,7.2888,7.2551,7.2445,7.2516,7.277,7.3146,7.3592,7.4274,7.4607,7.466,7.4544,7.4184,7.3922,7.3603,7.3385,7.3348,7.3411,7.3578,7.3678,7.385,7.4151,7.4391,7.4574,7.4701,7.4843,7.4854,7.4884,7.5074,7.4884,7.5832,7.6135,7.9404,7.8906,7.8061,7.7719,7.7597,7.679,7.6403,7.6403,7.6403,7.6403,7.6403,7.6403,7.6558,7.679,7.6823,7.7007,7.7157,7.6731,7.6113,7.549,7.5485,7.5166,7.4611,7.4567,7.414,7.3359,7.2969,7.2109,7.0781,7.0117,6.9687,6.9414,6.8867,6.8594,6.8437,6.7773,6.7305,6.7305,6.7031,6.6562,6.617,6.6872,6.7063,6.6581,6.6689,6.6253,6.5312,6.6218,6.6373,6.5652,6.6315,6.6924,6.6961,6.6791,6.6936,6.7475,6.7782,6.8398,6.9552,7.0206,7.1014,7.2091,7.2476,7.2983,7.3819,7.3983,7.4094,7.4474,7.4893,7.5291,7.5161,7.4707,7.4581,7.5022,7.5123,7.5361,7.5899,7.5976,7.5976,7.5899,7.5515,7.5091,7.47,7.4199,7.3815,7.3584,7.3507,7.3507,7.3507,7.3776,7.4046,7.457,7.485,7.5085,7.5218,7.5151,7.4289,7.384,7.3574,7.3511,7.3576,7.3753,7.3863,7.4031,7.424,7.4513,7.4697,7.4823,7.4912,7.4932,7.5263,7.5529,7.5794,7.6335,7.6762,7.9105,7.9028,7.8105,7.7906,7.7835,7.7022,7.6519,7.6597,7.6519,7.6558,7.6558,7.6442,7.6829,7.7481,7.7519,7.8086,7.8496,7.7475,7.65,7.585,7.5707,7.5358,7.4781,7.4883,7.4453,7.3555,7.2539,7.168,7.0976,7.0781,7.0351,6.9687,6.957,6.9492,6.9375,6.8633,6.8203,6.8086,6.75,6.7031,6.699,6.7771,6.808,6.8028,6.8689,6.7709,6.4769,6.6104,6.6611,6.5818,6.6912,6.7984,6.8342,6.8269,6.8327,6.8488,6.9174,6.9597,6.995,7.1226,7.2003,7.2587,7.3067,7.3871,7.4658,7.4832,7.5136,7.5761,7.6096,7.6205,7.6192,7.6068,7.5961,7.5998,7.5945,7.6053,7.6092,7.6053,7.6053,7.6207,7.6169,7.5668,7.5053,7.4938,7.4745,7.4199,7.3892,7.3853,7.3969,7.4392,7.4668,7.487,7.5349,7.5838,7.6026,7.6096,7.5043,7.4138,7.3939,7.3776,7.3914,7.4026,7.408,7.4229,7.4438,7.4691,7.4781,7.4932,7.5115,7.5238,7.5597,7.6083,7.6559,7.7072,7.7849,8.0724,8.0608,7.9801,7.9415,7.9299,7.8525,7.8177,7.8099,7.7564,7.7293,7.721,7.6674,7.6906,7.7564,7.7719,7.8275,7.9078,7.8599,7.8085,7.7371,7.6813,7.6481,7.6314,7.6327,7.5937,7.4961,7.3594,7.2773,7.2383,7.1875,7.1406,7.1133,7.0586,7.0351,7.0234,6.9492,6.9062,6.9062,6.8789,6.8398,6.7929,6.8594,6.8748,6.8314,6.8977,6.8545,6.7092,6.7999,6.8082,6.7196,6.8163,6.8742,6.8723,6.86,6.882,6.9392,6.9662,7.0433,7.1474,7.2052,7.29,7.3787,7.4326,7.4873,7.5625,7.5826,7.6006,7.6385,7.6809,7.7214,7.7164,7.7138,7.688,7.6153,7.6551,7.6868,7.6945,7.733,7.7669,7.7715,7.7715,7.7561,7.7246,7.6899,7.6284,7.6015,7.5553,7.5245,7.5284,7.5399,7.5592,7.5654,7.6225,7.6566,7.6685,7.7008,7.6748,7.5837,7.531,7.4783,7.4707,7.4676,7.461,7.4735,7.4922,7.5026,7.5077,7.5231,7.5509,7.5786,7.6282,7.6758,7.7214,7.7908,7.8775,8.1459,8.135,8.0557,8.0188,8.0105,7.9337,7.9028,7.8873,7.8061,7.7719,7.7525,7.679,7.71,7.7983,7.8177,7.8956,8.0068,7.991,7.9598,7.9055,7.7951,7.7401,7.7141,7.6796,7.6484,7.5703,7.414,7.332,7.3242,7.2461,7.1992,7.1875,7.1445,7.1172,7.1094,7.0351,6.9883,6.9922,6.957,6.914,6.8906,6.9453,6.9648,6.9334,6.9958,7.0073,6.9638,7.0089,6.98,6.8959,6.9499,6.9957,6.9827,6.9971,7.0269,7.0732,7.1195,7.1813,7.2777,7.3189,7.3703,7.4739,7.5472,7.6102,7.6662,7.6977,7.7273,7.7426,7.7843,7.8165,7.8122,7.8091,7.7769,7.7227,7.72,7.7475,7.7722,7.8176,7.8446,7.8407,7.8407,7.8484,7.833,7.8176,7.7746,7.763,7.7284,7.6938,7.6861,7.6669,7.6553,7.65,7.6732,7.7029,7.7254,7.7735,7.8351,7.7746,7.7084,7.6424,7.6022,7.5998,7.5952,7.6172,7.6398,7.6435,7.6502,7.6388,7.6532,7.6808,7.716,7.7826,7.8492,7.9094,7.9761,8.1394,8.1291,8.0583,8.0343,8.026,7.9569,7.9337,7.9105,7.8332,7.8022,7.7796,7.7177,7.7564,7.8802,7.9097,8.0008,8.1406,8.1031,8.0685,8.0291,7.9198,7.8041,7.7224,7.6562,7.625,7.5859,7.4414,7.3633,7.3711,7.2851,7.2148,7.2344,7.2344,7.2187,7.2109,7.1328,7.0937,7.0898,7.0117,6.9687,6.957,7.0351,7.0664,7.0584,7.1326,7.1793,7.1829,7.1982,7.1355,7.0018,7.0795,7.1368,7.1607,7.2104,7.2178,7.2377,7.3214,7.3491,7.387,7.4307,7.4925,7.5356,7.6514,7.7595,7.7692,7.8207,7.858,7.8662,7.8944,7.906,7.9048,7.9017,7.8889,7.8825,7.8234,7.8135,7.8569,7.8754,7.8946,7.8869,7.8677,7.8677,7.8869,7.8754,7.8592,7.8554,7.8484,7.8407,7.8138,7.7753,7.7445,7.7377,7.7378,7.7669,7.801,7.8947,7.9514,7.9398,7.877,7.816,7.7402,7.7245,7.7094,7.7378,7.7624,7.7693,7.7645,7.7387,7.7548,7.7935,7.8462,7.9203,7.9727,8.0192,8.0413,8.1394,8.1362,8.124,8.1149,8.1149,8.0917,8.0801,8.0724,7.9879,7.9415,7.9337,7.868,7.8826,7.9873,8.0008,8.0728,8.1578,8.1727,8.1353,8.0825,7.9877,7.8554,7.7421,7.6992,7.6836,7.664,7.5625,7.5195,7.5156,7.4219,7.3828,7.3906,7.375,7.3867,7.3789,7.2969,7.2656,7.25,7.1719,7.0898,7.0547,7.1172,7.1289,7.082,7.1562,7.2305,7.293,7.3593,7.3118,7.1528,7.1465,7.1955,7.2473,7.2636,7.2936,7.3439,7.3754,7.4179,7.4682,7.5024,7.5648,7.6814,7.742,7.7947,7.8572,7.8849,7.8971,7.9105,7.9486,7.9873,7.9873,7.986,7.9804,7.9705,7.9345,7.9451,8.0077,8.04,8.04,8.0439,8.0323,8.0285,8.0131,7.9785,7.9477,7.9438,7.94,7.9285,7.8984,7.89,7.8631,7.813,7.8069,7.8408,7.8969,8.0,8.0631,8.0793,8.0398,7.995,7.911,7.8437,7.8186,7.802,7.836,7.8509,7.8241,7.7981,7.8433,7.9084,7.9582,8.0146,8.0469,8.0868,8.0991,8.1353,8.136,8.1459,8.1497,8.1497,8.1497,8.1497,8.1343,8.0608,8.0188,8.0034,7.9337,7.9507,8.029,8.0376,8.0949,8.1853,8.206,8.1895,8.1424,8.0232,7.8789,7.7539,7.7226,7.7226,7.7109,7.6328,7.5898,7.5703,7.5039,7.4648,7.4531,7.457,7.457,7.4453,7.375,7.332,7.3125,7.2461,7.1719,7.1367,7.1719,7.1719,7.1484,7.2109,7.2969,7.3789,7.4336,7.4062,7.3249,7.2892,7.2968,7.3387,7.3617,7.3889,7.4419,7.5044,7.5734,7.6127,7.6508,7.721,7.8099,7.8486,7.895,7.9486,7.9801,8.0066,8.0188,8.053,8.0685,8.0762,8.0724,8.066,8.0586,8.0516,8.0675,8.107,8.1016,8.1093,8.1093,8.1093,8.1093,8.1093,8.0631,8.0439,8.0323,8.0362,8.0092,7.9823,7.9862,7.9669,7.9131,7.89,7.9269,7.9654,8.0523,8.123,8.146,8.1557,8.1196,8.0682,7.9808,7.9623,7.9431,7.9383,7.9289,7.919,7.9214,7.9722,8.0308,8.0682,8.1049,8.1466,8.1846,8.1892,8.1284,8.1298,8.144,8.1497,8.1497,8.1497,8.1497,8.1343,8.0724,8.0427,8.0284,7.9626,7.9997,8.0531,8.0775,8.1135,8.2011,8.2111,8.2077,8.1553,8.0547,7.914,7.789,7.7344,7.7226,7.7109,7.6367,7.6172,7.6015,7.5351,7.5,7.5117,7.5078,7.4922,7.5,7.418,7.3672,7.3633,7.3008,7.2578,7.2461,7.2539,7.2539,7.2617,7.3281,7.3984,7.4609,7.4922,7.492,7.4872,7.4433,7.417,7.4304,7.4872,7.5216,7.5585,7.663,7.7442,7.7829,7.8293,7.8912,7.9183,7.9724,8.026,8.0414,8.0878,8.1226,8.1188,8.1497,8.1459,8.1652,8.1691,8.182,8.1744,8.1631,8.1521,8.137,8.1285,8.1208,8.1246,8.1285,8.1362,8.1362,8.1362,8.14,8.167,8.1593,8.1362,8.1016,8.0785,8.0516,8.0008,7.9969,8.0123,8.0516,8.0993,8.1561,8.1957,8.2203,8.2069,8.1953,8.1417,8.129,8.1063,8.049,8.0414,8.0651,8.0873,8.1066,8.1239,8.1424,8.2084,8.2716,8.303,8.3203,8.1284,8.1298,8.144,8.1497,8.1497,8.1497,8.1497,8.1497,8.1304,8.1141,8.1234,8.1131,8.1245,8.1541,8.1547,8.185,8.213,8.2152,8.1944,8.121,8.1015,8.0156,7.8984,7.7969,7.7305,7.7187,7.707,7.6914,7.6797,7.664,7.664,7.6601,7.6523,7.664,7.6445,7.5586,7.5312,7.5195,7.4414,7.3906,7.3867,7.3867,7.3906,7.4023,7.4765,7.5312,7.5703,7.6289,7.6601,7.6232,7.5259,7.4781,7.5191,7.5304,7.5867,7.6862,7.7403,7.8067,7.8602,7.8989,7.9299,7.9911,8.0143,8.0492,8.1188,8.1343,8.1497,8.1497,8.1536,8.1768,8.2355,8.3128,8.3211,8.307,8.3097,8.3077,8.2948,8.2447,8.2093,8.217,8.2593,8.3024,8.2986,8.2862,8.2909,8.3024,8.287,8.2708,8.2285,8.1823,8.1516,8.1131,8.1285,8.1439,8.157,8.1901,8.2154,8.2441,8.2616,8.2928,8.2774,8.2548,8.2194,8.1768,8.1269,8.1424,8.1862,8.1596,8.1645,8.1903,8.2284,8.2883,8.3438,8.394,8.4443,8.1284,8.1305,8.144,8.1497,8.1497,8.1497,8.1497,8.1497,8.1497,8.1559,8.1613,8.1695,8.1794,8.1948,8.2026,8.2103,8.2226,8.2254,8.1834,8.1172,8.0937,8.0508,7.9765,7.8867,7.8242,7.789,7.7812,7.7656,7.7383,7.7578,7.7773,7.7812,7.7812,7.7773,7.7578,7.664,7.5898,7.5664,7.5039,7.457,7.457,7.4609,7.4883,7.5156,7.5664,7.6054,7.6523,7.6875,7.7305,7.7304,7.6629,7.6171,7.6626,7.6821,7.7421,7.8099,7.8718,7.8989,7.9492,7.995,8.0376,8.0762,8.0801,8.1033,8.1381,8.1497,8.1497,8.1497,8.1575,8.1852,8.2748,8.356,8.3914,8.3842,8.383,8.3771,8.3564,8.3178,8.2909,8.2978,8.3247,8.3447,8.3563,8.3832,8.3678,8.3486,8.3409,8.3255,8.3216,8.2793,8.2716,8.2562,8.2708,8.2793,8.2809,8.2856,8.2862,8.2982,8.2989,8.3334,8.3528,8.3193,8.2851,8.2574,8.238,8.2715,8.2986,8.2643,8.2514,8.3038,8.3463,8.3747,8.425,8.4946,8.541,8.167,8.1684,8.1833,8.1884,8.1884,8.1961,8.2013,8.198,8.1754,8.1939,8.1861,8.1815,8.1886,8.2014,8.2111,8.2198,8.2296,8.2265,8.1875,8.1406,8.1367,8.0976,8.039,8.0156,7.9687,7.8945,7.8515,7.8008,7.7617,7.8008,7.832,7.8476,7.8672,7.8672,7.8281,7.7383,7.6797,7.6758,7.6289,7.5859,7.5781,7.5781,7.6133,7.6562,7.6797,7.7148,7.7575,7.7766,7.7907,7.8433,7.8441,7.843,7.8487,7.8654,7.9105,7.9144,7.9685,8.0066,8.0414,8.0956,8.1381,8.1497,8.1497,8.1575,8.1691,8.1845,8.1961,8.2116,8.231,8.2696,8.3173,8.4211,8.4493,8.4397,8.4269,8.4157,8.4049,8.3994,8.4024,8.3824,8.417,8.4439,8.4362,8.4409,8.414,8.3947,8.3947,8.3909,8.3909,8.3947,8.3947,8.4055,8.4209,8.3939,8.384,8.374,8.3757,8.3784,8.367,8.4009,8.4424,8.4553,8.4366,8.3863,8.3773,8.3895,8.3857,8.356,8.3637,8.4211,8.4443,8.4598,8.5217,8.6029,8.6223,8.3413,8.3382,8.3572,8.367,8.367,8.367,8.3585,8.3602,8.2875,8.2764,8.2793,8.2259,8.2011,8.2136,8.2231,8.2296,8.2304,8.2265,8.2187,8.1992,8.1992,8.1758,8.164,8.1523,8.1211,8.039,7.9375,7.8281,7.7734,7.8008,7.875,7.875,7.9219,7.9492,7.9453,7.914,7.8711,7.8555,7.8359,7.8281,7.8203,7.8242,7.8359,7.8633,7.8633,7.8828,7.9018,7.9118,7.92,7.9339,7.9753,7.9934,7.9845,7.9449,7.9504,7.9918,8.0182,8.0569,8.1072,8.1343,8.1497,8.1497,8.1575,8.1968,8.2316,8.2593,8.2819,8.3438,8.4018,8.4637,8.4869,8.541,8.5989,8.5991,8.5803,8.5729,8.5637,8.5496,8.5217,8.4786,8.517,8.5478,8.5247,8.5132,8.5093,8.5016,8.5055,8.5093,8.5132,8.5247,8.5401,8.5555,8.5747,8.5286,8.4824,8.4686,8.4596,8.4758,8.4768,8.5071,8.5512,8.6055,8.5952,8.5101,8.4559,8.4405,8.4327,8.4366,8.4443,8.4753,8.5024,8.5333,8.5759,8.6223,8.641,8.3792,8.3813,8.3998,8.4095,8.4095,8.4095,8.4158,8.4061,8.333,8.3081,8.2967,8.2424,8.2109,8.2231,8.2295,8.2304,8.2344,8.2304,8.2304,8.2304,8.2304,8.2304,8.2304,8.2304,8.1758,8.1015,8.0117,7.9297,7.8672,7.9414,7.9648,7.9883,8.0234,8.0351,8.0234,7.9844,7.9805,7.9765,7.9726,7.9492,7.918,7.914,7.9297,7.9648,7.9765,7.9726,7.9678,7.9572,7.9708,8.0045,8.0301,8.0621,8.0744,8.0698,8.0453,8.0801,8.084,8.0994,8.142,8.1497,8.1497,8.1575,8.189,8.2316,8.2786,8.3173,8.3715,8.4179,8.4792,8.5294,8.5256,8.61,8.6453,8.6521,8.6464,8.6353,8.6262,8.6191,8.5873,8.5525,8.567,8.5863,8.594,8.5901,8.6017,8.6094,8.6094,8.6094,8.6094,8.6094,8.6094,8.6132,8.6132,8.5871,8.5379,8.518,8.5113,8.5305,8.5425,8.572,8.6124,8.6442,8.6377,8.5875,8.5449,8.5101,8.541,8.5643,8.5488,8.5294,8.5681,8.6029,8.61,8.6293,8.6487,8.4308,8.4375,8.454,8.4649,8.4662,8.4642,8.4764,8.4603,8.397,8.3797,8.3699,8.3091,8.2784,8.2842,8.289,8.289,8.2773,8.2773,8.2617,8.2578,8.2383,8.2304,8.2304,8.2226,8.1953,8.1523,8.125,8.0703,7.9805,8.0351,8.0859,8.0898,8.1015,8.125,8.1133,8.0742,8.0273,8.0156,7.9961,7.957,7.914,7.9023,7.9375,8.0117,8.0234,8.0311,8.0418,8.0289,8.0443,8.0709,8.0844,8.0932,8.1478,8.1683,8.1774,8.1736,8.1613,8.1575,8.1768,8.1845,8.2,8.231,8.2703,8.3057,8.3592,8.425,8.4714,8.4753,8.514,8.5643,8.5797,8.6177,8.6505,8.6542,8.6507,8.6457,8.6308,8.6223,8.6167,8.6019,8.6102,8.6094,8.6094,8.6094,8.6094,8.6094,8.6094,8.6094,8.6094,8.6094,8.6132,8.6209,8.6209,8.611,8.5796,8.549,8.5445,8.548,8.546,8.5587,8.6099,8.6564,8.6448,8.6416,8.63,8.6061,8.6487,8.6642,8.6223,8.6107,8.6448,8.6564,8.6448,8.641,8.6564,8.6119,8.6198,8.6396,8.6504,8.6522,8.6459,8.6579,8.6562,8.575,8.5606,8.5418,8.4811,8.4365,8.4411,8.4452,8.4492,8.4297,8.3789,8.3359,8.3203,8.2734,8.2422,8.2304,8.2304,8.2226,8.1953,8.2031,8.1172,8.0469,8.0781,8.1054,8.1211,8.1719,8.2109,8.1953,8.1719,8.1992,8.1797,8.1172,8.0742,8.0664,8.0586,8.1015,8.1601,8.1797,8.1756,8.1624,8.144,8.1513,8.1563,8.1452,8.1392,8.1626,8.2245,8.2548,8.2432,8.2084,8.1807,8.2471,8.2664,8.2896,8.3322,8.3824,8.4327,8.4869,8.5526,8.6029,8.63,8.6377,8.6332,8.6293,8.6487,8.6596,8.6576,8.6542,8.6472,8.6376,8.6269,8.6215,8.6143,8.611,8.611,8.611,8.6102,8.6094,8.6094,8.6094,8.6094,8.6102,8.611,8.6118,8.6203,8.639,8.6337,8.6523,8.6177,8.6238,8.6071,8.6121,8.6039,8.6692,8.7267,8.6951,8.688,8.6912,8.6951,8.7151,8.7112,8.6758,8.6603,8.6603,8.6603,8.6603,8.6603,8.6642,8.6451,8.6505,8.6704,8.6884,8.6967,8.696,8.7035,8.6994,8.6314,8.5979,8.5903,8.5226,8.4881,8.5,8.4883,8.4883,8.4804,8.4531,8.4023,8.3711,8.3203,8.2812,8.2383,8.2304,8.2304,8.2422,8.2265,8.207,8.1445,8.1484,8.1758,8.1758,8.207,8.2265,8.2304,8.2304,8.2265,8.2031,8.1523,8.1289,8.1484,8.1328,8.1406,8.2265,8.2344,8.2383,8.2324,8.2045,8.1922,8.1843,8.1624,8.1504,8.1691,8.2238,8.2786,8.2786,8.2973,8.3167,8.3483,8.3521,8.3831,8.4134,8.4559,8.514,8.5875,8.6332,8.6603,8.6564,8.6603,8.6603,8.6603,8.6603,8.6603,8.659,8.6647,8.6609,8.6537,8.6369,8.6308,8.6191,8.622,8.6428,8.6552,8.6489,8.6374,8.6151,8.6126,8.614,8.6165,8.6151,8.6167,8.6183,8.6415,8.6616,8.6963,8.704,8.754,8.7582,8.787,8.7859,8.7989,8.8157,8.7847,8.7886,8.8234,8.8196,8.7925,8.7422,8.6996,8.6796,8.6603,8.6835,8.699,8.6719,8.6719,8.6584,8.6663,8.6792,8.6955,8.7082,8.7075,8.713,8.7176,8.6664,8.6379,8.628,8.5859,8.5625,8.5586,8.5664,8.5742,8.5586,8.5351,8.4883,8.4375,8.3945,8.3594,8.332,8.3086,8.3047,8.2929,8.3203,8.3047,8.3047,8.2969,8.2851,8.2344,8.2265,8.2304,8.2304,8.2265,8.2226,8.1797,8.1289,8.1328,8.164,8.1562,8.1914,8.2461,8.2812,8.2967,8.2913,8.2784,8.2659,8.2586,8.2477,8.2432,8.2503,8.3167,8.3631,8.3824,8.425,8.4714,8.4714,8.4637,8.4559,8.483,8.514,8.5875,8.6371,8.6603,8.6603,8.6603,8.6603,8.6603,8.6603,8.6603,8.6603,8.6719,8.6828,8.6785,8.6829,8.7031,8.7264,8.7403,8.741,8.7241,8.7264,8.7062,8.6738,8.6284,8.6183,8.6289,8.6428,8.6584,8.6685,8.6863,8.7241,8.741,8.7424,8.7809,8.8393,8.8893,8.9174,8.9201,8.9008,8.8937,8.8737,8.9008,8.9317,8.9008,8.8544,8.7847,8.7267,8.7577,8.777,8.7538,8.7461,8.719,8.7183,8.6736,8.6951,8.7043,8.7157,8.7255,8.7304,8.7331,8.7388,8.7285,8.7216,8.7184,8.7226,8.707,8.7148,8.6992,8.707,8.7187,8.6445,8.5976,8.5625,8.5234,8.4726,8.4414,8.4375,8.4492,8.4492,8.4336,8.4375,8.457,8.4258,8.3554,8.2539,8.2773,8.25,8.25,8.2734,8.2383,8.2031,8.164,8.1484,8.1836,8.207,8.2734,8.3476,8.4219,8.4725,8.4673,8.422,8.3966,8.3878,8.3635,8.356,8.3592,8.4289,8.4637,8.4869,8.5526,8.5913,8.5913,8.5604,8.5681,8.61,8.6371,8.6371,8.6564,8.6642,8.6642,8.6796,8.699,8.6958,8.6835,8.6642,8.7028,8.7228,8.757,8.7677,8.7852,8.8224,8.8412,8.8637,8.8514,8.8181,8.8165,8.7966,8.765,8.7195,8.7033,8.7109,8.7502,8.7688,8.7719,8.7935,8.8344,8.8351,8.8031,8.8453,8.9209,8.9578,8.9845,8.9704,8.9472,8.9472,8.9782,8.9704,8.9898,8.9549,8.9317,8.9124,8.9008,8.9015,8.8899,8.8428,8.835,8.8312,8.8428,8.6972,8.7124,8.7254,8.7329,8.7382,8.7407,8.7415,8.7457,8.7458,8.7459,8.7461,8.75,8.75,8.75,8.75,8.75,8.7461,8.7187,8.6719,8.6289,8.582,8.539,8.5156,8.5,8.4883,8.4961,8.4961,8.4922,8.4844,8.5078,8.4687,8.4023,8.3906,8.3906,8.3906,8.3711,8.3515,8.3437,8.332,8.3359,8.3476,8.3633,8.4062,8.4413,8.4569,8.4832,8.4753,8.461,8.445,8.4378,8.4299,8.4262,8.4366,8.5024,8.5333,8.5449,8.6177,8.6526,8.6603,8.6255,8.6293,8.641,8.6603,8.668,8.6835,8.7067,8.7338,8.7531,8.7847,8.7963,8.8157,8.8196,8.835,8.8312,8.8375,8.8541,8.8791,8.9156,8.932,8.9385,8.9114,8.8782,8.8849,8.8956,8.8564,8.8173,8.8012,8.7966,8.8398,8.873,8.8799,8.8721,8.9013,8.939,8.9093,8.9501,9.0056,9.0302,9.0516,9.0439,9.0323,9.0749,9.0942,9.0749,9.0594,9.0555,9.0594,9.071,9.0478,8.9866,8.944,8.9092,8.9124,8.9356,8.9588,8.7094,8.7223,8.7363,8.7414,8.7414,8.746,8.75,8.75,8.75,8.75,8.75,8.75,8.75,8.75,8.75,8.75,8.75,8.7383,8.7109,8.6797,8.6523,8.6211,8.5859,8.5742,8.5898,8.5664,8.5664,8.5781,8.5859,8.5703,8.5703,8.5742,8.5625,8.5469,8.4804,8.4922,8.4922,8.4883,8.4883,8.4883,8.4844,8.5117,8.5234,8.5347,8.5577,8.571,8.5643,8.552,8.5335,8.5232,8.5062,8.4933,8.5062,8.5294,8.5604,8.5875,8.6177,8.6603,8.6642,8.6603,8.6719,8.7028,8.7067,8.719,8.7461,8.7925,8.8234,8.8312,8.8814,8.9247,8.9247,8.9008,8.8931,8.8814,8.9317,8.9529,8.9662,8.9919,9.0006,9.0093,8.9914,9.0013,9.0059,9.0158,8.9465,8.9144,8.903,8.9015,8.9323,8.9616,8.9808,8.969,8.961,8.9947,9.0239,9.0309,9.0457,9.0967,9.1174,9.1329,9.1445,9.1793,9.1793,9.1367,9.1329,9.1638,9.1561,9.1329,9.0865,9.0291,9.0091,9.0052,9.0246,9.0516,9.0633,8.7163,8.7316,8.7458,8.746,8.7419,8.746,8.75,8.75,8.75,8.75,8.75,8.75,8.75,8.75,8.75,8.75,8.75,8.75,8.7383,8.7304,8.7226,8.7304,8.7226,8.7109,8.6875,8.7344,8.7148,8.6992,8.7187,8.6992,8.7109,8.7148,8.6875,8.6484,8.5078,8.4961,8.4961,8.4961,8.5078,8.5195,8.5351,8.5859,8.6094,8.6238,8.6531,8.6687,8.6551,8.6401,8.6243,8.6206,8.6138,8.6113,8.6216,8.6255,8.641,8.6487,8.661,8.6726,8.6687,8.668,8.7144,8.7647,8.7686,8.8079,8.8776,8.9124,8.9163,8.9163,8.9472,8.944,8.9363,8.9356,8.9511,8.9704,9.0207,9.0439,9.0573,9.0953,9.1117,9.1265,9.1487,9.1631,9.1593,9.1392,9.0506,9.0069,8.9987,9.0103,9.0271,9.0455,9.0639,9.0583,9.0387,9.0742,9.1019,9.071,9.0865,9.1445,9.1986,9.2257,9.2296,9.2373,9.2218,9.1909,9.2141,9.2528,9.218,9.1793,9.1677,9.1677,9.1367,9.1329,9.1484,9.16,9.1638,8.7276,8.7374,8.746,8.75,8.7499,8.75,8.75,8.75,8.75,8.75,8.75,8.75,8.75,8.75,8.75,8.75,8.75,8.75,8.75,8.75,8.75,8.75,8.7539,8.7578,8.7578,8.75,8.75,8.7617,8.7422,8.7656,8.7578,8.75,8.7695,8.7226,8.6797,8.664,8.664,8.664,8.664,8.664,8.66,8.6794,8.6944,8.6912,8.711,8.7117,8.7074,8.689,8.6766,8.6714,8.661,8.661,8.6603,8.6603,8.6642,8.6796,8.7035,8.777,8.8118,8.835,8.8118,8.8273,8.8505,8.8892,8.9208,8.9743,8.9898,9.013,9.0439,9.0555,9.0903,9.0903,9.0981,9.0981,9.1251,9.1251,9.1438,9.2057,9.2475,9.2623,9.2837,9.2644,9.2567,9.1909,9.1069,9.0907,9.0842,9.0919,9.1079,9.1209,9.1346,9.1346,9.1322,9.1677,9.1793,9.1638,9.1986,9.276,9.3224,9.3541,9.3425,9.307,9.3147,9.3108,9.3263,9.3347,9.307,9.2915,9.3263,9.3263,9.2644,9.2141,9.2025,9.2257,9.2567,8.7414,8.742,8.75,8.75,8.75,8.75,8.75,8.75,8.75,8.75,8.75,8.75,8.75,8.75,8.75,8.75,8.75,8.75,8.75,8.75,8.75,8.7695,8.7851,8.7969,8.8281,8.8203,8.8359,8.8437,8.8515,8.8398,8.8476,8.8515,8.8359,8.8476,8.8203,8.789,8.7344,8.7304,8.7265,8.7265,8.7262,8.7293,8.7233,8.7176,8.7136,8.7016,8.6909,8.6849,8.6767,8.6726,8.6681,8.6642,8.6642,8.6642,8.6758,8.7144,8.7886,8.8582,8.8937,8.9472,8.924,8.9008,8.9395,8.9743,9.0014,9.0633,9.0787,9.1058,9.1445,9.16,9.1716,9.1754,9.1793,9.1754,9.1793,9.1793,9.2257,9.2876,9.3263,9.3495,9.3611,9.3495,9.3147,9.2373,9.1515,9.1554,9.167,9.1716,9.1754,9.1793,9.187,9.1909,9.1948,9.2141,9.2412,9.2605,9.3147,9.4037,9.4315,9.4431,9.4121,9.3727,9.4037,9.423,9.4044,9.3928,9.4044,9.4114,9.4121,9.3882,9.3418,9.2953,9.2605,9.2915,9.3418,8.75,8.75,8.75,8.75,8.7578,8.7734,8.7695,8.7656,8.7656,8.7695,8.7656,8.7773,8.789,8.7734,8.7695,8.7773,8.7851,8.7812,8.7851,8.7812,8.8047,8.832,8.8594,8.875,8.9062,8.9609,8.9765,8.9453,8.9883,8.957,8.9609,8.9765,8.957,8.9531,8.9179,8.8672,8.8047,8.8086,8.8086,8.8083,8.8034,8.7738,8.777,8.7685,8.7546,8.7409,8.7298,8.7176,8.7049,8.6964,8.688,8.6835,8.6758,8.6726,8.7222,8.7963,8.8853,8.9208,8.9634,9.0246,9.0362,9.0207,9.0362,9.0903,9.1251,9.1367,9.1367,9.1445,9.1638,9.1754,9.1832,9.1909,9.1986,9.2025,9.2102,9.2412,9.2915,9.3379,9.3727,9.3959,9.4075,9.3882,9.3302,9.2567,9.187,9.1716,9.1754,9.1948,9.2025,9.2057,9.218,9.2412,9.2451,9.2528,9.2876,9.3534,9.4153,9.5042,9.4926,9.4934,9.4617,9.4578,9.4926,9.5004,9.4578,9.4547,9.4965,9.4895,9.4624,9.4392,9.4462,9.3928,9.3611,9.3921,9.4385,8.75,8.75,8.75,8.7812,8.8398,8.9023,8.9297,8.9258,8.9258,8.9258,8.9297,8.9258,8.9101,8.9258,8.9297,8.9219,8.9219,8.9297,8.9297,8.9219,8.9023,8.9375,8.9531,8.9648,8.9844,9.0,9.0117,9.0234,9.0078,9.0078,9.0117,8.9961,9.0234,9.0195,8.9961,8.9531,8.9375,8.9217,8.9177,8.9009,8.898,8.8856,8.8776,8.8601,8.8459,8.8384,8.8273,8.8307,8.828,8.835,8.8389,8.8428,8.8466,8.8466,8.8814,8.9549,9.0014,9.0284,9.0865,9.1174,9.1251,9.1213,9.1251,9.1367,9.1638,9.1754,9.1754,9.1716,9.1754,9.1832,9.2218,9.2412,9.2683,9.2915,9.3031,9.3302,9.3804,9.423,9.4578,9.481,9.4895,9.4346,9.3727,9.276,9.2141,9.187,9.1909,9.2257,9.2373,9.2482,9.2683,9.2915,9.3147,9.3302,9.4075,9.481,9.5352,9.5855,9.57,9.57,9.5816,9.5855,9.5971,9.5855,9.5584,9.5739,9.6164,9.5893,9.5506,9.5893,9.5971,9.5236,9.4779,9.5011,9.5166,8.75,8.7539,8.7851,8.8633,8.9726,9.0273,9.0664,9.0859,9.0312,9.0,9.0,8.9961,9.0,8.9922,8.9922,8.9922,8.9883,8.9844,8.9844,8.9844,9.0078,9.0234,9.0351,9.0547,9.082,9.0859,9.1015,9.125,9.0976,9.1015,9.1094,9.1133,9.1015,9.1015,9.1054,9.1094,9.1054,9.0736,9.0374,9.0034,8.9905,8.9813,8.9588,8.9581,8.9476,8.9358,8.9281,8.9299,8.9247,8.9201,8.9201,8.9208,8.9285,8.944,8.9704,9.0362,9.0787,9.1058,9.1445,9.16,9.1677,9.1716,9.1716,9.1909,9.1948,9.2025,9.1832,9.1716,9.1793,9.1948,9.2528,9.307,9.3534,9.4044,9.416,9.4315,9.474,9.5166,9.5468,9.5739,9.5506,9.4965,9.4191,9.3186,9.2721,9.2876,9.3147,9.3495,9.3379,9.314,9.3379,9.3618,9.3928,9.423,9.5042,9.5661,9.5932,9.6241,9.6396,9.6474,9.6822,9.6706,9.6474,9.6551,9.6628,9.6706,9.6628,9.6706,9.6512,9.6822,9.6899,9.6474,9.6009,9.6048,9.6125,8.75,8.7578,8.8437,8.9726,9.1172,9.1328,9.1797,9.2383,9.0976,9.0273,9.0312,9.0273,9.039,9.0586,9.0586,9.0547,9.0625,9.0625,9.0664,9.0234,9.0586,9.0898,9.1289,9.1445,9.164,9.2265,9.2422,9.207,9.2383,9.2265,9.2148,9.2578,9.2422,9.2226,9.2148,9.2187,9.207,9.1902,9.105,9.0369,9.0216,8.9908,8.9615,8.9692,8.9649,8.9563,8.9524,8.9479,8.9395,8.9433,8.9472,8.9588,8.9827,9.013,9.0478,9.071,9.1213,9.1484,9.1638,9.1716,9.1716,9.1716,9.1716,9.2141,9.2296,9.2327,9.2173,9.2451,9.2644,9.3031,9.3572,9.3882,9.4307,9.4817,9.5127,9.532,9.5591,9.5893,9.6009,9.6125,9.5739,9.5274,9.4965,9.3998,9.3379,9.385,9.4044,9.4307,9.4462,9.4037,9.423,9.4508,9.4888,9.5236,9.5506,9.6009,9.6164,9.6435,9.6706,9.6822,9.6822,9.6822,9.6822,9.6822,9.6822,9.6822,9.6783,9.6822,9.686,9.686,9.7015,9.7363,9.7325,9.7247,9.7325,8.75,8.7656,8.9062,9.0351,9.1328,9.2031,9.2383,9.2578,9.2187,9.1914,9.1953,9.1953,9.1914,9.1758,9.1758,9.1719,9.1797,9.1601,9.1914,9.1836,9.1758,9.1679,9.2187,9.2148,9.2383,9.25,9.2578,9.2578,9.2578,9.2578,9.2578,9.2578,9.2578,9.2578,9.2578,9.2578,9.2539,9.2479,9.1898,9.1307,9.1299,9.134,9.1294,9.1153,9.1022,9.091,9.0903,9.0981,9.1058,9.1097,9.1097,9.1135,9.1135,9.129,9.1367,9.1445,9.1561,9.1677,9.1716,9.1716,9.1754,9.1793,9.187,9.2296,9.2567,9.2637,9.2915,9.3302,9.365,9.4075,9.4501,9.4733,9.5042,9.5584,9.6055,9.6203,9.6396,9.6474,9.6551,9.628,9.5932,9.5661,9.5429,9.5042,9.4423,9.4199,9.416,9.4423,9.5081,9.512,9.539,9.57,9.6087,9.6358,9.6396,9.6319,9.6474,9.6551,9.6744,9.6822,9.6822,9.6976,9.7092,9.6899,9.6822,9.7131,9.7209,9.6899,9.6899,9.717,9.7518,9.7982,9.833,9.8369,9.8562,8.75,8.7734,8.9297,9.0742,9.1836,9.2383,9.2578,9.2578,9.2578,9.2578,9.2578,9.2578,9.2578,9.2578,9.2578,9.2578,9.2578,9.2578,9.2422,9.25,9.2578,9.25,9.2578,9.2578,9.2578,9.2578,9.2578,9.2578,9.2578,9.2578,9.2578,9.2578,9.2578,9.2578,9.2578,9.2577,9.2571,9.2497,9.2222,9.2106,9.2121,9.1928,9.1799,9.1725,9.1744,9.1716,9.1716,9.1716,9.1677,9.1677,9.16,9.16,9.1561,9.16,9.1677,9.1677,9.1677,9.1716,9.1716,9.1754,9.187,9.2064,9.2257,9.276,9.4075,9.4191,9.3882,9.4191,9.3959,9.4269,9.4888,9.5236,9.5661,9.6164,9.6396,9.659,9.6628,9.6667,9.6706,9.659,9.6396,9.6319,9.6125,9.6087,9.5623,9.5623,9.539,9.5236,9.5777,9.5893,9.6319,9.6551,9.6744,9.6822,9.6667,9.6628,9.6706,9.6783,9.6938,9.6899,9.6976,9.7286,9.7402,9.7441,9.7634,9.806,9.8021,9.7673,9.7827,9.8292,9.8524,9.8794,9.9104,9.9452,9.98,8.7656,8.8047,8.9375,9.0976,9.2461,9.2578,9.2578,9.2578,9.2578,9.2578,9.2578,9.2578,9.2578,9.2578,9.2578,9.2578,9.2578,9.2578,9.2578,9.2578,9.2578,9.2578,9.2578,9.2578,9.2578,9.2578,9.2578,9.2578,9.2578,9.2578,9.2578,9.2578,9.2578,9.2578,9.2576,9.2569,9.2516,9.2371,9.2168,9.2052,9.1917,9.1793,9.1732,9.1723,9.1716,9.1716,9.1716,9.1716,9.1716,9.1716,9.1716,9.1716,9.1716,9.1716,9.1716,9.1716,9.1716,9.1716,9.1716,9.1716,9.2211,9.2637,9.2908,9.3688,9.4965,9.5274,9.4934,9.4926,9.4694,9.481,9.539,9.5777,9.628,9.6551,9.6706,9.6822,9.6822,9.6822,9.6822,9.6822,9.6783,9.6744,9.6706,9.6706,9.6744,9.6783,9.6822,9.6822,9.6706,9.6512,9.6551,9.6667,9.6744,9.6822,9.6822,9.7054,9.717,9.7363,9.7518,9.7247,9.7247,9.7866,9.8253,9.833,9.8562,9.8826,9.8942,9.8748,9.9058,9.9212,9.9452,9.9607,9.9955,10.0342,10.093,8.832,8.957,8.9883,9.1015,9.2461,9.2578,9.2578,9.2578,9.2578,9.2578,9.2578,9.2578,9.2578,9.2578,9.2578,9.2578,9.2578,9.2578,9.2578,9.2578,9.2578,9.2578,9.2578,9.2578,9.2578,9.2578,9.2578,9.2578,9.2578,9.2578,9.2578,9.2578,9.2578,9.2578,9.2573,9.252,9.2399,9.227,9.2121,9.1926,9.1905,9.1786,9.1712,9.1716,9.1716,9.1716,9.1716,9.1716,9.1716,9.1716,9.1832,9.1909,9.1986,9.2025,9.2025,9.2141,9.2102,9.2064,9.2102,9.2102,9.2644,9.3217,9.3534,9.3998,9.5004,9.5623,9.5623,9.6125,9.6009,9.6009,9.6396,9.6396,9.6706,9.6706,9.6783,9.6822,9.6822,9.6822,9.6822,9.6822,9.6783,9.6783,9.6783,9.6783,9.6783,9.6822,9.6822,9.6822,9.7015,9.6938,9.6899,9.7015,9.7092,9.6822,9.6822,9.7557,9.7789,9.7982,9.8176,9.8176,9.8369,9.8794,9.9104,9.9143,9.922,9.9367,9.9483,9.987,9.9677,9.98,10.0148,10.0465,10.0814,10.1239,10.1812]}]]